[[{"header":{"parameterUnit":"m.s-1","parameterCategory":1,"la1":31.0,"la2":29.5877,"lo1":-88.7671,"lo2":-86.6584,"dy":0.0162,"dx":0.0185,"nx":115,"ny":88,"refTime":"2023-08-17T18:00:00:Z","depth":0,"parameterNumber":2,"parameterNumberName":"U-component_of_WINDS"},"data":[0.0,0.0,0.0,0.0,0.0,0.0,0.0,0.0,0.0,0.0,0.0,0.0,0.0,0.0,0.0,0.0,0.0,0.0,0.0,0.0,0.0,0.0,0.0,0.0,0.0,0.0,0.0,0.0,0.0,0.0,0.0,0.0,0.0,0.0,0.0,0.0,0.0,0.0,0.0,0.0,0.0,0.0,0.0,0.0,0.0,0.0,0.0,0.0,0.0,0.0,0.0,0.0,0.0,0.0,0.0,0.0,0.0,0.0,0.0,0.0,0.0,0.0,0.0,0.0,0.0,0.0,0.0,0.0,0.0,0.0,0.0,0.0,0.0,0.0,0.0,0.0,0.0,0.0,0.0,0.0,0.0,0.0,0.0,0.0,0.0,0.0,0.0,0.0,0.0,0.0,0.0,0.0,0.0,0.0,0.0,0.0,0.0,0.0,0.0,0.0,0.0,0.0,0.0,0.0,0.0,0.0,0.0,0.0,0.0,0.0,0.0,0.0,0.0,0.0,0.0,0.0,0.0,0.0,0.0,0.0,0.0,0.0,0.0,0.0,0.0,0.0,0.0,0.0,0.0,0.0,0.0,0.0,0.0,0.0,0.0,0.0,0.0,0.0,0.0,0.0,0.0,0.0,0.0,0.0,0.0,0.0,0.0,0.0,0.0,0.0,0.0,0.0,0.0,0.0,0.0,0.0,0.0,0.0,0.0,0.0,0.0,0.0,0.0,0.0,0.0,0.0,0.0,0.0,0.0,0.0,0.0,0.0,0.0,0.0,0.0,0.0,0.0,0.0,0.0,0.0,0.0,0.0,0.0,0.0,0.0,0.0,0.0,0.0,0.0,0.0,0.0,0.0,0.0,0.0,0.0,0.0,0.0,0.0,0.0,0.0,0.0,0.0,0.0,0.0,0.0,0.0,0.0,0.0,0.0,0.0,0.0,0.0,0.0,0.0,0.0,0.0,0.0,0.0,0.0,0.0,0.0,0.0,0.0,0.0,0.0,0.0,0.0,0.0,0.0,0.0,0.0,0.0,0.0,0.0,0.0,0.0,0.0,0.0,0.0,0.0,0.0,0.0,0.0,0.0,0.0,0.0,0.0,0.0,0.0,0.0,0.0,0.0,0.0,0.0,0.0,0.0,0.0,0.0,0.0,0.0,0.0,0.0,0.0,0.0,0.0,0.0,0.0,0.0,0.0,0.0,0.0,0.0,0.0,0.0,0.0,0.0,0.0,0.0,0.0,0.0,0.0,0.0,0.0,0.0,0.0,0.0,0.0,0.0,0.0,0.0,0.0,0.0,0.0,0.0,0.0,0.0,0.0,0.0,0.0,0.0,0.0,0.0,0.0,0.0,0.0,0.0,0.0,0.0,0.0,0.0,0.0,0.0,0.0,0.0,0.0,0.0,0.0,0.0,0.0,0.0,0.0,0.0,0.0,0.0,0.0,0.0,0.0,0.0,0.0,0.0,0.0,0.0,0.0,0.0,0.0,0.0,0.0,0.0,0.0,0.0,0.0,0.0,0.0,0.0,0.0,0.0,0.0,0.0,0.0,0.0,0.0,0.0,0.0,0.0,0.0,0.0,0.0,0.0,0.0,0.0,0.0,0.0,0.0,0.0,0.0,0.0,0.0,0.0,0.0,0.0,0.0,0.0,0.0,0.0,0.0,0.0,0.0,0.0,0.0,0.0,0.0,0.0,0.0,0.0,0.0,0.0,0.0,0.0,0.0,0.0,0.0,0.0,0.0,0.0,0.0,0.0,0.0,0.0,0.0,0.0,0.0,0.0,0.0,0.0,0.0,0.0,0.0,0.0,0.0,0.0,0.0,0.0,0.0,0.0,0.0,0.0,0.0,0.0,0.0,0.0,0.0,0.0,0.0,0.0,0.0,0.0,0.0,0.0,0.0,0.0,0.0,0.0,0.0,0.0,0.0,0.0,0.0,0.0,0.0,0.0,0.0,0.0,0.0,0.0,0.0,0.0,0.0,0.0,0.0,0.0,0.0,0.0,0.0,0.0,0.0,0.0,0.0,0.0,0.0,0.0,0.0,0.0,0.0,0.0,0.0,0.0,0.0,0.0,0.0,0.0,0.0,0.0,0.0,0.0,0.0,0.0,0.0,0.0,0.0,0.0,0.0,0.0,0.0,0.0,0.0,0.0,0.0,0.0,0.0,0.0,0.0,0.0,0.0,0.0,0.0,0.0,0.0,0.0,0.0,0.0,0.0,0.0,0.0,0.0,0.0,0.0,0.0,0.0,0.0,0.0,0.0,0.0,0.0,0.0,0.0,0.0,0.0,0.0,0.0,0.0,0.0,0.0,0.0,0.0,0.0,0.0,0.0,0.0,0.0,0.0,0.0,0.0,0.0,0.0,0.0,0.0,0.0,0.0,0.0,0.0,0.0,0.0,0.0,0.0,0.0,0.0,0.0,0.0,0.0,0.0,0.0,0.0,0.0,0.0,0.0,0.0,0.0,0.0,0.0,0.0,0.0,0.0,0.0,0.0,0.0,0.0,0.0,0.0,0.0,0.0,0.0,0.0,0.0,0.0,0.0,0.0,0.0,0.0,0.0,0.0,0.0,0.0,0.0,0.0,0.0,0.0,0.0,0.0,0.0,0.0,0.0,0.0,0.0,0.0,0.0,0.0,0.0,0.0,0.0,0.0,0.0,0.0,0.0,0.0,0.0,0.0,0.0,0.0,0.0,0.0,0.0,0.0,0.0,0.0,0.0,0.0,0.0,0.0,0.0,0.0,0.0,0.0,0.0,0.0,0.0,0.0,0.0,0.0,0.0,0.0,0.0,0.0,0.0,0.0,0.0,0.0,0.0,0.0,0.0,0.0,0.0,0.0,0.0,0.0,0.0,0.0,0.0,0.0,0.0,0.0,0.0,0.0,0.0,0.0,0.0,0.0,0.0,0.0,0.0,0.0,0.0,0.0,0.0,0.0,0.0,0.0,0.0,0.0,0.0,0.0,0.0,0.0,0.0,0.0,0.0,0.0,0.0,0.0,0.0,0.0,0.0,0.0,0.0,0.0,0.0,0.0,0.0,0.0,0.0,0.0,0.0,0.0,0.0,0.0,0.0,0.0,0.0,0.0,0.0,0.0,0.0,0.0,0.0,0.0,0.0,0.0,0.0,0.0,0.0,0.0,0.0,0.0,0.0,0.0,0.0,0.0,0.0,0.0,0.0,0.0,0.0,0.0,0.0,0.0,0.0,0.0,0.0,0.0,0.0,0.0,0.0,0.0,0.0,0.0,0.0,0.0,0.0,0.0,0.0,0.0,0.0,0.0,0.0,0.0,0.0,0.0,0.0,0.0,0.0,0.0,0.0,0.0,0.0,0.0,0.0,0.0,0.0,0.0,0.0,0.0,0.0,0.0,0.0,0.0,0.0,0.0,0.0,0.0,0.0,0.0,0.0,0.0,0.0,0.0,0.0,0.0,0.0,0.0,0.0,0.0,0.0,0.0,0.0,0.0,0.0,0.0,0.0,0.0,0.0,0.0,0.0,0.0,0.0,0.0,0.0,0.0,0.0,0.0,0.0,0.0,0.0,0.0,0.0,0.0,0.0,0.0,0.0,0.0,0.0,0.0,0.0,0.0,0.0,0.0,0.0,0.0,0.0,0.0,0.0,0.0,0.0,0.0,0.0,0.0,0.0,0.0,0.0,0.0,0.0,0.0,0.0,0.0,0.0,0.0,0.0,0.0,0.0,0.0,0.0,0.0,0.0,0.0,0.0,0.0,0.0,0.0,0.0,0.0,0.0,0.0,0.0,0.0,0.0,0.0,0.0,0.0,0.0,0.0,0.0,0.0,0.0,0.0,0.0,0.0,0.0,0.0,0.0,0.0,0.0,0.0,0.0,0.0,0.0,0.0,0.0,0.0,0.0,0.0,0.0,0.0,0.0,0.0,0.0,0.0,0.0,0.0,0.0,0.0,0.0,0.0,0.0,0.0,0.0,0.0,0.0,0.0,0.0,0.0,0.0,0.0,0.0,0.0,0.0,0.0,0.0,0.0,0.0,0.0,0.0,0.0,0.0,0.0,0.0,0.0,0.0,0.0,0.0,0.0,0.0,0.0,0.0,0.0,0.0,0.0,0.0,0.0,0.0,0.0,0.0,0.0,0.0,0.0,0.0,0.0,0.0,0.0,0.0,0.0,0.0,0.0,0.0,0.0,0.0,0.0,0.0,0.0,0.0,0.0,0.0,0.0,0.0,0.0,0.0,0.0,0.0,0.0,0.0,0.0,0.0,0.0,0.0,0.0,0.0,0.0,0.0,0.0,-2.3165,0.0,0.0,0.0,0.0,0.0,0.0,0.0,0.0,0.0,0.0,0.0,0.0,0.0,0.0,0.0,0.0,0.0,0.0,0.0,0.0,0.0,0.0,0.0,0.0,0.0,0.0,0.0,0.0,0.0,0.0,0.0,0.0,0.0,0.0,0.0,0.0,0.0,0.0,0.0,0.0,0.0,0.0,0.0,0.0,0.0,0.0,0.0,0.0,0.0,0.0,0.0,0.0,0.0,0.0,0.0,0.0,0.0,0.0,0.0,0.0,0.0,0.0,0.0,0.0,0.0,0.0,0.0,0.0,0.0,0.0,0.0,0.0,0.0,0.0,0.0,0.0,0.0,0.0,0.0,0.0,0.0,0.0,0.0,0.0,0.0,0.0,0.0,0.0,0.0,0.0,0.0,0.0,0.0,0.0,0.0,0.0,0.0,0.0,0.0,0.0,0.0,0.0,0.0,0.0,0.0,0.0,0.0,0.0,0.0,0.0,-2.4467,-2.4273,-2.4164,-2.4127,-2.4105,0.0,0.0,0.0,0.0,0.0,0.0,0.0,0.0,0.0,0.0,0.0,0.0,0.0,0.0,0.0,0.0,0.0,0.0,0.0,0.0,0.0,0.0,0.0,0.0,0.0,0.0,0.0,0.0,0.0,0.0,0.0,0.0,0.0,0.0,0.0,0.0,0.0,0.0,0.0,0.0,0.0,0.0,0.0,0.0,0.0,0.0,0.0,0.0,0.0,0.0,0.0,0.0,0.0,0.0,0.0,0.0,0.0,0.0,0.0,0.0,0.0,0.0,0.0,0.0,0.0,0.0,0.0,0.0,0.0,0.0,0.0,0.0,0.0,0.0,0.0,0.0,0.0,0.0,0.0,0.0,0.0,0.0,0.0,0.0,0.0,0.0,0.0,0.0,0.0,0.0,0.0,0.0,0.0,0.0,0.0,0.0,0.0,0.0,0.0,0.0,0.0,0.0,0.0,0.0,0.0,0.0,0.0,0.0,0.0,0.0,0.0,0.0,-2.5549,-2.5357,-2.5276,0.0,0.0,0.0,0.0,0.0,0.0,0.0,0.0,0.0,0.0,0.0,0.0,0.0,0.0,0.0,0.0,0.0,0.0,0.0,0.0,0.0,0.0,0.0,0.0,0.0,0.0,0.0,0.0,0.0,0.0,0.0,0.0,0.0,0.0,0.0,0.0,0.0,0.0,0.0,0.0,0.0,0.0,0.0,0.0,0.0,0.0,0.0,0.0,0.0,0.0,0.0,0.0,0.0,0.0,0.0,0.0,0.0,0.0,0.0,0.0,0.0,0.0,0.0,0.0,0.0,0.0,0.0,0.0,0.0,0.0,0.0,0.0,0.0,0.0,0.0,0.0,0.0,0.0,0.0,0.0,0.0,0.0,0.0,0.0,0.0,0.0,0.0,0.0,0.0,0.0,0.0,0.0,0.0,0.0,0.0,0.0,0.0,0.0,0.0,0.0,0.0,0.0,0.0,0.0,0.0,0.0,0.0,0.0,0.0,0.0,-2.6602,-2.8815,-2.7767,0.0,-2.6702,0.0,0.0,0.0,0.0,0.0,0.0,0.0,0.0,0.0,0.0,0.0,0.0,0.0,0.0,0.0,0.0,0.0,0.0,0.0,0.0,0.0,0.0,0.0,0.0,0.0,0.0,0.0,0.0,0.0,0.0,0.0,0.0,0.0,0.0,0.0,0.0,0.0,0.0,0.0,0.0,0.0,0.0,0.0,0.0,0.0,0.0,0.0,0.0,0.0,0.0,0.0,0.0,0.0,0.0,0.0,0.0,0.0,0.0,0.0,0.0,0.0,0.0,0.0,0.0,0.0,0.0,0.0,0.0,0.0,0.0,0.0,0.0,0.0,0.0,0.0,0.0,0.0,0.0,0.0,0.0,0.0,0.0,0.0,0.0,0.0,0.0,0.0,0.0,0.0,0.0,0.0,0.0,0.0,0.0,0.0,0.0,0.0,0.0,0.0,0.0,0.0,0.0,0.0,0.0,0.0,0.0,0.0,0.0,0.0,0.0,-2.7791,-2.9265,-2.8494,-2.7675,0.0,0.0,0.0,0.0,0.0,0.0,0.0,0.0,0.0,0.0,0.0,0.0,0.0,0.0,0.0,0.0,0.0,0.0,0.0,0.0,0.0,0.0,0.0,0.0,0.0,0.0,0.0,0.0,0.0,0.0,0.0,0.0,0.0,0.0,0.0,0.0,0.0,0.0,0.0,0.0,0.0,0.0,0.0,0.0,0.0,0.0,0.0,0.0,0.0,0.0,0.0,0.0,0.0,0.0,0.0,0.0,0.0,0.0,0.0,0.0,0.0,0.0,0.0,0.0,0.0,0.0,0.0,0.0,0.0,0.0,0.0,0.0,0.0,0.0,0.0,0.0,0.0,0.0,0.0,0.0,0.0,0.0,0.0,0.0,0.0,0.0,0.0,0.0,0.0,0.0,0.0,0.0,0.0,0.0,0.0,0.0,0.0,0.0,0.0,0.0,0.0,0.0,0.0,0.0,0.0,0.0,0.0,0.0,0.0,0.0,-2.845,-2.905,-2.9948,-2.9618,-2.8625,-2.7033,0.0,0.0,0.0,0.0,0.0,0.0,0.0,0.0,0.0,0.0,0.0,0.0,0.0,0.0,0.0,0.0,0.0,0.0,0.0,0.0,0.0,0.0,0.0,0.0,0.0,0.0,0.0,0.0,0.0,0.0,0.0,0.0,0.0,0.0,0.0,0.0,0.0,0.0,0.0,0.0,0.0,0.0,0.0,0.0,0.0,0.0,0.0,0.0,0.0,0.0,0.0,0.0,0.0,0.0,0.0,0.0,0.0,0.0,0.0,0.0,0.0,0.0,0.0,0.0,0.0,0.0,0.0,0.0,0.0,0.0,0.0,0.0,0.0,0.0,0.0,0.0,0.0,0.0,0.0,0.0,0.0,0.0,0.0,0.0,0.0,0.0,0.0,0.0,0.0,0.0,0.0,0.0,0.0,0.0,0.0,0.0,0.0,0.0,0.0,0.0,0.0,0.0,0.0,0.0,0.0,0.0,0.0,0.0,-3.2173,-3.0725,-3.0467,-3.1869,-3.1681,-3.0249,0.0,0.0,0.0,0.0,0.0,0.0,0.0,0.0,0.0,0.0,0.0,0.0,0.0,0.0,0.0,0.0,0.0,0.0,0.0,0.0,0.0,0.0,0.0,0.0,0.0,0.0,0.0,0.0,0.0,0.0,0.0,0.0,0.0,0.0,0.0,0.0,0.0,0.0,0.0,0.0,0.0,0.0,0.0,0.0,0.0,0.0,0.0,0.0,0.0,0.0,0.0,0.0,0.0,0.0,0.0,0.0,0.0,0.0,0.0,0.0,0.0,0.0,0.0,0.0,0.0,0.0,0.0,0.0,0.0,0.0,0.0,0.0,0.0,0.0,0.0,0.0,0.0,0.0,0.0,0.0,0.0,0.0,0.0,0.0,0.0,0.0,0.0,0.0,0.0,0.0,0.0,0.0,0.0,0.0,0.0,0.0,0.0,0.0,0.0,0.0,0.0,0.0,0.0,0.0,0.0,0.0,0.0,0.0,0.0,-2.9311,-3.0483,-3.2155,-3.4136,-3.207,-3.0514,0.0,0.0,0.0,0.0,0.0,0.0,0.0,0.0,0.0,0.0,0.0,0.0,0.0,0.0,0.0,0.0,0.0,0.0,0.0,0.0,0.0,0.0,0.0,0.0,0.0,0.0,0.0,0.0,0.0,0.0,0.0,0.0,0.0,0.0,0.0,0.0,0.0,0.0,0.0,0.0,0.0,0.0,0.0,0.0,0.0,0.0,0.0,0.0,0.0,0.0,0.0,0.0,0.0,0.0,0.0,0.0,0.0,0.0,0.0,0.0,0.0,0.0,0.0,0.0,0.0,0.0,0.0,0.0,0.0,0.0,0.0,0.0,0.0,0.0,0.0,0.0,0.0,0.0,0.0,0.0,0.0,0.0,0.0,0.0,0.0,0.0,0.0,0.0,0.0,0.0,0.0,0.0,0.0,0.0,0.0,0.0,0.0,0.0,0.0,0.0,0.0,0.0,0.0,0.0,0.0,0.0,0.0,0.0,0.0,-2.911,0.0,-3.3909,-3.4885,-3.2493,-3.0732,0.0,0.0,0.0,0.0,0.0,0.0,0.0,0.0,0.0,0.0,0.0,0.0,0.0,0.0,0.0,0.0,0.0,0.0,0.0,0.0,0.0,0.0,0.0,0.0,0.0,0.0,0.0,0.0,0.0,0.0,0.0,0.0,0.0,0.0,0.0,0.0,0.0,0.0,0.0,0.0,0.0,0.0,0.0,0.0,0.0,0.0,0.0,0.0,0.0,0.0,0.0,0.0,0.0,0.0,0.0,0.0,0.0,0.0,0.0,0.0,0.0,0.0,0.0,0.0,0.0,0.0,0.0,0.0,0.0,0.0,0.0,0.0,0.0,0.0,0.0,0.0,0.0,0.0,0.0,0.0,0.0,0.0,0.0,0.0,0.0,0.0,0.0,0.0,0.0,0.0,0.0,0.0,0.0,0.0,0.0,0.0,0.0,0.0,0.0,0.0,0.0,0.0,0.0,0.0,0.0,0.0,0.0,0.0,-2.9734,-3.2431,-3.5053,-3.5655,-3.4136,-3.3122,-3.1083,0.0,0.0,0.0,0.0,0.0,0.0,0.0,0.0,0.0,0.0,0.0,0.0,0.0,0.0,0.0,0.0,0.0,0.0,0.0,0.0,0.0,0.0,0.0,0.0,0.0,0.0,0.0,0.0,0.0,0.0,0.0,0.0,0.0,0.0,0.0,0.0,0.0,0.0,0.0,0.0,0.0,0.0,0.0,0.0,0.0,0.0,0.0,0.0,0.0,0.0,0.0,0.0,0.0,0.0,0.0,0.0,0.0,0.0,0.0,0.0,0.0,0.0,0.0,0.0,0.0,0.0,0.0,0.0,0.0,0.0,0.0,0.0,0.0,0.0,0.0,0.0,0.0,0.0,0.0,0.0,0.0,0.0,0.0,0.0,0.0,0.0,0.0,0.0,0.0,0.0,0.0,0.0,0.0,0.0,0.0,0.0,0.0,0.0,0.0,0.0,0.0,0.0,0.0,0.0,0.0,0.0,0.0,0.0,0.0,-3.0779,-3.3549,-3.5462,-3.628,-3.3591,-3.1952,0.0,0.0,0.0,0.0,0.0,0.0,0.0,0.0,0.0,0.0,0.0,0.0,0.0,0.0,0.0,0.0,0.0,0.0,0.0,0.0,0.0,0.0,0.0,0.0,0.0,0.0,0.0,0.0,0.0,0.0,0.0,0.0,0.0,0.0,0.0,0.0,0.0,0.0,0.0,0.0,0.0,0.0,0.0,0.0,0.0,0.0,0.0,0.0,0.0,0.0,0.0,0.0,0.0,0.0,0.0,0.0,0.0,0.0,0.0,0.0,0.0,0.0,0.0,0.0,0.0,0.0,0.0,0.0,0.0,0.0,0.0,0.0,0.0,0.0,0.0,0.0,0.0,0.0,0.0,0.0,0.0,0.0,0.0,0.0,0.0,0.0,0.0,0.0,0.0,0.0,0.0,0.0,0.0,0.0,0.0,0.0,0.0,0.0,0.0,0.0,0.0,0.0,0.0,0.0,0.0,0.0,0.0,0.0,0.0,-3.1523,-3.4183,-3.6195,-3.7399,-3.4211,-3.251,-3.2431,0.0,0.0,0.0,0.0,0.0,0.0,0.0,0.0,0.0,0.0,0.0,0.0,0.0,0.0,0.0,0.0,0.0,0.0,0.0,0.0,0.0,0.0,0.0,0.0,0.0,0.0,0.0,0.0,0.0,0.0,0.0,0.0,0.0,0.0,0.0,0.0,0.0,0.0,0.0,0.0,0.0,0.0,0.0,0.0,0.0,0.0,0.0,0.0,0.0,0.0,0.0,0.0,0.0,0.0,0.0,0.0,0.0,0.0,0.0,0.0,0.0,0.0,0.0,0.0,0.0,0.0,0.0,0.0,0.0,0.0,0.0,0.0,0.0,0.0,0.0,0.0,0.0,0.0,0.0,0.0,0.0,0.0,0.0,0.0,0.0,0.0,0.0,0.0,0.0,0.0,0.0,0.0,0.0,0.0,0.0,0.0,0.0,0.0,0.0,0.0,0.0,0.0,0.0,0.0,0.0,0.0,0.0,0.0,-3.4111,-3.6696,-3.7868,-3.7551,-3.5183,-3.3024,0.0,0.0,0.0,0.0,0.0,0.0,0.0,0.0,0.0,0.0,0.0,0.0,0.0,0.0,0.0,0.0,0.0,0.0,0.0,0.0,0.0,0.0,0.0,0.0,0.0,0.0,0.0,0.0,0.0,0.0,0.0,0.0,0.0,0.0,0.0,0.0,0.0,0.0,0.0,0.0,0.0,0.0,0.0,0.0,0.0,0.0,0.0,0.0,0.0,0.0,0.0,0.0,0.0,0.0,0.0,0.0,0.0,0.0,0.0,0.0,0.0,0.0,0.0,0.0,0.0,0.0,0.0,0.0,0.0,0.0,0.0,0.0,0.0,0.0,0.0,0.0,0.0,0.0,0.0,0.0,0.0,0.0,0.0,0.0,0.0,0.0,0.0,0.0,0.0,0.0,0.0,0.0,0.0,0.0,0.0,0.0,0.0,0.0,0.0,0.0,0.0,0.0,0.0,0.0,0.0,0.0,0.0,0.0,0.0,-3.7049,-3.8996,-3.9966,-3.9901,-3.738,-3.5328,0.0,0.0,0.0,0.0,0.0,0.0,0.0,0.0,0.0,0.0,0.0,0.0,0.0,0.0,0.0,0.0,0.0,0.0,0.0,0.0,0.0,0.0,0.0,0.0,0.0,0.0,0.0,0.0,0.0,0.0,0.0,0.0,0.0,0.0,0.0,0.0,0.0,0.0,0.0,0.0,0.0,0.0,0.0,0.0,0.0,0.0,0.0,0.0,0.0,0.0,0.0,0.0,0.0,0.0,0.0,0.0,0.0,0.0,0.0,0.0,0.0,0.0,0.0,0.0,0.0,0.0,0.0,0.0,0.0,0.0,0.0,0.0,0.0,0.0,0.0,0.0,0.0,0.0,0.0,0.0,0.0,0.0,0.0,0.0,0.0,0.0,0.0,0.0,0.0,0.0,0.0,0.0,0.0,0.0,0.0,0.0,0.0,0.0,0.0,0.0,0.0,0.0,0.0,0.0,0.0,0.0,0.0,0.0,-3.5289,-3.8588,-4.0196,-4.1184,-4.1631,-3.906,-3.6861,0.0,0.0,0.0,0.0,0.0,0.0,0.0,0.0,0.0,0.0,0.0,0.0,0.0,0.0,0.0,0.0,0.0,0.0,0.0,0.0,0.0,0.0,0.0,0.0,0.0,0.0,0.0,0.0,0.0,0.0,0.0,0.0,0.0,0.0,0.0,0.0,0.0,0.0,0.0,0.0,0.0,0.0,0.0,0.0,0.0,0.0,0.0,0.0,0.0,0.0,0.0,0.0,0.0,0.0,0.0,0.0,0.0,0.0,0.0,0.0,0.0,0.0,0.0,0.0,0.0,0.0,0.0,0.0,0.0,0.0,0.0,0.0,0.0,0.0,0.0,0.0,0.0,0.0,0.0,0.0,0.0,0.0,0.0,0.0,0.0,0.0,0.0,0.0,0.0,0.0,0.0,0.0,0.0,0.0,0.0,0.0,0.0,0.0,0.0,0.0,0.0,0.0,0.0,0.0,0.0,0.0,0.0,0.0,-3.6404,-3.9217,-4.0682,-4.178,-4.2451,-4.0205,-3.7788,0.0,0.0,0.0,0.0,0.0,0.0,0.0,0.0,0.0,0.0,0.0,0.0,0.0,0.0,0.0,0.0,0.0,0.0,0.0,0.0,0.0,0.0,0.0,0.0,0.0,0.0,0.0,0.0,0.0,0.0,0.0,0.0,0.0,0.0,0.0,0.0,0.0,0.0,0.0,0.0,0.0,0.0,0.0,0.0,0.0,0.0,0.0,0.0,0.0,0.0,0.0,0.0,0.0,0.0,0.0,0.0,0.0,0.0,0.0,0.0,0.0,0.0,0.0,0.0,0.0,0.0,0.0,0.0,0.0,0.0,0.0,0.0,0.0,0.0,0.0,0.0,0.0,0.0,0.0,0.0,0.0,0.0,0.0,0.0,0.0,0.0,0.0,0.0,0.0,0.0,0.0,0.0,0.0,0.0,0.0,0.0,0.0,0.0,0.0,0.0,0.0,0.0,0.0,0.0,0.0,0.0,0.0,0.0,-3.6189,-3.9568,-4.0966,-4.1872,-4.2403,-4.0265,-3.7947,0.0,0.0,0.0,0.0,0.0,0.0,0.0,0.0,0.0,0.0,0.0,0.0,0.0,0.0,0.0,0.0,0.0,0.0,0.0,0.0,0.0,0.0,0.0,0.0,0.0,0.0,0.0,0.0,0.0,0.0,0.0,0.0,0.0,0.0,0.0,0.0,0.0,0.0,0.0,0.0,0.0,0.0,0.0,0.0,0.0,0.0,0.0,0.0,-2.6494,0.0,0.0,0.0,0.0,0.0,0.0,0.0,0.0,0.0,0.0,0.0,0.0,0.0,0.0,0.0,0.0,0.0,0.0,0.0,0.0,0.0,0.0,0.0,0.0,0.0,0.0,0.0,0.0,0.0,0.0,0.0,0.0,0.0,0.0,0.0,0.0,0.0,0.0,0.0,0.0,0.0,0.0,0.0,0.0,0.0,0.0,0.0,0.0,0.0,0.0,0.0,0.0,0.0,0.0,0.0,0.0,0.0,0.0,0.0,-3.6908,-4.0153,-4.1051,-4.1703,-4.2293,-4.0821,-3.8767,0.0,0.0,0.0,0.0,0.0,0.0,0.0,0.0,0.0,0.0,0.0,0.0,0.0,0.0,0.0,0.0,0.0,0.0,0.0,0.0,0.0,0.0,0.0,0.0,0.0,0.0,0.0,0.0,0.0,0.0,0.0,0.0,0.0,0.0,0.0,0.0,0.0,0.0,0.0,0.0,0.0,0.0,0.0,0.0,0.0,0.0,0.0,0.0,0.0,0.0,0.0,0.0,0.0,0.0,0.0,0.0,0.0,0.0,0.0,0.0,0.0,0.0,0.0,0.0,0.0,0.0,0.0,0.0,0.0,0.0,0.0,0.0,0.0,0.0,0.0,0.0,0.0,0.0,0.0,0.0,0.0,0.0,0.0,0.0,0.0,0.0,0.0,0.0,0.0,0.0,0.0,0.0,0.0,0.0,0.0,0.0,0.0,0.0,0.0,0.0,0.0,0.0,0.0,0.0,0.0,0.0,0.0,-3.4835,-3.7397,-4.043,-4.0723,-4.1186,-4.203,-4.114,-3.9409,-3.6777,0.0,0.0,0.0,0.0,0.0,0.0,0.0,0.0,0.0,0.0,0.0,0.0,0.0,0.0,0.0,0.0,0.0,0.0,0.0,0.0,0.0,0.0,0.0,0.0,0.0,0.0,0.0,0.0,0.0,0.0,0.0,0.0,0.0,0.0,0.0,0.0,0.0,0.0,-2.6367,-2.7941,0.0,0.0,0.0,0.0,0.0,0.0,0.0,0.0,-2.8727,0.0,0.0,0.0,0.0,0.0,0.0,0.0,0.0,0.0,0.0,0.0,0.0,0.0,0.0,0.0,0.0,0.0,0.0,0.0,0.0,0.0,0.0,0.0,0.0,0.0,0.0,0.0,0.0,0.0,0.0,0.0,0.0,0.0,0.0,0.0,0.0,0.0,0.0,0.0,0.0,0.0,0.0,0.0,0.0,0.0,0.0,0.0,0.0,0.0,0.0,0.0,0.0,0.0,0.0,0.0,0.0,-3.4051,-3.4126,-3.5881,-3.9363,-3.9489,-3.9799,-4.0419,-4.0123,-3.8611,-3.5809,0.0,0.0,0.0,0.0,0.0,0.0,0.0,0.0,0.0,0.0,0.0,0.0,0.0,0.0,0.0,0.0,0.0,0.0,0.0,0.0,0.0,0.0,0.0,0.0,0.0,0.0,0.0,0.0,0.0,0.0,0.0,0.0,0.0,0.0,0.0,0.0,0.0,0.0,0.0,-2.9035,-3.0305,0.0,0.0,0.0,0.0,0.0,0.0,0.0,0.0,-2.9642,0.0,0.0,0.0,0.0,0.0,0.0,0.0,0.0,0.0,0.0,0.0,0.0,0.0,0.0,0.0,0.0,0.0,0.0,0.0,0.0,0.0,0.0,0.0,0.0,0.0,0.0,0.0,0.0,0.0,0.0,0.0,0.0,0.0,0.0,0.0,0.0,0.0,0.0,0.0,0.0,0.0,0.0,0.0,0.0,0.0,0.0,0.0,0.0,0.0,0.0,0.0,0.0,0.0,0.0,0.0,-3.3267,-3.4176,-3.6102,-3.9073,-3.9189,-3.9479,-4.006,-3.947,-3.8007,0.0,0.0,0.0,0.0,0.0,0.0,0.0,0.0,0.0,0.0,0.0,0.0,0.0,0.0,0.0,0.0,0.0,0.0,0.0,0.0,0.0,0.0,0.0,0.0,0.0,0.0,0.0,0.0,0.0,0.0,0.0,0.0,0.0,0.0,0.0,0.0,0.0,0.0,0.0,0.0,-3.0744,-3.2277,-3.2136,0.0,0.0,0.0,0.0,0.0,0.0,-3.1009,-3.095,0.0,0.0,0.0,0.0,0.0,0.0,0.0,0.0,0.0,0.0,0.0,0.0,0.0,0.0,0.0,0.0,0.0,0.0,0.0,0.0,0.0,0.0,0.0,0.0,0.0,0.0,0.0,0.0,0.0,0.0,0.0,0.0,0.0,0.0,0.0,0.0,0.0,0.0,0.0,0.0,0.0,0.0,0.0,0.0,0.0,0.0,0.0,0.0,0.0,0.0,0.0,0.0,0.0,0.0,0.0,-3.228,-3.4114,-3.6264,-3.8696,-3.8957,-3.9218,-3.9654,-3.878,-3.7339,0.0,0.0,0.0,0.0,0.0,0.0,0.0,0.0,0.0,0.0,0.0,0.0,0.0,0.0,0.0,0.0,0.0,0.0,0.0,0.0,0.0,0.0,0.0,0.0,0.0,0.0,0.0,0.0,0.0,0.0,0.0,0.0,0.0,0.0,0.0,0.0,0.0,0.0,0.0,0.0,0.0,-3.4363,-3.4073,-3.4735,0.0,0.0,0.0,0.0,-3.2329,-3.2663,0.0,0.0,0.0,0.0,0.0,0.0,0.0,0.0,0.0,0.0,0.0,0.0,0.0,0.0,0.0,0.0,0.0,0.0,0.0,0.0,0.0,0.0,0.0,0.0,0.0,0.0,0.0,0.0,0.0,0.0,0.0,0.0,0.0,0.0,0.0,0.0,0.0,0.0,0.0,0.0,0.0,0.0,0.0,0.0,0.0,0.0,0.0,0.0,0.0,0.0,0.0,0.0,0.0,0.0,0.0,0.0,-3.1584,-3.3135,-3.5088,-3.7389,-3.8028,-3.8347,-3.8405,-3.7767,-3.6489,0.0,0.0,0.0,0.0,0.0,0.0,0.0,0.0,0.0,0.0,0.0,0.0,0.0,0.0,0.0,0.0,0.0,0.0,0.0,0.0,0.0,0.0,0.0,0.0,0.0,0.0,0.0,0.0,0.0,0.0,0.0,0.0,0.0,0.0,0.0,0.0,0.0,0.0,0.0,0.0,0.0,-3.6468,-3.562,-3.6464,-3.6994,0.0,0.0,-3.477,-3.52,-3.5627,0.0,0.0,0.0,0.0,0.0,0.0,0.0,0.0,0.0,0.0,0.0,0.0,0.0,0.0,0.0,0.0,0.0,0.0,0.0,0.0,0.0,0.0,0.0,0.0,0.0,0.0,0.0,0.0,0.0,0.0,0.0,0.0,0.0,0.0,0.0,0.0,0.0,0.0,0.0,0.0,0.0,0.0,0.0,0.0,0.0,0.0,0.0,0.0,0.0,0.0,0.0,0.0,0.0,0.0,0.0,-2.932,-3.1341,-3.2984,-3.486,-3.7032,-3.7584,-3.7832,-3.768,-3.6613,-3.5195,0.0,0.0,0.0,0.0,0.0,0.0,0.0,0.0,0.0,0.0,0.0,0.0,0.0,0.0,0.0,0.0,0.0,0.0,0.0,0.0,0.0,0.0,0.0,0.0,0.0,0.0,0.0,0.0,0.0,0.0,0.0,0.0,0.0,0.0,0.0,0.0,0.0,0.0,0.0,0.0,0.0,0.0,-3.7423,-3.8077,0.0,0.0,0.0,-3.625,-3.6401,0.0,0.0,0.0,0.0,0.0,0.0,0.0,0.0,0.0,0.0,0.0,0.0,0.0,0.0,0.0,0.0,0.0,0.0,0.0,0.0,0.0,0.0,0.0,0.0,0.0,0.0,0.0,0.0,0.0,0.0,0.0,0.0,0.0,0.0,0.0,0.0,0.0,0.0,0.0,0.0,0.0,0.0,0.0,0.0,0.0,0.0,0.0,0.0,0.0,0.0,0.0,0.0,0.0,0.0,0.0,0.0,0.0,-3.1148,-3.3049,-3.4939,-3.6773,-3.7101,-3.7205,-3.7119,-3.5418,0.0,0.0,0.0,0.0,0.0,0.0,0.0,0.0,0.0,0.0,0.0,0.0,0.0,0.0,0.0,0.0,0.0,0.0,0.0,0.0,0.0,0.0,0.0,0.0,0.0,0.0,0.0,-2.6942,0.0,0.0,0.0,0.0,0.0,0.0,0.0,0.0,0.0,0.0,0.0,0.0,0.0,0.0,-3.775,-3.8694,-3.9286,-3.9891,0.0,0.0,-3.7471,-3.7183,-3.7447,-3.6829,0.0,0.0,0.0,0.0,0.0,0.0,0.0,0.0,0.0,0.0,0.0,0.0,0.0,0.0,0.0,0.0,0.0,0.0,0.0,0.0,0.0,0.0,0.0,0.0,0.0,0.0,0.0,0.0,0.0,0.0,0.0,0.0,0.0,0.0,0.0,0.0,0.0,0.0,0.0,0.0,0.0,0.0,0.0,0.0,0.0,0.0,0.0,0.0,0.0,0.0,0.0,0.0,0.0,0.0,0.0,-3.0768,-3.3174,-3.505,-3.6297,-3.6259,-3.6373,-3.6691,-3.4273,-3.2764,0.0,0.0,0.0,0.0,0.0,0.0,0.0,0.0,0.0,0.0,0.0,0.0,0.0,0.0,0.0,0.0,0.0,0.0,0.0,0.0,0.0,0.0,0.0,0.0,0.0,0.0,0.0,0.0,0.0,0.0,0.0,0.0,0.0,0.0,0.0,0.0,0.0,0.0,0.0,0.0,0.0,-3.8721,-3.9106,-3.9819,-4.0746,0.0,0.0,-3.836,-3.7906,-3.8967,-3.8276,-3.3507,0.0,0.0,0.0,0.0,0.0,0.0,0.0,0.0,0.0,0.0,0.0,0.0,0.0,0.0,0.0,0.0,0.0,0.0,0.0,0.0,0.0,0.0,0.0,0.0,0.0,0.0,0.0,0.0,0.0,0.0,0.0,0.0,0.0,0.0,0.0,0.0,0.0,0.0,0.0,0.0,0.0,0.0,0.0,0.0,0.0,0.0,0.0,0.0,0.0,0.0,0.0,0.0,0.0,-2.9187,-3.0127,-3.2266,-3.3933,-3.5084,-3.5298,-3.528,-3.5,-3.3755,-3.2273,0.0,0.0,0.0,0.0,0.0,0.0,0.0,0.0,0.0,0.0,0.0,0.0,0.0,0.0,0.0,0.0,0.0,0.0,0.0,0.0,0.0,0.0,0.0,0.0,0.0,0.0,0.0,0.0,-2.8661,-2.8499,-2.7871,0.0,0.0,0.0,0.0,0.0,0.0,0.0,0.0,0.0,0.0,-3.9154,-3.9628,-4.0327,0.0,0.0,-4.0112,-3.8799,-3.8879,-3.8613,-3.7536,-3.4914,-3.3875,0.0,0.0,0.0,0.0,0.0,0.0,0.0,0.0,0.0,0.0,0.0,0.0,0.0,0.0,0.0,0.0,0.0,0.0,0.0,0.0,0.0,0.0,0.0,0.0,0.0,0.0,0.0,0.0,0.0,0.0,0.0,0.0,0.0,0.0,0.0,0.0,0.0,0.0,0.0,0.0,0.0,0.0,0.0,0.0,0.0,0.0,0.0,0.0,0.0,0.0,0.0,0.0,-2.8972,-2.9813,-3.1783,-3.3325,-3.4473,-3.4352,-3.4126,-3.3754,-3.2691,-3.1325,0.0,0.0,0.0,0.0,0.0,0.0,0.0,0.0,0.0,0.0,0.0,0.0,0.0,0.0,0.0,0.0,0.0,0.0,0.0,0.0,0.0,0.0,0.0,0.0,0.0,0.0,0.0,0.0,-2.9012,-2.8787,-2.794,0.0,0.0,0.0,0.0,0.0,0.0,0.0,0.0,0.0,0.0,-3.9357,-3.9743,-4.0435,-4.1006,-4.1281,-3.9828,-3.8783,-3.8941,-3.8118,-3.6985,-3.5345,0.0,0.0,0.0,0.0,0.0,0.0,0.0,0.0,0.0,0.0,0.0,0.0,0.0,0.0,0.0,0.0,0.0,0.0,0.0,0.0,0.0,0.0,0.0,0.0,0.0,0.0,0.0,0.0,0.0,0.0,-3.2515,0.0,0.0,0.0,0.0,0.0,0.0,0.0,0.0,0.0,0.0,0.0,0.0,0.0,0.0,0.0,0.0,0.0,0.0,0.0,0.0,0.0,0.0,-2.9349,-2.9923,-3.1887,-3.3516,-3.4556,-3.342,-3.2922,-3.3208,-3.0913,-2.9678,-2.98,0.0,0.0,0.0,0.0,0.0,0.0,0.0,0.0,0.0,0.0,0.0,0.0,0.0,0.0,0.0,0.0,0.0,0.0,0.0,0.0,0.0,0.0,0.0,0.0,0.0,0.0,-2.8407,-2.7877,-2.7507,0.0,0.0,0.0,0.0,0.0,0.0,0.0,0.0,0.0,0.0,-3.7606,-3.9246,-3.9271,-3.9917,-4.0383,-4.0409,-3.9241,-3.826,-3.783,-3.7736,-3.6852,0.0,0.0,0.0,0.0,0.0,0.0,0.0,0.0,0.0,0.0,0.0,0.0,0.0,0.0,0.0,0.0,0.0,0.0,0.0,0.0,0.0,0.0,0.0,0.0,0.0,0.0,0.0,-3.5156,-3.4452,0.0,0.0,0.0,0.0,0.0,0.0,0.0,0.0,0.0,0.0,0.0,-3.0671,-3.1107,0.0,0.0,0.0,0.0,0.0,0.0,0.0,0.0,0.0,0.0,0.0,0.0,-2.8935,-2.9751,-3.1164,-3.2215,-3.2802,-3.2389,-3.1873,-3.1337,-3.0464,-2.9341,-2.7926,0.0,0.0,0.0,0.0,0.0,0.0,0.0,0.0,0.0,0.0,0.0,0.0,0.0,0.0,0.0,0.0,0.0,0.0,0.0,0.0,0.0,0.0,0.0,0.0,0.0,-2.9588,0.0,0.0,0.0,0.0,0.0,0.0,0.0,0.0,0.0,0.0,0.0,-3.4477,-3.5464,-3.7717,-3.9094,-3.8566,-3.8836,-3.9051,0.0,0.0,0.0,0.0,0.0,0.0,0.0,0.0,0.0,0.0,0.0,0.0,0.0,0.0,-3.4699,-3.297,-3.2463,-3.2592,-3.346,0.0,0.0,0.0,0.0,0.0,0.0,0.0,0.0,0.0,0.0,0.0,0.0,0.0,0.0,-3.5819,0.0,-3.4486,0.0,0.0,0.0,0.0,0.0,0.0,0.0,0.0,-3.2122,-3.2274,-3.1443,-3.1717,-3.1455,0.0,-3.0065,-2.9638,0.0,0.0,0.0,0.0,0.0,0.0,0.0,0.0,-2.8707,-2.9337,-3.0382,-3.1124,-3.1497,-3.1306,-3.0927,-3.0233,-2.9836,-2.8732,-2.689,-2.6413,-2.5793,0.0,0.0,0.0,0.0,0.0,0.0,0.0,0.0,0.0,0.0,0.0,0.0,0.0,0.0,0.0,0.0,0.0,0.0,0.0,0.0,0.0,0.0,0.0,-2.9412,0.0,0.0,0.0,0.0,0.0,0.0,0.0,0.0,0.0,-3.1447,-3.3201,-3.4824,-3.5891,-3.7508,-3.8329,-3.7767,0.0,0.0,0.0,0.0,0.0,0.0,0.0,-3.5844,-3.5675,-3.5435,-3.542,-3.5774,-3.6308,-3.6425,-3.5749,0.0,0.0,-3.4418,-3.397,-3.4114,-3.5204,-3.5223,-3.54,-3.6564,-3.6658,-3.6451,0.0,0.0,0.0,0.0,0.0,0.0,0.0,0.0,-3.6187,-3.6375,0.0,-3.5143,0.0,0.0,0.0,0.0,0.0,-3.2444,0.0,0.0,-3.312,-3.3317,-3.271,-3.1588,-3.0995,-3.0946,-3.0898,-3.096,-3.1053,-2.9272,0.0,0.0,0.0,0.0,0.0,0.0,-2.8661,-2.885,-2.9609,-3.0212,-3.0721,-3.0261,-2.9966,-2.9852,-2.8846,-2.7753,-2.6735,-2.6625,-2.6159,-2.5139,-2.52,0.0,0.0,0.0,0.0,0.0,0.0,0.0,0.0,0.0,0.0,0.0,0.0,0.0,0.0,0.0,0.0,0.0,0.0,0.0,0.0,-2.7732,0.0,0.0,0.0,0.0,0.0,0.0,0.0,0.0,0.0,0.0,-3.3027,-3.3718,-3.4775,-3.6526,0.0,0.0,0.0,0.0,-3.7539,-3.6438,-3.6662,-3.6739,-3.6228,-3.6126,-3.5856,-3.5122,0.0,0.0,-3.606,-3.621,-3.6189,-3.5711,-3.5517,-3.5633,-3.6153,-3.5593,-3.5513,-3.6538,-3.6243,-3.6347,-3.741,-3.7249,-3.6935,-3.8302,0.0,0.0,0.0,0.0,-3.6849,-3.7161,-3.7667,-3.7568,-3.7097,-3.6428,-3.5796,0.0,0.0,0.0,0.0,0.0,0.0,-3.2189,-3.1912,-3.2888,-3.3052,-3.2581,-3.2608,-3.2202,-3.1476,-3.1091,-3.0922,-3.096,-2.9849,-2.9269,-2.9164,0.0,0.0,0.0,0.0,-2.8593,-2.8987,-2.9358,-2.9569,-2.9714,-2.9446,-2.8931,-2.8146,-2.7834,-2.711,-2.597,-2.5922,-2.5552,-2.4861,-2.4849,0.0,0.0,0.0,0.0,0.0,0.0,0.0,0.0,0.0,0.0,0.0,0.0,0.0,0.0,0.0,0.0,0.0,0.0,0.0,-2.8808,-2.8382,-2.8576,0.0,0.0,0.0,0.0,0.0,0.0,0.0,0.0,0.0,-3.3401,-3.5094,-3.6185,0.0,0.0,-3.7092,-3.6076,-3.6133,-3.6184,-3.5868,-3.56,0.0,-3.5231,-3.5172,-3.5139,-3.5127,-3.5542,-3.5561,-3.4711,-3.5009,-3.5136,-3.4574,-3.4462,-3.4545,-3.4853,-3.4906,-3.5181,-3.5882,-3.607,-3.6303,-3.7149,-3.7323,-3.7069,-3.8485,-3.831,-3.7369,-3.7097,-3.7171,-3.7092,-3.7358,-3.7773,-3.7439,-3.7043,-3.6456,-3.5961,-3.4896,-3.3494,-3.2394,0.0,0.0,0.0,-3.1973,-3.1576,-3.2202,-3.2182,-3.1645,-3.1762,-3.148,-3.0847,-3.0498,-3.0451,-3.0683,-2.9948,-2.9652,-2.9702,0.0,0.0,-2.7951,-2.8164,-2.8382,-2.8618,-2.869,-2.876,-2.876,-2.8614,-2.8153,-2.7325,-2.7121,-2.6472,-2.5354,-2.5182,-2.4816,-2.4286,-2.4348,-2.4384,0.0,0.0,0.0,0.0,0.0,0.0,0.0,0.0,0.0,0.0,0.0,-2.5984,-2.6165,0.0,0.0,0.0,-2.7211,-2.7888,-2.8765,-2.8318,0.0,0.0,0.0,0.0,0.0,0.0,0.0,-3.1657,-3.2085,-3.256,-3.3398,-3.4837,-3.5822,-3.5531,-3.602,-3.6029,-3.5236,0.0,-3.5175,-3.4745,-3.4602,-3.4339,-3.3958,-3.4004,-3.4261,-3.453,-3.4721,-3.4619,-3.4007,-3.4222,-3.4315,-3.3871,-3.3699,-3.3625,-3.3632,-3.3568,-3.3997,-3.5377,-3.5771,-3.6079,-3.6801,-3.6668,-3.6204,-3.812,-3.7731,-3.7099,-3.6801,-3.6748,-3.6908,-3.6891,-3.673,-3.6444,-3.6414,-3.6549,-3.5748,-3.4977,-3.4117,-3.2747,0.0,-3.1659,-3.2162,-3.202,-3.1301,-3.1301,-3.0934,-3.0296,-2.9801,-2.953,-2.9531,-2.9486,-2.9711,-3.0117,-2.9597,-2.9376,-2.9322,-2.8935,-2.8651,-2.8539,-2.8295,-2.8082,-2.7881,-2.7841,-2.78,-2.776,-2.7719,-2.7462,-2.6901,-2.6461,-2.576,-2.48,-2.4378,-2.3988,-2.3564,-2.3717,-2.3804,-2.379,0.0,0.0,0.0,0.0,0.0,0.0,0.0,0.0,0.0,0.0,0.0,0.0,0.0,0.0,0.0,-2.6259,0.0,-2.7951,-2.7869,0.0,0.0,0.0,-2.9248,-2.9949,-3.0763,-3.1532,-3.2185,0.0,0.0,-3.3137,-3.3593,-3.405,-3.452,-3.4508,-3.4407,-3.4361,-3.4614,-3.439,-3.3498,-3.3662,-3.3592,-3.2723,-3.2911,-3.3284,-3.3375,-3.3395,-3.3322,-3.3201,-3.3357,-3.3391,-3.2926,-3.2901,-3.2798,-3.2307,-3.1884,-3.2283,-3.4539,-3.5014,-3.5303,-3.5738,-3.5284,-3.4694,-3.6582,-3.6449,-3.628,-3.6397,-3.671,-3.675,-3.6619,-3.6418,-3.6364,-3.6095,-3.5787,-3.5534,-3.4711,-3.3423,-3.3076,-3.2156,-3.0912,-3.1359,-3.1216,-3.0599,-3.0528,-3.0456,-3.0272,-3.0137,-2.989,-2.9463,-2.915,-2.9038,-2.9105,-2.8455,-2.8121,-2.8097,-2.7473,-2.7466,-2.8028,-2.7992,-2.7962,-2.7881,-2.7394,-2.688,-2.6407,-2.6365,-2.5921,-2.5054,-2.4952,-2.441,-2.346,-2.3363,-2.3207,-2.2927,-2.2964,-2.2905,-2.2756,-2.3054,0.0,0.0,0.0,0.0,0.0,0.0,0.0,0.0,0.0,-2.5705,-2.5688,0.0,-2.7833,0.0,-2.6851,-2.7344,-2.8269,-2.8036,0.0,0.0,-2.9387,-2.9408,-2.9387,-3.0282,-3.0911,-3.0932,-3.1752,-3.2418,-3.2622,-3.2785,-3.2746,-3.2509,-3.3782,-3.4544,-3.4175,-3.431,-3.4202,-3.3403,-3.3007,-3.2637,-3.2061,-3.2158,-3.2277,-3.1971,-3.1732,-3.1466,-3.1063,-3.0723,-3.0481,-3.0558,-3.0601,-3.0657,-3.0834,-3.0748,-3.088,-3.1568,-3.2106,-3.2539,-3.2854,-3.3031,-3.3079,-3.5517,-3.5321,-3.5321,-3.5334,-3.5391,-3.5617,-3.5568,-3.529,-3.4998,-3.4679,-3.4409,-3.4472,-3.3876,-3.283,-3.2509,-3.1716,-3.0586,-3.051,-3.0122,-2.9494,-2.9424,-2.9284,-2.895,-2.8856,-2.8632,-2.8326,-2.7739,-2.7457,-2.7436,-2.6873,-2.6576,-2.6583,-2.6194,-2.6215,-2.6697,-2.688,-2.7085,-2.7249,-2.6757,-2.6282,-2.5948,-2.5906,-2.5535,-2.4792,-2.4548,-2.3975,-2.2972,-2.2738,-2.2484,-2.2084,-2.2025,-2.2053,-2.2125,-2.2339,-2.2538,0.0,0.0,0.0,0.0,0.0,0.0,0.0,0.0,0.0,0.0,0.0,-2.765,-2.7495,-2.7215,-2.7422,-2.8354,-2.8208,-2.8309,-2.8949,-2.927,-2.9404,-2.9525,-3.0037,-3.0474,-3.0566,-3.0726,-3.0925,-3.1352,-3.1227,-3.1058,-3.0872,-3.2034,-3.2864,-3.2714,-3.2796,-3.2685,-3.2036,-3.1766,-3.1453,-3.0928,-3.0905,-3.088,-3.0596,-3.061,-3.0487,-2.9946,-2.9597,-2.9451,-2.9579,-2.9621,-2.9664,-2.9893,-2.9786,-2.9642,-2.9701,-2.9779,-3.0212,-3.1041,-3.1281,-3.1218,-3.484,-3.4425,-3.437,-3.4064,-3.3584,-3.3944,-3.401,-3.3816,-3.3285,-3.3017,-3.2974,-3.2989,-3.2693,-3.2115,-3.1403,-3.0721,-3.0113,-2.953,-2.8838,-2.8202,-2.8132,-2.7827,-2.7214,-2.6948,-2.6853,-2.6832,-2.6088,-2.5752,-2.5732,-2.5249,-2.5031,-2.5021,-2.5001,-2.5032,-2.5126,-2.54,-2.5777,-2.6216,-2.5863,-2.5675,-2.5633,-2.5633,-2.5373,-2.4876,-2.4443,-2.3754,-2.2712,-2.228,-2.1803,-2.1245,-2.1227,-2.1467,-2.1789,-2.1869,-2.2231,0.0,-2.2676,0.0,0.0,0.0,0.0,0.0,0.0,0.0,0.0,-2.6387,-2.6866,-2.7918,-2.7392,-2.7302,-2.8141,-2.8154,-2.8125,-2.8125,-2.8496,-2.8973,-2.9387,-2.953,-2.9796,-3.0187,-2.9559,-2.9289,-2.9745,-2.9458,-2.9303,-2.9464,-2.9851,-3.0285,-3.047,-3.0845,-3.1016,-3.0384,-3.03,-3.0193,-2.9709,-2.9456,-2.9362,-2.9339,-2.9499,-2.9679,-2.9149,-2.9009,-2.9005,-2.9047,-2.9,-2.9024,-2.9113,-2.8779,-2.8563,-2.8498,-2.8274,-2.8495,-2.9673,-2.9829,-2.9642,-3.436,-3.3945,-3.3725,-3.3095,-3.2242,-3.2137,-3.2555,-3.3231,-3.291,-3.2663,-3.2405,-3.2018,-3.1453,-3.083,-3.0257,-2.9329,-2.8144,-2.8012,-2.7577,-2.6858,-2.6858,-2.6769,-2.664,-2.6592,-2.6592,-2.6504,-2.5738,-2.5309,-2.5289,-2.4484,-2.4042,-2.4048,-2.4048,-2.4268,-2.4573,0.0,0.0,0.0,-2.4807,-2.4594,-2.4229,-2.4186,-2.384,-2.3043,-2.292,0.0,-2.158,-2.1442,-2.1344,-2.1225,-2.1508,0.0,0.0,0.0,0.0,0.0,0.0,0.0,0.0,0.0,0.0,0.0,-2.4606,-2.4881,-2.5473,-2.6187,-2.689,-2.7541,-2.7242,-2.7102,-2.7212,-2.7258,-2.7246,-2.7266,-2.7143,-2.713,-2.7208,-2.7511,-2.7696,-2.7756,-2.7974,-2.8178,-2.8309,-2.8248,-2.8043,-2.7795,-2.7783,-2.7883,-2.7983,-2.9685,-3.0715,-3.0362,-2.9575,-2.8948,-2.8473,-2.8382,-2.8337,-2.8311,-2.8017,-2.7881,-2.7745,-2.7447,-2.7239,-2.7364,-2.736,-2.7488,-2.763,-2.7679,-2.7696,-2.751,-2.7563,-2.7743,-2.8279,-2.8578,-2.8747,-3.379,0.0,-3.3243,-3.2598,0.0,-3.1402,-3.1508,-3.1772,-3.1741,-3.171,-3.1487,-3.0681,-3.0209,-3.0065,-2.9069,-2.826,-2.7582,-2.7211,-2.6843,-2.6496,-2.6496,-2.6496,-2.6496,-2.6352,-2.6184,-2.5964,-2.5212,-2.4683,-2.4445,-2.3811,-2.345,-2.345,-2.345,-2.358,-2.3757,-2.3405,-2.327,-2.3575,-2.3575,-2.3551,-2.3499,-2.3476,-2.3155,-2.2553,0.0,0.0,0.0,0.0,0.0,0.0,0.0,0.0,0.0,0.0,0.0,-2.2438,-2.2457,-2.2687,-2.3221,-2.3339,-2.3591,-2.4193,-2.4457,-2.4794,-2.5399,-2.5878,-2.6326,-2.6791,-2.6722,-2.6602,-2.6583,-2.6481,-2.6429,-2.6378,-2.6172,-2.6017,-2.6069,-2.6275,-2.6429,-2.6442,-2.6645,-2.6831,-2.7062,-2.6914,-2.6814,-2.6712,-2.6798,-2.6766,-2.6797,-2.8046,-2.9055,-2.8973,-2.805,-2.7393,-2.7369,-2.7346,-2.73,-2.7164,-2.7205,-2.72,-2.6976,-2.6771,-2.6633,-2.6715,-2.6757,-2.6798,-2.688,-2.7003,-2.7021,-2.694,-2.7044,-2.7249,-2.7394,-2.7679,-2.7921,-3.3071,-3.3007,-3.2678,-3.2005,-3.1222,-3.0905,-3.0495,-3.0182,0.0,0.0,0.0,-2.9342,-2.9074,-2.9203,-2.8029,-2.7394,-2.7293,-2.6657,-2.6372,-2.6352,-2.6272,-2.6232,-2.6232,-2.596,-2.5627,-2.529,-2.4604,-2.4121,-2.3769,-2.3296,-2.3057,-2.3101,-2.3057,-2.3018,-2.2984,-2.2906,-2.2706,-2.2429,-2.257,-2.283,-2.3128,-2.3148,-2.2886,-2.2365,-2.2386,-2.1947,-2.1017,-2.0683,-2.0698,-2.0924,-2.096,-2.118,-2.165,-2.1935,-2.2125,-2.2138,-2.2176,-2.2363,-2.2711,-2.288,-2.3062,-2.3467,-2.3834,-2.4474,-2.5409,-2.549,-2.5585,-2.5875,-2.5913,-2.5894,-2.5843,-2.5689,-2.5535,-2.5484,-2.5279,-2.5157,-2.5106,-2.5227,-2.5344,-2.5344,-2.5288,-2.5352,-2.5664,-2.5495,-2.5411,-2.5654,-2.5693,-2.5864,-2.5844,-2.6438,-2.7139,-2.7013,-2.64,-2.5956,-2.6131,-2.6324,-2.6257,-2.6142,-2.653,-2.6788,-2.656,-2.6426,-2.6426,-2.6448,-2.649,-2.6467,-2.6467,-2.6509,-2.6509,-2.6509,-2.6697,-2.6839,-2.6839,-2.6985,-2.719,-3.219,-3.17,-3.1219,-3.0713,-3.0182,-2.9603,-2.9306,-2.9106,-2.9394,-2.9166,-2.8521,-2.8419,-2.8023,-2.7539,-2.7102,-2.6694,-2.6287,-2.5956,-2.582,-2.582,-2.5428,-2.5299,-2.5279,-2.4812,-2.4617,-2.4538,-2.4082,-2.3848,-2.375,-2.3138,-2.2925,-2.3057,-2.2925,-2.2751,-2.2555,-2.2246,-2.1909,-2.1687,-2.2555,-2.2988,-2.2848,-2.2848,-2.2549,-2.1931,-2.1912,-2.1702,-2.1142,-2.0671,-2.0666,-2.1135,-2.1099,-2.1127,-2.1194,-2.1551,-2.1595,-2.1221,-2.1177,-2.1247,-2.1437,-2.1479,-2.1597,-2.1809,-2.2174,-2.3125,-2.5,-2.5076,-2.4937,-2.4765,-2.4753,-2.4647,-2.4448,-2.4585,-2.4603,-2.4367,-2.4317,-2.4199,-2.3967,-2.3835,-2.382,-2.382,-2.3731,-2.3795,-2.3909,-2.3854,-2.3899,-2.4011,-2.4029,-2.3732,-2.4202,-2.5251,-2.5649,-2.5182,-2.5186,-2.5114,-2.4973,-2.5168,-2.5317,-2.5338,-2.5423,-2.5593,-2.576,-2.5717,-2.5801,-2.5968,-2.5966,-2.5966,-2.5966,-2.6157,-2.6152,-2.6149,-2.6356,-2.6543,-2.6521,-2.6607,-2.6775,-3.1293,-3.103,-3.0442,-2.9962,-2.9448,-2.9079,-2.8593,-2.8095,-2.7901,-2.8056,-2.8366,-2.7598,-2.7267,-2.712,-2.6269,-2.574,-2.5543,-2.5165,-2.4925,-2.483,-2.4636,-2.4493,-2.4333,-2.414,-2.3929,-2.3671,-2.3252,-2.2889,-2.2617,-2.2073,-2.1847,-2.1935,-2.1847,-2.1754,-2.1658,-2.1516,-2.1293,-2.1032,-2.1797,-2.2131,-2.1907,-2.1864,-2.1745,-2.1429,-2.1151,-2.0772,-2.0352,-1.9859,-1.965,-1.9775,-2.0068,-2.0285,-2.0412,-2.0873,-2.0952,-2.0637,-2.0591,-2.0633,-2.0715,-2.0905,-2.1199,-2.1483,-2.1624,-2.2042,-2.2814,-2.3246,-2.3488,-2.3619,-2.352,-2.3488,-2.3687,-2.3687,-2.3565,-2.3202,-2.3263,-2.315,-2.2892,-2.31,-2.3155,-2.3206,-2.3306,-2.3317,-2.3103,-2.3036,-2.2979,-2.2947,-2.2715,-2.2625,-2.2574,-2.3112,-2.3733,-2.4008,-2.4107,-2.3974,-2.3817,-2.4036,-2.4229,-2.4272,-2.438,-2.4594,-2.4893,-2.4978,-2.5083,-2.5245,-2.5285,-2.5259,-2.5188,-2.5223,-2.5264,-2.5304,-2.5484,-2.5583,-2.5646,-2.5864,-2.6359,-3.0084,-2.9883,-2.9365,-2.8897,-2.8422,-2.8184,-2.7643,-2.6839,-2.6385,-2.6727,-2.7332,-2.6437,-2.6143,-2.6379,-2.5199,-2.4737,-2.4727,-2.4326,-2.4051,-2.3909,-2.3815,-2.3627,-2.3392,-2.3271,-2.2991,-2.259,-2.2254,-2.1889,-2.1553,-2.1114,-2.0907,-2.0862,-2.0819,-2.0756,-2.0799,-2.0729,-2.0577,-2.0494,-2.0891,-2.1053,-2.0825,-2.0887,-2.0905,-2.0799,-2.0403,-1.9999,-1.9561,-1.9061,-1.8674,-1.8591,-1.8948,-1.9229,-1.9428,-1.9849,-2.0008,-1.982,-1.9837,-1.9791,-1.9853,-2.0088,-2.0419,-2.0704,-2.0822,-2.076,-2.0601,-2.1032,-2.1628,-2.2178,-2.2094,-2.2144,-2.2443,-2.246,-2.2275,-2.1869,-2.1958,-2.1893,-2.1641,-2.2025,-2.2395,-2.2445,-2.2644,-2.2652,-2.2522,-2.2501,-2.2342,-2.2055,-2.2043,-2.1884,-2.1564,-2.1458,-2.2008,-2.2723,-2.2986,-2.2945,-2.2969,-2.3232,-2.3406,-2.3406,-2.356,-2.3864,-2.4145,-2.4212,-2.4282,-2.4449,-2.4463,-2.4375,-2.4255,-2.415,-2.4172,-2.4175,-2.4255,-2.4288,-2.4393,-2.477,-2.5569,-2.8233,-2.7711,-2.7406,-2.6899,-2.639,-2.6293,-2.5869,-2.5167,-2.5024,-2.4738,-2.4591,-2.435,-2.435,-2.427,-2.38,-2.361,-2.379,-2.3511,-2.3359,-2.3305,-2.3006,-2.2667,-2.2303,-2.1935,-2.1514,-2.1239,-2.1158,-2.105,-2.0997,-2.0727,-2.0501,-2.0376,-2.0182,-2.0155,-2.0217,-1.9915,-1.9781,-1.9985,-2.0008,-2.0036,-2.0025,-2.0268,-2.0268,-2.0025,-1.9881,-1.9692,-1.932,-1.8675,-1.8364,-1.8536,-1.8224,-1.8141,-1.8418,-1.8514,-1.8448,-1.8365,-1.8319,-1.8319,-1.8319,-1.8334,-1.8443,-1.8427,-1.88,-1.8923,-1.8891,-1.9005,-1.9465,-2.0248,-2.0492,-2.0492,-2.0313,-2.0476,-2.059,-2.0378,-2.0508,-2.0427,-2.0232,-2.0135,-2.0346,-2.0865,-2.1028,-2.1074,-2.1346,-2.1391,-2.138,-2.11,-2.1235,-2.1252,-2.0982,-2.094,-2.1031,-2.1356,-2.1731,-2.2195,-2.2397,-2.2838,-2.2906,-2.3013,-2.3101,-2.3212,-2.3347,-2.341,-2.3387,-2.3473,-2.3433,-2.3368,-2.3262,-2.3183,-2.304,-2.2996,-2.2957,-2.2899,-2.3062,-2.3386,-2.4121,-2.6983,-2.6544,-2.6062,-2.5613,-2.5218,-2.5163,-2.4875,-2.4342,-2.4028,-2.3573,-2.3138,-2.2669,-2.297,-2.38,-2.3238,-2.3032,-2.3113,-2.2686,-2.236,-2.207,-2.1865,-2.1538,-2.1078,-2.0876,-2.0702,-2.0518,-2.0138,-1.9957,-1.982,-1.9409,-1.9088,-1.898,-1.8926,-1.8897,-1.8918,-1.879,-1.8669,-1.8627,-1.8581,-1.8441,-1.8268,-1.8991,-1.9379,-1.9193,-1.8749,-1.8414,-1.8233,-1.7608,-1.7168,-1.6922,-1.7052,-1.7153,-1.7293,-1.7681,-1.787,-1.7827,-1.798,-1.8087,-1.8087,-1.8087,-1.8087,-1.8087,-1.8209,-1.8238,-1.8065,-1.809,-1.8261,-1.8529,-1.9173,-1.9665,-1.9844,-2.0006,-1.9926,-1.9734,-1.9878,-1.9926,-1.967,-1.9636,-1.9811,-2.0006,-1.9925,-1.9765,-1.9702,-1.9557,-1.9428,-1.9423,-1.9685,-1.9941,-1.9745,-1.9973,-2.0292,-2.0564,-2.088,-2.115,-2.1535,-2.1713,-2.1891,-2.1891,-2.1847,-2.198,-2.2322,-2.2397,-2.2371,-2.2438,-2.2368,-2.2191,-2.2004,-2.2004,-2.1905,-2.1867,-2.1846,-2.1787,-2.1865,-2.2207,-2.2811,-2.5577,-2.5094,-2.4649,-2.4332,-2.3965,-2.3843,-2.3548,-2.3135,-2.2568,-2.2162,-2.1776,-2.1216,-2.1607,-2.2567,-2.2276,-2.2074,-2.204,-2.1669,-2.1202,-2.0802,-2.0786,-2.0439,-1.9883,-1.9849,-1.9783,-1.9608,-1.9134,-1.892,-1.8812,-1.8303,-1.7949,-1.7963,-1.7902,-1.7811,-1.7764,-1.784,-1.7762,-1.7502,-1.7487,-1.7276,-1.7098,-1.772,-1.8224,-1.8271,-1.7794,-1.7412,-1.7298,-1.671,-1.6136,-1.5646,-1.598,-1.6244,-1.6392,-1.6876,-1.7251,-1.7477,-1.7672,-1.7807,-1.7807,-1.7761,-1.7667,-1.7714,-1.7714,-1.7621,-1.7434,-1.7387,-1.7293,-1.7243,-1.7894,-1.858,-1.8997,-1.9045,-1.8874,-1.8673,-1.8858,-1.8874,-1.8626,-1.8714,-1.8773,-1.8933,-1.8743,-1.8679,-1.8516,-1.8395,-1.835,-1.8288,-1.8504,-1.8627,-1.8643,-1.8966,-1.9304,-1.9654,-1.97,-2.0093,-2.0772,-2.1087,-2.0997,-2.0962,-2.106,-2.1069,-2.1254,-2.1269,-2.1101,-2.1104,-2.1132,-2.1084,-2.0859,-2.0761,-2.0741,-2.0683,-2.0722,-2.0761,-2.0742,-2.1056,-2.1253,-2.3863,-2.3131,-2.3008,-2.2798,-2.2445,-2.1962,-2.1486,-2.1249,-2.0618,-2.0308,-2.0344,-2.0225,-2.0241,-2.038,-2.0605,-2.0637,-2.057,-2.0389,-2.0054,-1.971,-1.971,-1.9333,-1.8701,-1.867,-1.8533,-1.8381,-1.8226,-1.8133,-1.8102,-1.7781,-1.7675,-1.7699,-1.7399,-1.7129,-1.7051,-1.7255,-1.7179,-1.6974,-1.6945,-1.6917,-1.6813,-1.6609,-1.6788,-1.7236,-1.7144,-1.6991,-1.6784,-1.61,-1.5631,-1.5423,-1.5285,-1.5416,-1.5849,-1.6053,-1.6501,-1.7162,-1.7138,-1.7059,-1.7073,-1.6857,-1.6716,-1.6683,-1.6777,-1.6683,-1.673,-1.673,-1.673,-1.6636,-1.6786,-1.6985,-1.7221,-1.7265,-1.7032,-1.6942,-1.6881,-1.6895,-1.6819,-1.7018,-1.6961,-1.7319,-1.7457,-1.7551,-1.7992,-1.8272,-1.8071,-1.804,-1.821,-1.8303,-1.8087,-1.8133,-1.8272,-1.8319,-1.8442,-1.8858,-2.0501,-2.0622,-2.0702,-2.0721,-2.0465,-2.0465,-2.0285,-2.0146,-1.9913,-1.9729,-1.9787,-1.9783,-1.9641,-1.9587,-1.9587,-1.9608,-1.9648,-1.9706,-1.9962,-1.9745,-1.9957,-2.2982,-2.2301,-2.1796,-2.1446,-2.1186,-2.0955,-2.0685,-2.041,-2.0183,-2.0138,-2.0138,-2.0086,-2.0138,-2.0138,-2.0034,-1.9979,-1.9898,-1.9832,-1.9491,-1.9002,-1.8957,-1.8712,-1.8315,-1.827,-1.813,-1.7837,-1.7652,-1.7419,-1.7138,-1.7022,-1.699,-1.6983,-1.6911,-1.6793,-1.6761,-1.68,-1.6706,-1.6467,-1.6453,-1.6271,-1.5934,-1.5948,-1.6111,-1.6222,-1.6155,-1.611,-1.6038,-1.5389,-1.5033,-1.495,-1.4866,-1.4923,-1.5149,-1.5573,-1.6126,-1.671,-1.6593,-1.6518,-1.6673,-1.6346,-1.6192,-1.6311,-1.6339,-1.6292,-1.6386,-1.6494,-1.6588,-1.6541,-1.64,-1.6414,-1.6461,-1.6541,-1.6588,-1.6588,-1.6588,-1.6588,-1.6541,-1.6447,-1.64,-1.6541,-1.6494,-1.6433,-1.6669,-1.6716,-1.6716,-1.6669,-1.6998,-1.7185,-1.7246,-1.7372,-1.7606,-1.7792,-1.7885,-1.8118,-1.8858,-1.9298,-1.948,-1.9751,-1.979,-1.967,-1.9513,-1.9444,-1.9267,-1.9135,-1.8993,-1.8972,-1.9101,-1.9192,-1.9073,-1.9112,-1.9152,-1.9271,-1.9371,-1.9429,-1.9469,-2.196,-2.1663,-2.1076,-2.0669,-2.0529,-2.0425,-2.0245,-1.9998,-1.9879,-1.9776,-1.9739,-1.9724,-1.9672,-1.9569,-1.9361,-1.9199,-1.9123,-1.9143,-1.8845,-1.829,-1.8156,-1.7933,-1.7665,-1.7621,-1.7527,-1.734,-1.7106,-1.6763,-1.6466,-1.6289,-1.6256,-1.6339,-1.6256,-1.6201,-1.6215,-1.6297,-1.617,-1.5792,-1.5671,-1.5398,-1.4897,-1.4936,-1.4955,-1.4879,-1.4744,-1.4941,-1.5473,-1.5006,-1.4656,-1.4503,-1.4447,-1.4445,-1.4577,-1.4899,-1.5431,-1.5994,-1.5832,-1.5745,-1.5907,-1.5584,-1.5371,-1.5542,-1.5473,-1.5473,-1.5473,-1.5534,-1.5568,-1.5534,-1.5439,-1.5309,-1.5343,-1.5486,-1.5771,-1.6211,-1.6353,-1.6353,-1.6353,-1.6163,-1.6069,-1.6069,-1.5974,-1.5832,-1.5832,-1.5927,-1.5927,-1.5832,-1.6211,-1.6447,-1.6447,-1.6574,-1.6857,-1.7044,-1.7044,-1.7185,-1.7563,-1.7796,-1.8287,-1.8608,-1.8642,-1.8589,-1.8616,-1.8583,-1.8549,-1.8462,-1.8473,-1.8475,-1.8574,-1.8749,-1.8851,-1.8891,-1.9033,-1.9152,-1.9231,-1.9253,-1.9253,-2.0872,-2.1032,-2.0727,-2.0544,-2.0393,-2.0182,-1.9956,-1.9598,-1.9376,-1.9168,-1.9011,-1.8921,-1.8855,-1.8527,-1.8579,-1.8372,-1.8212,-1.8309,-1.8031,-1.7513,-1.728,-1.7012,-1.6683,-1.673,-1.6669,-1.6541,-1.6292,-1.6136,-1.6042,-1.5511,-1.5404,-1.5597,-1.5391,-1.5219,-1.5279,-1.545,-1.5308,-1.4752,-1.4574,-1.4338,-1.3833,-1.3606,-1.3486,-1.3426,-1.312,-1.3629,-1.5075,-1.4821,-1.4352,-1.4024,-1.3786,-1.3819,-1.4027,-1.3988,-1.4264,-1.4858,-1.4829,-1.4698,-1.4675,-1.4447,-1.4303,-1.434,-1.41,-1.404,-1.4088,-1.3896,-1.38,-1.3848,-1.38,-1.3655,-1.3703,-1.38,-1.428,-1.5452,-1.5581,-1.5629,-1.5737,-1.5784,-1.5832,-1.5784,-1.5784,-1.5832,-1.5832,-1.5974,-1.5974,-1.5879,-1.5974,-1.6069,-1.5927,-1.5961,-1.5879,-1.5927,-1.6103,-1.6419,-1.635,-1.6355,-1.695,-1.7443,-1.7357,-1.7297,-1.7459,-1.7495,-1.7539,-1.7507,-1.7647,-1.767,-1.7955,-1.8112,-1.8273,-1.8393,-1.8674,-1.8834,-1.8873,-1.8873,-1.9015,-2.1106,-2.0792,-2.046,-1.9925,-1.9403,-1.9246,-1.9069,-1.8788,-1.8684,-1.8632,-1.8541,-1.8541,-1.8475,-1.8422,-1.8422,-1.8224,-1.7956,-1.7493,-1.7076,-1.6889,-1.6786,-1.6463,-1.613,-1.6244,-1.615,-1.5724,-1.5153,-1.4914,-1.4794,-1.4338,-1.4112,-1.4148,-1.4148,-1.4064,-1.41,-1.4148,-1.3981,-1.3647,-1.3576,-1.34,-1.3063,-1.2914,-1.2973,-1.3078,-1.2917,-1.2971,-1.329,-1.3017,-1.2795,-1.2711,-1.2571,-1.2683,-1.2924,-1.2996,-1.32,-1.3684,-1.3566,-1.3567,-1.3789,-1.3458,-1.3303,-1.3417,-1.3366,-1.3366,-1.3366,-1.3414,-1.3414,-1.3463,-1.3511,-1.3511,-1.3511,-1.3511,-1.3703,-1.4184,-1.4232,-1.4436,-1.4783,-1.507,-1.5452,-1.5737,-1.5689,-1.5689,-1.5784,-1.5879,-1.5879,-1.5784,-1.5737,-1.5642,-1.5642,-1.5594,-1.5594,-1.5594,-1.5663,-1.5691,-1.5757,-1.5737,-1.599,-1.6433,-1.6397,-1.6335,-1.6453,-1.65,-1.6572,-1.673,-1.6853,-1.7057,-1.7302,-1.7505,-1.7668,-1.7708,-1.7772,-1.7974,-1.8233,-1.8393,-1.8496,-2.0475,-2.0194,-1.9833,-1.9251,-1.859,-1.8537,-1.8257,-1.7793,-1.7793,-1.774,-1.7621,-1.7529,-1.7463,-1.7424,-1.7252,-1.7147,-1.6962,-1.6275,-1.5808,-1.5642,-1.5725,-1.546,-1.5022,-1.5092,-1.5045,-1.4663,-1.4136,-1.3848,-1.3859,-1.3474,-1.3232,-1.3232,-1.3232,-1.3221,-1.3232,-1.3232,-1.3087,-1.2737,-1.2689,-1.2517,-1.222,-1.2141,-1.2236,-1.2347,-1.2213,-1.1914,-1.1614,-1.1439,-1.1511,-1.165,-1.1585,-1.1652,-1.2015,-1.2003,-1.2177,-1.2508,-1.2541,-1.2549,-1.2855,-1.2591,-1.2442,-1.2635,-1.2592,-1.2543,-1.2543,-1.264,-1.264,-1.264,-1.2592,-1.2651,-1.2592,-1.264,-1.2592,-1.2495,-1.3173,-1.3607,-1.4004,-1.4292,-1.4592,-1.4819,-1.4962,-1.5105,-1.5213,-1.5452,-1.5499,-1.5499,-1.5404,-1.5356,-1.5356,-1.5356,-1.5309,-1.5309,-1.5404,-1.5355,-1.5272,-1.5225,-1.5169,-1.5348,-1.5548,-1.5558,-1.5637,-1.5676,-1.5726,-1.618,-1.6402,-1.673,-1.6976,-1.6976,-1.7098,-1.7,-1.6984,-1.7268,-1.7574,-1.7698,-1.7802,-1.904,-1.9221,-1.8902,-1.8427,-1.7956,-1.7889,-1.7422,-1.6749,-1.667,-1.6511,-1.6246,-1.6099,-1.5939,-1.5779,-1.5553,-1.55,-1.5358,-1.5024,-1.4509,-1.4197,-1.4159,-1.4028,-1.3738,-1.3703,-1.3655,-1.3511,-1.3221,-1.3028,-1.298,-1.27,-1.271,-1.2565,-1.2565,-1.2662,-1.2613,-1.2662,-1.2419,-1.2019,-1.198,-1.1717,-1.1317,-1.1277,-1.1277,-1.1258,-1.1067,-1.0839,-1.0529,-1.0467,-1.0637,-1.1056,-1.0809,-1.0781,-1.1103,-1.1045,-1.1225,-1.1664,-1.1657,-1.1758,-1.1879,-1.1771,-1.1682,-1.1804,-1.1678,-1.1541,-1.1531,-1.1433,-1.1345,-1.1336,-1.1287,-1.1238,-1.1287,-1.1287,-1.1198,-1.1091,-1.2252,-1.3076,-1.3366,-1.3414,-1.3607,-1.3703,-1.3956,-1.4244,-1.4292,-1.4688,-1.4831,-1.4879,-1.4783,-1.464,-1.4688,-1.4627,-1.4892,-1.4939,-1.4927,-1.4935,-1.4831,-1.4982,-1.4878,-1.4515,-1.4735,-1.4893,-1.4937,-1.5006,-1.5103,-1.5519,-1.585,-1.6237,-1.6443,-1.636,-1.6402,-1.6443,-1.6528,-1.6726,-1.6863,-1.7017,-1.7033,-1.7952,-1.7476,-1.7386,-1.7029,-1.6542,-1.6476,-1.6225,-1.5832,-1.5832,-1.5607,-1.5339,-1.5286,-1.5179,-1.5179,-1.5072,-1.506,-1.4942,-1.4522,-1.4049,-1.353,-1.3153,-1.3175,-1.3138,-1.3039,-1.2964,-1.2915,-1.2558,-1.2165,-1.197,-1.1649,-1.1453,-1.1336,-1.1443,-1.1443,-1.159,-1.1629,-1.158,-1.1433,-1.1385,-1.1345,-1.1198,-1.1198,-1.1091,-1.0886,-1.072,-1.0544,-1.0396,-1.0141,-1.0089,-1.0275,-1.0028,-1.0089,-1.0522,-1.0529,-1.0675,-1.1019,-1.1144,-1.1125,-1.1142,-1.1083,-1.0995,-1.0846,-1.0855,-1.0708,-1.0708,-1.0659,-1.0609,-1.0609,-1.0609,-1.0659,-1.0609,-1.0609,-1.056,-1.0609,-1.1336,-1.2019,-1.2311,-1.2554,-1.2894,-1.3366,-1.3366,-1.3463,-1.3559,-1.3655,-1.3703,-1.3655,-1.3463,-1.327,-1.3511,-1.3619,-1.3811,-1.4196,-1.4292,-1.4412,-1.4469,-1.4692,-1.4494,-1.3878,-1.3969,-1.4319,-1.4414,-1.4573,-1.4685,-1.4936,-1.5075,-1.5409,-1.545,-1.545,-1.559,-1.588,-1.5876,-1.598,-1.6144,-1.6247,-1.6215,-1.687,-1.6369,-1.6259,-1.5857,-1.519,-1.519,-1.4976,-1.46,-1.4546,-1.4493,-1.4266,-1.4159,-1.4159,-1.4266,-1.3997,-1.3997,-1.4051,-1.363,-1.3227,-1.2876,-1.2451,-1.2402,-1.2444,-1.2331,-1.2261,-1.2353,-1.2054,-1.1815,-1.1548,-1.1132,-1.0888,-1.0815,-1.0708,-1.0659,-1.0708,-1.0708,-1.0659,-1.056,-1.0609,-1.0708,-1.0708,-1.0806,-1.0806,-1.0641,-1.0484,-1.0386,-1.0141,-0.9526,-0.933,-0.9569,-0.9568,-0.9614,-0.9939,-1.004,-1.0232,-1.0534,-1.0562,-1.0605,-1.0596,-1.0547,-1.048,-1.0444,-1.0413,-1.0413,-1.0413,-1.0413,-1.0413,-1.0413,-1.0413,-1.0413,-1.0364,-1.0314,-1.0265,-1.0265,-1.0413,-1.0757,-1.1247,-1.1433,-1.1727,-1.2068,-1.2252,-1.2349,-1.2554,-1.2554,-1.2651,-1.264,-1.2651,-1.2506,-1.2495,-1.2543,-1.2748,-1.3184,-1.3392,-1.3436,-1.3508,-1.3708,-1.3936,-1.3395,-1.3474,-1.3798,-1.3866,-1.4093,-1.4306,-1.4432,-1.4419,-1.4531,-1.4699,-1.4908,-1.5117,-1.5284,-1.5257,-1.5296,-1.5486,-1.5741,-1.5658,-1.5803,-1.5537,-1.5348,-1.4815,-1.4169,-1.4116,-1.3846,-1.3369,-1.3369,-1.3315,-1.3197,-1.2989,-1.3098,-1.3152,-1.2871,-1.2545,-1.2772,-1.2491,-1.218,-1.1959,-1.1705,-1.1652,-1.1671,-1.1582,-1.1531,-1.1522,-1.1596,-1.1392,-1.112,-1.0941,-1.0851,-1.0562,-1.041,-1.0244,-1.0195,-1.0112,-0.988,-0.9822,-1.0028,-1.0102,-1.0077,-1.0216,-1.0265,-1.0216,-1.0158,-0.9978,-0.9493,-0.8898,-0.8609,-0.9155,-0.92,-0.9243,-0.9425,-0.9662,-0.9853,-1.0036,-1.0105,-1.0118,-1.0213,-1.0046,-1.0004,-1.0083,-1.0117,-1.0265,-1.0117,-1.0068,-1.0068,-1.001,-1.0248,-1.0115,-1.0115,-0.9993,-0.992,-0.9871,-0.9723,-0.9821,-1.0167,-1.0364,-1.0364,-1.0413,-1.0904,-1.11,-1.1247,-1.1443,-1.1785,-1.158,-1.158,-1.1531,-1.158,-1.1727,-1.1922,-1.2262,-1.2366,-1.241,-1.2517,-1.2617,-1.289,-1.2859,-1.3162,-1.3404,-1.338,-1.3565,-1.3848,-1.4008,-1.405,-1.4193,-1.4363,-1.4573,-1.4713,-1.4824,-1.4838,-1.4905,-1.4996,-1.5309,-1.5403,-1.4305,-1.4061,-1.3832,-1.3694,-1.3478,-1.3478,-1.3315,-1.2989,-1.2989,-1.2827,-1.2599,-1.2545,-1.2555,-1.2555,-1.2164,-1.2064,-1.19,-1.1564,-1.1256,-1.1004,-1.0819,-1.0836,-1.089,-1.0932,-1.0802,-1.0646,-1.0473,-1.0344,-1.0155,-1.0207,-0.9975,-0.9971,-0.9965,-0.9927,-0.9998,-0.989,-0.9957,-0.9801,-0.9769,-0.968,-0.9591,-0.9624,-0.9575,-0.9426,-0.9426,-0.9225,-0.8972,-0.8838,-0.8738,-0.8544,-0.8477,-0.8543,-0.9066,-0.925,-0.9385,-0.9615,-0.9706,-0.9633,-0.9509,-0.9387,-0.9329,-0.9156,-0.9171,-0.9171,-0.9122,-0.9221,-0.9171,-0.9148,-0.925,-0.9405,-0.9364,-0.9363,-0.9418,-0.9385,-0.9335,-0.9426,-0.9723,-0.9969,-1.0167,-1.0314,-1.0462,-1.0609,-1.056,-1.0462,-1.056,-1.0462,-1.0511,-1.0511,-1.0708,-1.0895,-1.114,-1.1482,-1.1473,-1.156,-1.1791,-1.1895,-1.2125,-1.2411,-1.2754,-1.3009,-1.2993,-1.3125,-1.3461,-1.3585,-1.3647,-1.3848,-1.3999,-1.4079,-1.4148,-1.4277,-1.4461,-1.4532,-1.467,-1.4936,-1.5159,-1.3694,-1.3396,-1.3188,-1.3044,-1.2881,-1.2881,-1.2827,-1.2663,-1.2545,-1.2391,-1.2164,-1.1946,-1.1782,-1.1782,-1.1509,-1.1291,-1.119,-1.1017,-1.0852,-1.0726,-1.0582,-1.0443,-1.0179,-1.0122,-0.9936,-1.0219,-1.0412,-1.0265,-1.0095,-0.9836,-0.9818,-0.9574,-0.9471,-0.932,-0.9305,-0.9312,-0.9127,-0.8909,-0.8851,-0.875,-0.8641,-0.8528,-0.8435,-0.8237,-0.8173,-0.7963,-0.7869,-0.7662,-0.7535,-0.7396,-0.7257,-0.7724,-0.8675,-0.8879,-0.8972,-0.9166,-0.9229,-0.9031,-0.8783,-0.8584,-0.8485,-0.8081,-0.828,-0.8379,-0.8528,-0.8627,-0.8775,-0.881,-0.8856,-0.8901,-0.8901,-0.8954,-0.9031,-0.9137,-0.9031,-0.913,-0.9377,-0.9624,-0.9871,-1.0019,-1.0019,-1.0019,-0.9969,-0.9821,-0.9871,-1.0019,-1.0216,-1.0216,-1.0167,-1.0364,-1.0502,-1.065,-1.0659,-1.0769,-1.0988,-1.125,-1.1491,-1.1816,-1.2178,-1.249,-1.2639,-1.2836,-1.3097,-1.3156,-1.3209,-1.3422,-1.3567,-1.3592,-1.3711,-1.4012,-1.4199,-1.4262,-1.4321,-1.4405,-1.4643,-1.3371,-1.3063,-1.2859,-1.2555,-1.2273,-1.2219,-1.2219,-1.2219,-1.1946,-1.1782,-1.1728,-1.1236,-1.0962,-1.0844,-1.053,-1.0366,-1.0109,-0.9984,-0.9736,-0.9675,-0.9712,-0.9472,-0.9124,-0.8838,-0.8939,-1.003,-0.9783,-0.97,-0.9571,-0.9617,-0.8994,-0.9006,-0.8874,-0.8501,-0.8211,-0.8163,-0.8096,-0.7875,-0.761,-0.7472,-0.7341,-0.7135,-0.7036,-0.6986,-0.683,-0.679,-0.6715,-0.6491,-0.6203,-0.6185,-0.6037,-0.6768,-0.7704,-0.8263,-0.832,-0.8365,-0.828,-0.8081,-0.7783,-0.769,-0.7534,-0.7135,-0.7434,-0.769,-0.7783,-0.7982,-0.8131,-0.828,-0.8252,-0.8336,-0.8442,-0.8315,-0.8471,-0.8634,-0.8577,-0.8627,-0.8882,-0.913,-0.9229,-0.9476,-0.9476,-0.9476,-0.9476,-0.9426,-0.9476,-0.9583,-0.9772,-0.992,-0.9821,-0.9871,-1.0068,-1.0117,-1.0117,-1.0167,-1.0351,-1.0617,-1.0861,-1.1104,-1.1512,-1.1764,-1.1958,-1.2055,-1.2213,-1.2641,-1.2814,-1.2973,-1.305,-1.3043,-1.3246,-1.368,-1.3641,-1.3342,-1.3468,-1.3743,-1.3999,-1.2758,-1.2404,-1.2202,-1.2001,-1.1728,-1.1455,-1.1492,-1.1618,-1.1109,-1.1017,-1.1109,-1.0578,-1.0123,-0.9866,-0.9374,-0.8729,-0.8188,-0.8075,-0.7849,-0.7867,-0.7923,-0.778,-0.7713,-0.7511,-0.7504,-0.7504,-0.7618,-0.7599,-0.7718,-0.7458,-0.7693,-0.7416,-0.7398,-0.727,-0.7235,-0.7148,-0.7101,-0.6912,-0.6658,-0.6478,-0.6274,-0.6017,-0.5907,-0.5907,-0.5801,-0.5782,-0.5812,-0.5757,-0.5703,-0.5683,-0.5683,-0.5837,-0.6174,-0.6464,-0.6726,-0.6956,-0.6998,-0.6954,-0.6792,-0.6698,-0.6637,-0.6587,-0.6637,-0.6686,-0.6736,-0.6836,-0.7086,-0.7086,-0.7129,-0.7149,-0.6985,-0.7236,-0.7229,-0.7229,-0.7341,-0.7391,-0.759,-0.7882,-0.8244,-0.8613,-0.8748,-0.9011,-0.9157,-0.9164,-0.9191,-0.9275,-0.9442,-0.9583,-0.9525,-0.9673,-0.9871,-0.9821,-0.9723,-0.9723,-0.9764,-1.0002,-1.0239,-1.0329,-1.0632,-1.0779,-1.0974,-1.0984,-1.125,-1.1836,-1.2185,-1.233,-1.2391,-1.2484,-1.2485,-1.274,-1.2524,-1.2353,-1.2561,-1.2784,-1.2912,-1.199,-1.1687,-1.1665,-1.1468,-1.1181,-1.0819,-1.0625,-1.058,-0.9962,-0.963,-0.9431,-0.9035,-0.8703,-0.842,-0.804,-0.7481,-0.7129,-0.6959,-0.6912,-0.6929,-0.6909,-0.692,-0.6737,-0.6489,-0.6298,-0.6139,-0.5822,-0.6134,-0.697,-0.6942,-0.6721,-0.6685,-0.6514,-0.6409,-0.6312,-0.6271,-0.6231,-0.6057,-0.5765,-0.5518,-0.5426,-0.5094,-0.4901,-0.4861,-0.4849,-0.4833,-0.4788,-0.4784,-0.4734,-0.473,-0.4784,-0.4784,-0.4822,-0.5005,-0.5386,-0.5987,-0.6183,-0.6138,-0.6067,-0.6027,-0.5951,-0.5641,-0.5787,-0.5987,-0.6087,-0.6237,-0.6337,-0.6448,-0.6558,-0.6631,-0.6575,-0.6553,-0.6737,-0.6759,-0.6726,-0.6737,-0.6904,-0.6936,-0.7266,-0.7761,-0.8103,-0.8505,-0.9093,-0.9071,-0.8938,-0.9029,-0.9126,-0.9145,-0.9179,-0.9327,-0.9525,-0.9525,-0.9476,-0.9583,-0.9575,-0.9723,-0.9871,-0.992,-0.9969,-1.0117,-1.0265,-1.0453,-1.0779,-1.1269,-1.1517,-1.1764,-1.2068,-1.2267,-1.2053,-1.1783,-1.1869,-1.1894,-1.1739,-1.1789,-1.196,-1.0958,-1.0623,-1.07,-1.0551,-1.0275,-0.989,-0.9557,-0.9293,-0.8689,-0.83,-0.8017,-0.7594,-0.7294,-0.7043,-0.6775,-0.6474,-0.6506,-0.6427,-0.6344,-0.6349,-0.628,-0.6348,-0.616,-0.5732,-0.5273,-0.5256,-0.4843,-0.4969,-0.5995,-0.6096,-0.6082,-0.5858,-0.5683,-0.5576,-0.54,-0.5391,-0.5355,-0.5193,-0.4901,-0.4686,-0.4497,-0.4274,-0.4014,-0.395,-0.394,-0.3956,-0.389,-0.3883,-0.3883,-0.3883,-0.3883,-0.388,-0.3883,-0.3833,-0.4386,-0.5304,-0.5667,-0.5546,-0.5381,-0.5339,-0.5141,-0.4788,-0.5135,-0.5286,-0.5436,-0.5636,-0.5987,-0.6107,-0.6098,-0.6123,-0.5942,-0.6159,-0.6209,-0.6229,-0.6204,-0.6241,-0.6218,-0.6247,-0.63,-0.6805,-0.7379,-0.7833,-0.8233,-0.8347,-0.8099,-0.8306,-0.845,-0.8599,-0.8634,-0.8882,-0.9031,-0.9179,-0.9278,-0.9434,-0.9533,-0.9583,-0.9673,-0.9723,-0.9772,-0.992,-1.0019,-1.0167,-1.0485,-1.076,-1.1044,-1.1337,-1.1724,-1.1945,-1.1684,-1.1517,-1.1475,-1.1368,-1.1167,-1.1011,-1.1068,-0.9524,-0.8993,-0.8757,-0.8499,-0.8365,-0.8066,-0.801,-0.8037,-0.7598,-0.7445,-0.7392,-0.6996,-0.6594,-0.631,-0.5683,-0.5378,-0.5253,-0.5248,-0.5231,-0.5252,-0.5136,-0.5066,-0.4858,-0.4601,-0.4521,-0.4525,-0.4327,-0.4314,-0.4766,-0.4755,-0.4629,-0.4621,-0.4632,-0.4422,-0.4517,-0.451,-0.4401,-0.4337,-0.408,-0.3875,-0.3672,-0.3577,-0.3548,-0.3453,-0.3434,-0.3466,-0.3411,-0.34,-0.3391,-0.3338,-0.3335,-0.3332,-0.3282,-0.3282,-0.3484,-0.3836,-0.4092,-0.4243,-0.4289,-0.4412,-0.4416,-0.4293,-0.4487,-0.4537,-0.475,-0.4901,-0.5102,-0.4985,-0.5061,-0.5111,-0.5148,-0.5107,-0.5098,-0.5203,-0.5321,-0.5225,-0.519,-0.5591,-0.5689,-0.585,-0.6432,-0.678,-0.709,-0.7198,-0.7298,-0.7566,-0.7789,-0.7889,-0.8088,-0.8329,-0.8584,-0.8733,-0.8882,-0.908,-0.9187,-0.9278,-0.9434,-0.9476,-0.9632,-0.9673,-0.9821,-0.992,-1.0019,-1.0306,-1.0609,-1.0904,-1.1209,-1.1308,-1.1231,-1.121,-1.1162,-1.0873,-1.0461,-1.0371,-1.0474,-0.7937,-0.8266,-0.7999,-0.7797,-0.7569,-0.7178,-0.702,-0.6883,-0.6442,-0.6192,-0.6071,-0.588,-0.5683,-0.5527,-0.516,-0.4962,-0.4763,-0.4673,-0.4534,-0.449,-0.4361,-0.4323,-0.4295,-0.4067,-0.3926,-0.3978,-0.3883,-0.3781,-0.3832,-0.3984,-0.406,-0.4054,-0.3941,-0.3878,-0.3787,-0.3835,-0.3758,-0.3749,-0.3656,-0.3585,-0.3501,-0.3507,-0.348,-0.3422,-0.3364,-0.3329,-0.3286,-0.3243,-0.3232,-0.323,-0.3281,-0.323,-0.3292,-0.3308,-0.3376,-0.3437,-0.354,-0.3777,-0.3997,-0.4075,-0.4014,-0.4041,-0.4088,-0.4203,-0.4235,-0.4351,-0.4449,-0.4402,-0.461,-0.4638,-0.4661,-0.4786,-0.4821,-0.4863,-0.4813,-0.4813,-0.4804,-0.4897,-0.5132,-0.5296,-0.5497,-0.5894,-0.625,-0.6511,-0.6711,-0.6946,-0.7121,-0.7191,-0.7434,-0.7683,-0.7982,-0.8287,-0.8485,-0.8634,-0.8783,-0.8882,-0.9038,-0.9187,-0.9492,-0.9541,-0.9624,-0.9723,-0.9822,-0.9945,-1.0224,-1.0462,-1.0708,-1.0867,-1.0949,-1.0914,-1.082,-1.0594,-1.0434,-1.0478,-1.0574,-0.6583,-0.7409,-0.7141,-0.6963,-0.6785,-0.6426,-0.617,-0.5951,-0.5621,-0.5312,-0.5103,-0.5108,-0.5112,-0.4994,-0.493,-0.4762,-0.4438,-0.4416,-0.4285,-0.4191,-0.4067,-0.4005,-0.391,-0.3715,-0.3638,-0.3746,-0.3585,-0.3458,-0.3512,-0.3595,-0.3722,-0.3754,-0.3545,-0.3432,-0.3358,-0.3338,-0.3371,-0.3262,-0.3285,-0.3263,-0.3291,-0.3301,-0.3268,-0.3293,-0.3273,-0.3252,-0.3148,-0.3108,-0.3083,-0.3083,-0.303,-0.303,-0.3035,-0.316,-0.3221,-0.3247,-0.3343,-0.3483,-0.3708,-0.3853,-0.3885,-0.3856,-0.389,-0.396,-0.4126,-0.4147,-0.4147,-0.4136,-0.4295,-0.4358,-0.4373,-0.454,-0.4626,-0.4669,-0.4731,-0.4782,-0.4837,-0.4896,-0.4963,-0.5089,-0.5273,-0.5254,-0.5624,-0.5864,-0.6118,-0.6338,-0.6462,-0.6559,-0.6798,-0.7098,-0.7341,-0.764,-0.7939,-0.8088,-0.8237,-0.8393,-0.8592,-0.8785,-0.9091,-0.9237,-0.9175,-0.9334,-0.9516,-0.967,-0.9797,-1.0094,-1.0349,-1.056,-1.0721,-1.066,-1.0608,-1.0631,-1.0566,-1.0604,-1.0677,-0.5871,-0.5926,-0.5545,-0.5499,-0.5579,-0.5377,-0.5285,-0.5301,-0.5256,-0.512,-0.5051,-0.5128,-0.4998,-0.4859,-0.4733,-0.4552,-0.4295,-0.4177,-0.4067,-0.3988,-0.3786,-0.3708,-0.3626,-0.3549,-0.3415,-0.3452,-0.3393,-0.3268,-0.3153,-0.3091,-0.3165,-0.3182,-0.316,-0.2996,-0.2941,-0.3038,-0.304,-0.2879,-0.2843,-0.2848,-0.2858,-0.2858,-0.2839,-0.2749,-0.268,-0.2659,-0.2564,-0.2609,-0.266,-0.266,-0.2713,-0.2713,-0.2768,-0.2946,-0.3,-0.3039,-0.3247,-0.334,-0.3476,-0.3457,-0.3347,-0.3335,-0.3495,-0.3729,-0.395,-0.4047,-0.4095,-0.4008,-0.4129,-0.4123,-0.4072,-0.4092,-0.4336,-0.4434,-0.4563,-0.4692,-0.4751,-0.4918,-0.4934,-0.5014,-0.5063,-0.5173,-0.5194,-0.554,-0.5642,-0.5827,-0.5985,-0.6037,-0.6189,-0.648,-0.6609,-0.6898,-0.7335,-0.7534,-0.7646,-0.7816,-0.8026,-0.815,-0.8337,-0.8463,-0.8539,-0.8791,-0.9043,-0.921,-0.9353,-0.967,-0.9904,-0.9896,-0.9979,-1.0256,-1.0387,-1.0482,-1.0639,-1.0716,-1.0782,-0.5433,-0.5198,-0.5005,-0.5131,-0.5377,-0.5229,-0.5255,-0.5213,-0.5033,-0.4816,-0.4634,-0.4604,-0.459,-0.4471,-0.4422,-0.4281,-0.3982,-0.3904,-0.381,-0.3659,-0.3486,-0.3483,-0.3453,-0.3352,-0.3258,-0.3222,-0.3183,-0.3073,-0.2817,-0.2635,-0.2572,-0.2574,-0.2643,-0.2785,-0.2792,-0.273,-0.2736,-0.274,-0.2692,-0.2692,-0.2692,-0.2692,-0.2684,-0.267,-0.2668,-0.266,-0.2641,-0.2613,-0.2605,-0.2544,-0.2544,-0.249,-0.2494,-0.273,-0.2785,-0.2821,-0.3033,-0.3183,-0.3252,-0.3234,-0.3224,-0.3243,-0.3366,-0.352,-0.368,-0.3659,-0.3686,-0.3704,-0.3862,-0.3862,-0.3863,-0.3988,-0.4177,-0.4243,-0.4291,-0.4482,-0.4669,-0.4789,-0.4917,-0.5002,-0.5099,-0.5202,-0.5206,-0.5206,-0.5292,-0.5313,-0.5487,-0.5606,-0.5765,-0.5925,-0.6113,-0.6244,-0.6637,-0.6822,-0.6889,-0.7122,-0.7406,-0.7537,-0.7663,-0.7796,-0.7918,-0.8105,-0.8373,-0.8605,-0.882,-0.9035,-0.916,-0.9138,-0.9353,-0.9797,-1.0149,-1.048,-1.0603,-1.0731,-1.0905,-0.5139,-0.4834,-0.472,-0.4841,-0.5048,-0.4971,-0.4951,-0.4974,-0.4781,-0.4525,-0.4316,-0.4293,-0.4199,-0.4132,-0.409,-0.3939,-0.3641,-0.3584,-0.3503,-0.3401,-0.3343,-0.3352,-0.3258,-0.306,-0.2808,-0.2735,-0.2586,-0.243,-0.1855,-0.1925,-0.1701,-0.1642,-0.1808,-0.1929,-0.2394,-0.2409,-0.2412,-0.2412,-0.2455,-0.2407,-0.2409,-0.2398,-0.2405,-0.2405,-0.2353,-0.2351,-0.2342,-0.227,-0.2262,-0.2315,-0.2315,-0.2315,-0.2379,-0.2444,-0.2505,-0.2602,-0.2751,-0.2957,-0.308,-0.3178,-0.3283,-0.3313,-0.3324,-0.3379,-0.3406,-0.3384,-0.3451,-0.3517,-0.3653,-0.3657,-0.3607,-0.3742,-0.3909,-0.3982,-0.4044,-0.4179,-0.4486,-0.4668,-0.4855,-0.499,-0.5087,-0.5237,-0.5218,-0.5214,-0.5142,-0.5173,-0.5284,-0.5396,-0.5439,-0.5606,-0.5677,-0.5811,-0.5991,-0.6087,-0.6137,-0.6422,-0.6719,-0.6954,-0.7079,-0.72,-0.7337,-0.7565,-0.7803,-0.8081,-0.8285,-0.8348,-0.8533,-0.8727,-0.9087,-0.9461,-0.9689,-0.978,-1.0256,-1.036,-1.0892,-0.4882,-0.4756,-0.4535,-0.4426,-0.4416,-0.435,-0.4341,-0.4372,-0.4305,-0.4262,-0.4192,-0.4152,-0.3959,-0.3782,-0.3584,-0.3371,-0.3102,-0.3102,-0.3062,-0.2961,-0.2808,-0.3065,-0.2831,-0.2433,-0.2036,-0.2059,-0.1794,-0.1258,-0.0556,-0.0877,-0.0711,-0.0382,-0.0433,-0.0812,-0.1698,-0.1837,-0.185,-0.1847,-0.1823,-0.1889,-0.1952,-0.1941,-0.1946,-0.1733,-0.1738,-0.1738,-0.1456,-0.151,-0.1505,-0.1506,-0.1619,-0.1619,-0.1677,-0.1846,-0.1959,-0.2014,-0.2349,-0.2682,-0.301,-0.3198,-0.3204,-0.3337,-0.3392,-0.3431,-0.3463,-0.3447,-0.3433,-0.3501,-0.3512,-0.3479,-0.3465,-0.347,-0.3636,-0.3737,-0.3799,-0.3988,-0.4242,-0.4477,-0.4611,-0.4837,-0.5163,-0.533,-0.533,-0.5289,-0.5158,-0.5147,-0.5192,-0.5239,-0.5292,-0.5364,-0.5505,-0.5478,-0.5568,-0.5746,-0.5898,-0.5854,-0.6052,-0.6285,-0.6483,-0.6624,-0.6801,-0.6995,-0.7303,-0.7562,-0.7756,-0.7853,-0.817,-0.8428,-0.8511,-0.8536,-0.8729,-0.8957,-0.9498,-0.9987,-1.0381,-0.4606,-0.4205,-0.4102,-0.3897,-0.3757,-0.415,-0.4298,-0.4228,-0.4087,-0.3862,-0.3677,-0.3628,-0.3324,-0.2983,-0.2731,-0.2527,-0.2196,-0.1731,-0.1684,-0.1918,-0.1819,-0.1622,-0.1479,-0.1396,-0.1032,-0.0765,-0.0493,-0.0219,0.044,0.0109,0.0215,0.0535,0.0536,0.0108,-0.0656,-0.1167,-0.1682,-0.1346,-0.1507,-0.1786,-0.1793,-0.1673,-0.1448,-0.0896,-0.0897,-0.0673,-0.028,-0.0393,-0.0505,-0.0505,-0.0617,-0.0729,-0.0729,-0.0841,0.0,0.0,-0.1065,-0.129,-0.1569,-0.1768,-0.229,-0.2864,-0.3291,-0.326,-0.3436,-0.3444,-0.3471,-0.3411,-0.3285,-0.3319,-0.3469,-0.3512,-0.3575,-0.3599,-0.366,-0.3807,-0.4058,-0.4114,-0.4287,-0.4564,-0.4871,-0.5043,-0.5096,-0.5249,-0.5157,-0.5092,-0.5108,-0.5218,-0.5308,-0.533,-0.541,-0.5288,-0.5299,-0.554,-0.5656,-0.5696,-0.5886,-0.6149,-0.6105,-0.6058,-0.6223,-0.6531,-0.6826,-0.7106,-0.7241,-0.737,-0.7697,-0.7859,-0.7594,-0.7534,-0.7936,-0.8398,-0.8904,-0.9351,-0.9618,-0.4202,-0.3571,-0.3479,-0.315,-0.2893,-0.3616,-0.3958,-0.385,-0.3462,-0.3062,-0.2836,-0.26,-0.2283,-0.1898,-0.18,-0.161,-0.1283,-0.1131,-0.0876,-0.0995,-0.0791,-0.0798,-0.0647,-0.0218,0.011,0.0442,0.0667,0.0947,0.1494,0.1276,0.1302,0.1372,0.1267,0.1123,0.0543,0.0,-0.0613,-0.0334,-0.0499,-0.0663,-0.0667,-0.0669,-0.0501,-0.0112,0.0112,0.028,0.0673,0.0729,0.0617,0.0505,0.0393,0.0168,0.0168,0.0,0.0,0.0,-0.028,-0.0506,-0.0734,-0.0962,-0.1621,-0.2208,-0.2535,-0.2598,-0.26,-0.2363,-0.2492,-0.2569,-0.2787,-0.2897,-0.295,-0.2991,-0.3047,-0.3019,-0.3087,-0.3174,-0.328,-0.3336,-0.3675,-0.4011,-0.4468,-0.4636,-0.4824,-0.509,-0.5212,-0.5107,-0.5001,-0.5108,-0.5199,-0.5201,-0.5274,-0.5229,-0.5218,-0.5402,-0.5541,-0.5608,-0.5811,-0.604,-0.5953,-0.5789,-0.5928,-0.6282,-0.6478,-0.6669,-0.6891,-0.7091,-0.725,-0.7254,-0.7243,-0.7339,-0.7618,-0.8009,-0.846,-0.8737,-0.8998,-0.3573,-0.2986,-0.2662,-0.2192,-0.1879,-0.2729,-0.3161,-0.3158,-0.2341,-0.197,-0.197,-0.1265,-0.1017,-0.0929,-0.1035,-0.0885,-0.0525,-0.0737,-0.053,-0.0373,0.0054,0.0,0.0328,0.083,0.1221,0.145,0.1679,0.2015,0.2573,0.2212,0.2152,0.2266,0.2067,0.2085,0.1888,0.1521,0.0883,0.0776,0.0497,0.0331,0.0279,0.0499,0.0612,0.0838,0.1009,0.1121,0.129,0.1289,0.1177,0.1009,0.0785,0.0617,0.0449,0.0224,0.0,0.0,0.0,-0.0113,-0.0114,-0.0285,-0.046,-0.074,-0.0792,-0.0796,-0.1192,-0.1408,-0.1637,-0.1762,-0.1878,-0.1885,-0.1894,-0.196,-0.2084,-0.2023,-0.2025,-0.214,-0.2189,-0.2415,-0.2875,-0.3334,-0.3851,-0.4122,-0.4332,-0.4593,-0.4622,-0.4499,-0.4373,-0.4501,-0.4618,-0.4954,-0.5032,-0.533,-0.5294,-0.5378,-0.5504,-0.5582,-0.571,-0.5975,-0.5903,-0.5792,-0.5936,-0.6026,-0.6223,-0.6464,-0.6626,-0.6828,-0.7039,-0.7145,-0.7232,-0.7354,-0.7508,-0.7615,-0.7954,-0.8087,-0.8397,-0.2473,-0.2078,-0.1757,-0.1512,-0.1367,-0.147,-0.1626,-0.1727,-0.1313,-0.126,-0.1411,-0.1008,-0.0456,-0.0254,-0.0102,0.0258,0.0621,0.0987,0.1215,0.1338,0.1354,0.1628,0.1863,0.2055,0.239,0.2499,0.2728,0.2858,0.3185,0.2976,0.2946,0.3134,0.283,0.3005,0.2963,0.2804,0.2195,0.1664,0.1324,0.1221,0.1117,0.1115,0.1396,0.1681,0.1853,0.2077,0.2416,0.2414,0.2358,0.2354,0.2132,0.1964,0.1682,0.1626,0.0,0.0,0.1244,0.1198,0.1194,0.1098,0.0995,0.0878,0.0931,0.0,-0.0576,-0.0976,-0.1032,-0.0979,-0.1042,-0.1103,-0.1223,-0.1288,-0.129,-0.1289,-0.1351,-0.1413,-0.1524,-0.1813,-0.2221,-0.2569,-0.3094,-0.3345,-0.3602,-0.3754,-0.3783,-0.3678,-0.3643,-0.3852,-0.411,-0.4482,-0.4849,-0.5103,-0.5404,-0.5482,-0.5647,-0.5716,-0.5838,-0.5887,-0.581,-0.5806,-0.5899,-0.5989,-0.6071,-0.6285,-0.6515,-0.6681,-0.6862,-0.7007,-0.7129,-0.7258,-0.7359,-0.7421,-0.7438,-0.7683,-0.7824,-0.1576,-0.1109,-0.0895,-0.0622,-0.0253,0.0,0.005,-0.0101,-0.0252,-0.0454,-0.0504,0.0101,0.0507,0.0818,0.1031,0.1306,0.1752,0.1816,0.2,0.2239,0.2669,0.2635,0.2826,0.2952,0.3066,0.3281,0.3339,0.3362,0.3572,0.3531,0.3493,0.3431,0.3441,0.3455,0.3417,0.3257,0.3067,0.2604,0.223,0.2017,0.1912,0.1913,0.2361,0.26,0.2771,0.311,0.3506,0.3336,0.3329,0.3263,0.304,0.2819,0.2476,0.2356,0.2076,0.18,0.1706,0.1664,0.1673,0.1761,0.1837,0.1907,0.1913,0.119,0.0588,0.0234,0.0058,-0.0116,-0.0293,-0.0411,-0.0591,-0.0652,-0.0651,-0.0649,-0.0713,-0.0838,-0.1015,-0.125,-0.1545,-0.184,-0.2138,-0.2377,-0.2575,-0.2778,-0.2988,-0.3101,-0.3271,-0.3473,-0.3826,-0.4215,-0.459,-0.4868,-0.5309,-0.5642,-0.5686,-0.5714,-0.5811,-0.5835,-0.588,-0.5884,-0.5921,-0.5916,-0.6031,-0.6207,-0.6483,-0.6612,-0.6821,-0.6966,-0.709,-0.7231,-0.7383,-0.7424,-0.7464,-0.7475,-0.7612,-0.0749,0.0,0.0052,0.0564,0.1264,0.1518,0.1569,0.1566,0.0911,0.0557,0.0709,0.1516,0.1887,0.1859,0.1934,0.2125,0.2363,0.2382,0.2566,0.274,0.2978,0.3091,0.3218,0.3413,0.3402,0.3522,0.3586,0.353,0.3572,0.3545,0.3518,0.3501,0.3452,0.3461,0.3507,0.351,0.3384,0.3334,0.3214,0.3153,0.3354,0.3522,0.3621,0.3616,0.3621,0.3673,0.3673,0.3668,0.3654,0.3522,0.3403,0.3186,0.2954,0.2592,0.2196,0.1985,0.1954,0.1854,0.1877,0.191,0.1924,0.1939,0.1956,0.1639,0.1259,0.1074,0.0833,0.0593,0.0417,0.0358,0.024,0.0242,0.0242,0.0241,0.0121,0.0061,-0.0061,-0.0363,-0.0785,-0.1085,-0.1324,-0.1507,-0.1754,-0.1954,-0.209,-0.2419,-0.2566,-0.2789,-0.3256,-0.3687,-0.4125,-0.4453,-0.4729,-0.5002,-0.5306,-0.5328,-0.5644,-0.5776,-0.5764,-0.5949,-0.5908,-0.5949,-0.5978,-0.6159,-0.6275,-0.6538,-0.6764,-0.6925,-0.7106,-0.7232,-0.738,-0.7476,-0.754,-0.7535,-0.754,0.053,0.0933,0.1328,0.1771,0.2124,0.2203,0.2249,0.2225,0.2101,0.1854,0.1798,0.2087,0.2345,0.2386,0.246,0.2653,0.279,0.2817,0.2993,0.3188,0.3353,0.3296,0.3419,0.3511,0.3561,0.3545,0.3553,0.3589,0.3589,0.3572,0.3561,0.3559,0.3515,0.3518,0.357,0.3575,0.3616,0.3684,0.37,0.3665,0.3662,0.3679,0.3741,0.3711,0.3719,0.3698,0.3692,0.3687,0.3676,0.3665,0.361,0.3459,0.3255,0.2875,0.2534,0.2326,0.2161,0.2056,0.1957,0.1989,0.1948,0.1947,0.1954,0.1887,0.1763,0.1707,0.1522,0.1272,0.1148,0.109,0.1094,0.1103,0.1047,0.1045,0.092,0.092,0.0859,0.0429,-0.0061,-0.0306,-0.0488,-0.0733,-0.0919,-0.1109,-0.1242,-0.1312,-0.1382,-0.1652,-0.213,-0.2653,-0.3271,-0.3595,-0.3802,-0.4129,-0.4548,-0.4883,-0.5119,-0.5401,-0.5471,-0.5655,-0.589,-0.5842,-0.5728,-0.5945,-0.6142,-0.6344,-0.6612,-0.6886,-0.7089,-0.7256,-0.7514,-0.7676,-0.7693,-0.7693,-0.7687,0.1533,0.1744,0.2078,0.2281,0.2455,0.2583,0.2669,0.2638,0.2778,0.2815,0.2667,0.2632,0.2673,0.2765,0.2842,0.2976,0.3173,0.3234,0.3325,0.3455,0.3518,0.3507,0.3526,0.3559,0.3564,0.3553,0.357,0.3594,0.3616,0.3597,0.3589,0.3616,0.3591,0.3602,0.3714,0.367,0.3681,0.3783,0.3779,0.376,0.3703,0.3764,0.3728,0.3749,0.376,0.3747,0.3819,0.3816,0.3741,0.3728,0.3722,0.3579,0.3359,0.3104,0.2861,0.2645,0.2426,0.2263,0.2158,0.2061,0.2029,0.2023,0.1962,0.1962,0.19,0.1842,0.1769,0.1579,0.1572,0.1512,0.1588,0.1541,0.1542,0.1541,0.1355,0.1171,0.1047,0.0739,0.0493,0.0431,0.0245,0.0122,-0.0123,-0.0369,-0.0432,-0.043,-0.0434,-0.0944,-0.141,-0.1822,-0.233,-0.2839,-0.3153,-0.3584,-0.4173,-0.4392,-0.4493,-0.4781,-0.5023,-0.515,-0.5222,-0.5382,-0.5475,-0.5643,-0.5863,-0.6133,-0.6408,-0.6709,-0.709,-0.7321,-0.7598,-0.7834,-0.7839,-0.7839,-0.7839,0.2315,0.2427,0.2523,0.2549,0.2641,0.2853,0.2932,0.2901,0.3143,0.3291,0.3265,0.3028,0.2971,0.3115,0.3331,0.342,0.3496,0.3444,0.3521,0.3537,0.3548,0.3534,0.3537,0.3561,0.357,0.3578,0.3586,0.3627,0.3665,0.3638,0.3638,0.3736,0.3758,0.3772,0.3813,0.3833,0.383,0.3774,0.3793,0.379,0.3824,0.3802,0.3766,0.3796,0.3874,0.3845,0.3908,0.3896,0.3869,0.3815,0.3796,0.3709,0.3595,0.3458,0.321,0.2981,0.2813,0.2648,0.2483,0.2263,0.2155,0.2099,0.2038,0.2038,0.2037,0.197,0.1959,0.1893,0.1885,0.1889,0.1908,0.1915,0.1916,0.1918,0.167,0.1422,0.1236,0.105,0.105,0.105,0.0862,0.0736,0.0552,0.0307,0.0245,0.0304,0.0061,-0.0434,-0.0945,-0.1339,-0.1794,-0.2307,-0.2692,-0.3184,-0.3609,-0.3847,-0.3891,-0.4038,-0.4319,-0.444,-0.457,-0.469,-0.4995,-0.5414,-0.5636,-0.5734,-0.6094,-0.6458,-0.6841,-0.7165,-0.7484,-0.775,-0.7926,-0.7937,-0.7981,0.2496,0.2725,0.2927,0.3063,0.3161,0.3218,0.321,0.3202,0.3259,0.3254,0.3254,0.3321,0.3361,0.3407,0.3423,0.3501,0.3515,0.3531,0.3553,0.3572,0.3545,0.3548,0.3614,0.3622,0.3583,0.3591,0.3656,0.3681,0.3665,0.3722,0.3744,0.3794,0.3805,0.3816,0.383,0.3858,0.3896,0.3834,0.3847,0.3861,0.3796,0.3841,0.3858,0.3858,0.3838,0.3844,0.3844,0.3844,0.3869,0.3902,0.3877,0.3838,0.3778,0.3696,0.3565,0.3386,0.3154,0.3039,0.2815,0.2583,0.2469,0.2407,0.2284,0.21,0.21,0.2041,0.2037,0.1979,0.1975,0.1981,0.1993,0.1985,0.1982,0.1986,0.1863,0.1674,0.1487,0.1424,0.1361,0.1236,0.1049,0.0985,0.0986,0.074,0.0493,0.043,0.0245,-0.0187,-0.0564,-0.0883,-0.1268,-0.1779,-0.2229,-0.2242,-0.2433,-0.3054,-0.3234,-0.3438,-0.3621,-0.3823,-0.3976,-0.4083,-0.4385,-0.4865,-0.5107,-0.5219,-0.5582,-0.6067,-0.6442,-0.6823,-0.7194,-0.7526,-0.7841,-0.804,-0.8084]},{"header":{"parameterUnit":"m.s-1","parameterCategory":1,"la1":31.0,"la2":29.5877,"lo1":-88.7671,"lo2":-86.6584,"dy":0.0162,"dx":0.0185,"nx":115,"ny":88,"refTime":"2023-08-17T18:00:00:Z","depth":0,"parameterNumber":3,"parameterNumberName":"V-component_of_WINDS"},"data":[0.0,0.0,0.0,0.0,0.0,0.0,0.0,0.0,0.0,0.0,0.0,0.0,0.0,0.0,0.0,0.0,0.0,0.0,0.0,0.0,0.0,0.0,0.0,0.0,0.0,0.0,0.0,0.0,0.0,0.0,0.0,0.0,0.0,0.0,0.0,0.0,0.0,0.0,0.0,0.0,0.0,0.0,0.0,0.0,0.0,0.0,0.0,0.0,0.0,0.0,0.0,0.0,0.0,0.0,0.0,0.0,0.0,0.0,0.0,0.0,0.0,0.0,0.0,0.0,0.0,0.0,0.0,0.0,0.0,0.0,0.0,0.0,0.0,0.0,0.0,0.0,0.0,0.0,0.0,0.0,0.0,0.0,0.0,0.0,0.0,0.0,0.0,0.0,0.0,0.0,0.0,0.0,0.0,0.0,0.0,0.0,0.0,0.0,0.0,0.0,0.0,0.0,0.0,0.0,0.0,0.0,0.0,0.0,0.0,0.0,0.0,0.0,0.0,0.0,0.0,0.0,0.0,0.0,0.0,0.0,0.0,0.0,0.0,0.0,0.0,0.0,0.0,0.0,0.0,0.0,0.0,0.0,0.0,0.0,0.0,0.0,0.0,0.0,0.0,0.0,0.0,0.0,0.0,0.0,0.0,0.0,0.0,0.0,0.0,0.0,0.0,0.0,0.0,0.0,0.0,0.0,0.0,0.0,0.0,0.0,0.0,0.0,0.0,0.0,0.0,0.0,0.0,0.0,0.0,0.0,0.0,0.0,0.0,0.0,0.0,0.0,0.0,0.0,0.0,0.0,0.0,0.0,0.0,0.0,0.0,0.0,0.0,0.0,0.0,0.0,0.0,0.0,0.0,0.0,0.0,0.0,0.0,0.0,0.0,0.0,0.0,0.0,0.0,0.0,0.0,0.0,0.0,0.0,0.0,0.0,0.0,0.0,0.0,0.0,0.0,0.0,0.0,0.0,0.0,0.0,0.0,0.0,0.0,0.0,0.0,0.0,0.0,0.0,0.0,0.0,0.0,0.0,0.0,0.0,0.0,0.0,0.0,0.0,0.0,0.0,0.0,0.0,0.0,0.0,0.0,0.0,0.0,0.0,0.0,0.0,0.0,0.0,0.0,0.0,0.0,0.0,0.0,0.0,0.0,0.0,0.0,0.0,0.0,0.0,0.0,0.0,0.0,0.0,0.0,0.0,0.0,0.0,0.0,0.0,0.0,0.0,0.0,0.0,0.0,0.0,0.0,0.0,0.0,0.0,0.0,0.0,0.0,0.0,0.0,0.0,0.0,0.0,0.0,0.0,0.0,0.0,0.0,0.0,0.0,0.0,0.0,0.0,0.0,0.0,0.0,0.0,0.0,0.0,0.0,0.0,0.0,0.0,0.0,0.0,0.0,0.0,0.0,0.0,0.0,0.0,0.0,0.0,0.0,0.0,0.0,0.0,0.0,0.0,0.0,0.0,0.0,0.0,0.0,0.0,0.0,0.0,0.0,0.0,0.0,0.0,0.0,0.0,0.0,0.0,0.0,0.0,0.0,0.0,0.0,0.0,0.0,0.0,0.0,0.0,0.0,0.0,0.0,0.0,0.0,0.0,0.0,0.0,0.0,0.0,0.0,0.0,0.0,0.0,0.0,0.0,0.0,0.0,0.0,0.0,0.0,0.0,0.0,0.0,0.0,0.0,0.0,0.0,0.0,0.0,0.0,0.0,0.0,0.0,0.0,0.0,0.0,0.0,0.0,0.0,0.0,0.0,0.0,0.0,0.0,0.0,0.0,0.0,0.0,0.0,0.0,0.0,0.0,0.0,0.0,0.0,0.0,0.0,0.0,0.0,0.0,0.0,0.0,0.0,0.0,0.0,0.0,0.0,0.0,0.0,0.0,0.0,0.0,0.0,0.0,0.0,0.0,0.0,0.0,0.0,0.0,0.0,0.0,0.0,0.0,0.0,0.0,0.0,0.0,0.0,0.0,0.0,0.0,0.0,0.0,0.0,0.0,0.0,0.0,0.0,0.0,0.0,0.0,0.0,0.0,0.0,0.0,0.0,0.0,0.0,0.0,0.0,0.0,0.0,0.0,0.0,0.0,0.0,0.0,0.0,0.0,0.0,0.0,0.0,0.0,0.0,0.0,0.0,0.0,0.0,0.0,0.0,0.0,0.0,0.0,0.0,0.0,0.0,0.0,0.0,0.0,0.0,0.0,0.0,0.0,0.0,0.0,0.0,0.0,0.0,0.0,0.0,0.0,0.0,0.0,0.0,0.0,0.0,0.0,0.0,0.0,0.0,0.0,0.0,0.0,0.0,0.0,0.0,0.0,0.0,0.0,0.0,0.0,0.0,0.0,0.0,0.0,0.0,0.0,0.0,0.0,0.0,0.0,0.0,0.0,0.0,0.0,0.0,0.0,0.0,0.0,0.0,0.0,0.0,0.0,0.0,0.0,0.0,0.0,0.0,0.0,0.0,0.0,0.0,0.0,0.0,0.0,0.0,0.0,0.0,0.0,0.0,0.0,0.0,0.0,0.0,0.0,0.0,0.0,0.0,0.0,0.0,0.0,0.0,0.0,0.0,0.0,0.0,0.0,0.0,0.0,0.0,0.0,0.0,0.0,0.0,0.0,0.0,0.0,0.0,0.0,0.0,0.0,0.0,0.0,0.0,0.0,0.0,0.0,0.0,0.0,0.0,0.0,0.0,0.0,0.0,0.0,0.0,0.0,0.0,0.0,0.0,0.0,0.0,0.0,0.0,0.0,0.0,0.0,0.0,0.0,0.0,0.0,0.0,0.0,0.0,0.0,0.0,0.0,0.0,0.0,0.0,0.0,0.0,0.0,0.0,0.0,0.0,0.0,0.0,0.0,0.0,0.0,0.0,0.0,0.0,0.0,0.0,0.0,0.0,0.0,0.0,0.0,0.0,0.0,0.0,0.0,0.0,0.0,0.0,0.0,0.0,0.0,0.0,0.0,0.0,0.0,0.0,0.0,0.0,0.0,0.0,0.0,0.0,0.0,0.0,0.0,0.0,0.0,0.0,0.0,0.0,0.0,0.0,0.0,0.0,0.0,0.0,0.0,0.0,0.0,0.0,0.0,0.0,0.0,0.0,0.0,0.0,0.0,0.0,0.0,0.0,0.0,0.0,0.0,0.0,0.0,0.0,0.0,0.0,0.0,0.0,0.0,0.0,0.0,0.0,0.0,0.0,0.0,0.0,0.0,0.0,0.0,0.0,0.0,0.0,0.0,0.0,0.0,0.0,0.0,0.0,0.0,0.0,0.0,0.0,0.0,0.0,0.0,0.0,0.0,0.0,0.0,0.0,0.0,0.0,0.0,0.0,0.0,0.0,0.0,0.0,0.0,0.0,0.0,0.0,0.0,0.0,0.0,0.0,0.0,0.0,0.0,0.0,0.0,0.0,0.0,0.0,0.0,0.0,0.0,0.0,0.0,0.0,0.0,0.0,0.0,0.0,0.0,0.0,0.0,0.0,0.0,0.0,0.0,0.0,0.0,0.0,0.0,0.0,0.0,0.0,0.0,0.0,0.0,0.0,0.0,0.0,0.0,0.0,0.0,0.0,0.0,0.0,0.0,0.0,0.0,0.0,0.0,0.0,0.0,0.0,0.0,0.0,0.0,0.0,0.0,0.0,0.0,0.0,0.0,0.0,0.0,0.0,0.0,0.0,0.0,0.0,0.0,0.0,0.0,0.0,0.0,0.0,0.0,0.0,0.0,0.0,0.0,0.0,0.0,0.0,0.0,0.0,0.0,0.0,0.0,0.0,0.0,0.0,0.0,0.0,0.0,0.0,0.0,0.0,0.0,0.0,0.0,0.0,0.0,0.0,0.0,0.0,0.0,0.0,0.0,0.0,0.0,0.0,0.0,0.0,0.0,0.0,0.0,0.0,0.0,0.0,0.0,0.0,0.0,0.0,0.0,0.0,0.0,0.0,0.0,0.0,0.0,0.0,0.0,0.0,0.0,0.0,0.0,0.0,0.0,0.0,0.0,0.0,0.0,0.0,0.0,0.0,0.0,0.0,0.0,0.0,0.0,0.0,0.0,0.0,0.0,0.0,0.0,0.0,0.0,0.0,0.0,0.0,0.0,0.0,0.0,0.0,0.0,0.0,0.0,0.0,0.0,0.0,0.0,0.0,0.0,0.0,0.0,0.0,0.0,0.0,0.0,0.0,0.0,0.0,0.0,0.0,0.0,0.0,0.0,0.0,0.0,0.0,0.0,0.0,0.0,0.0,0.0,0.0,0.0,0.0,0.0,0.0,0.0,0.0,3.3942,0.0,0.0,0.0,0.0,0.0,0.0,0.0,0.0,0.0,0.0,0.0,0.0,0.0,0.0,0.0,0.0,0.0,0.0,0.0,0.0,0.0,0.0,0.0,0.0,0.0,0.0,0.0,0.0,0.0,0.0,0.0,0.0,0.0,0.0,0.0,0.0,0.0,0.0,0.0,0.0,0.0,0.0,0.0,0.0,0.0,0.0,0.0,0.0,0.0,0.0,0.0,0.0,0.0,0.0,0.0,0.0,0.0,0.0,0.0,0.0,0.0,0.0,0.0,0.0,0.0,0.0,0.0,0.0,0.0,0.0,0.0,0.0,0.0,0.0,0.0,0.0,0.0,0.0,0.0,0.0,0.0,0.0,0.0,0.0,0.0,0.0,0.0,0.0,0.0,0.0,0.0,0.0,0.0,0.0,0.0,0.0,0.0,0.0,0.0,0.0,0.0,0.0,0.0,0.0,0.0,0.0,0.0,0.0,0.0,0.0,3.3065,3.3256,3.3335,3.3361,3.333,0.0,0.0,0.0,0.0,0.0,0.0,0.0,0.0,0.0,0.0,0.0,0.0,0.0,0.0,0.0,0.0,0.0,0.0,0.0,0.0,0.0,0.0,0.0,0.0,0.0,0.0,0.0,0.0,0.0,0.0,0.0,0.0,0.0,0.0,0.0,0.0,0.0,0.0,0.0,0.0,0.0,0.0,0.0,0.0,0.0,0.0,0.0,0.0,0.0,0.0,0.0,0.0,0.0,0.0,0.0,0.0,0.0,0.0,0.0,0.0,0.0,0.0,0.0,0.0,0.0,0.0,0.0,0.0,0.0,0.0,0.0,0.0,0.0,0.0,0.0,0.0,0.0,0.0,0.0,0.0,0.0,0.0,0.0,0.0,0.0,0.0,0.0,0.0,0.0,0.0,0.0,0.0,0.0,0.0,0.0,0.0,0.0,0.0,0.0,0.0,0.0,0.0,0.0,0.0,0.0,0.0,0.0,0.0,0.0,0.0,0.0,0.0,3.3522,3.3422,3.3239,0.0,0.0,0.0,0.0,0.0,0.0,0.0,0.0,0.0,0.0,0.0,0.0,0.0,0.0,0.0,0.0,0.0,0.0,0.0,0.0,0.0,0.0,0.0,0.0,0.0,0.0,0.0,0.0,0.0,0.0,0.0,0.0,0.0,0.0,0.0,0.0,0.0,0.0,0.0,0.0,0.0,0.0,0.0,0.0,0.0,0.0,0.0,0.0,0.0,0.0,0.0,0.0,0.0,0.0,0.0,0.0,0.0,0.0,0.0,0.0,0.0,0.0,0.0,0.0,0.0,0.0,0.0,0.0,0.0,0.0,0.0,0.0,0.0,0.0,0.0,0.0,0.0,0.0,0.0,0.0,0.0,0.0,0.0,0.0,0.0,0.0,0.0,0.0,0.0,0.0,0.0,0.0,0.0,0.0,0.0,0.0,0.0,0.0,0.0,0.0,0.0,0.0,0.0,0.0,0.0,0.0,0.0,0.0,0.0,0.0,3.3295,3.5425,3.5461,0.0,3.4409,0.0,0.0,0.0,0.0,0.0,0.0,0.0,0.0,0.0,0.0,0.0,0.0,0.0,0.0,0.0,0.0,0.0,0.0,0.0,0.0,0.0,0.0,0.0,0.0,0.0,0.0,0.0,0.0,0.0,0.0,0.0,0.0,0.0,0.0,0.0,0.0,0.0,0.0,0.0,0.0,0.0,0.0,0.0,0.0,0.0,0.0,0.0,0.0,0.0,0.0,0.0,0.0,0.0,0.0,0.0,0.0,0.0,0.0,0.0,0.0,0.0,0.0,0.0,0.0,0.0,0.0,0.0,0.0,0.0,0.0,0.0,0.0,0.0,0.0,0.0,0.0,0.0,0.0,0.0,0.0,0.0,0.0,0.0,0.0,0.0,0.0,0.0,0.0,0.0,0.0,0.0,0.0,0.0,0.0,0.0,0.0,0.0,0.0,0.0,0.0,0.0,0.0,0.0,0.0,0.0,0.0,0.0,0.0,0.0,0.0,3.4243,3.4799,3.5031,3.4637,0.0,0.0,0.0,0.0,0.0,0.0,0.0,0.0,0.0,0.0,0.0,0.0,0.0,0.0,0.0,0.0,0.0,0.0,0.0,0.0,0.0,0.0,0.0,0.0,0.0,0.0,0.0,0.0,0.0,0.0,0.0,0.0,0.0,0.0,0.0,0.0,0.0,0.0,0.0,0.0,0.0,0.0,0.0,0.0,0.0,0.0,0.0,0.0,0.0,0.0,0.0,0.0,0.0,0.0,0.0,0.0,0.0,0.0,0.0,0.0,0.0,0.0,0.0,0.0,0.0,0.0,0.0,0.0,0.0,0.0,0.0,0.0,0.0,0.0,0.0,0.0,0.0,0.0,0.0,0.0,0.0,0.0,0.0,0.0,0.0,0.0,0.0,0.0,0.0,0.0,0.0,0.0,0.0,0.0,0.0,0.0,0.0,0.0,0.0,0.0,0.0,0.0,0.0,0.0,0.0,0.0,0.0,0.0,0.0,0.0,3.4207,3.4775,3.4833,3.4909,3.4265,3.2794,0.0,0.0,0.0,0.0,0.0,0.0,0.0,0.0,0.0,0.0,0.0,0.0,0.0,0.0,0.0,0.0,0.0,0.0,0.0,0.0,0.0,0.0,0.0,0.0,0.0,0.0,0.0,0.0,0.0,0.0,0.0,0.0,0.0,0.0,0.0,0.0,0.0,0.0,0.0,0.0,0.0,0.0,0.0,0.0,0.0,0.0,0.0,0.0,0.0,0.0,0.0,0.0,0.0,0.0,0.0,0.0,0.0,0.0,0.0,0.0,0.0,0.0,0.0,0.0,0.0,0.0,0.0,0.0,0.0,0.0,0.0,0.0,0.0,0.0,0.0,0.0,0.0,0.0,0.0,0.0,0.0,0.0,0.0,0.0,0.0,0.0,0.0,0.0,0.0,0.0,0.0,0.0,0.0,0.0,0.0,0.0,0.0,0.0,0.0,0.0,0.0,0.0,0.0,0.0,0.0,0.0,0.0,0.0,3.7092,3.4882,3.4589,3.658,3.5809,3.4416,0.0,0.0,0.0,0.0,0.0,0.0,0.0,0.0,0.0,0.0,0.0,0.0,0.0,0.0,0.0,0.0,0.0,0.0,0.0,0.0,0.0,0.0,0.0,0.0,0.0,0.0,0.0,0.0,0.0,0.0,0.0,0.0,0.0,0.0,0.0,0.0,0.0,0.0,0.0,0.0,0.0,0.0,0.0,0.0,0.0,0.0,0.0,0.0,0.0,0.0,0.0,0.0,0.0,0.0,0.0,0.0,0.0,0.0,0.0,0.0,0.0,0.0,0.0,0.0,0.0,0.0,0.0,0.0,0.0,0.0,0.0,0.0,0.0,0.0,0.0,0.0,0.0,0.0,0.0,0.0,0.0,0.0,0.0,0.0,0.0,0.0,0.0,0.0,0.0,0.0,0.0,0.0,0.0,0.0,0.0,0.0,0.0,0.0,0.0,0.0,0.0,0.0,0.0,0.0,0.0,0.0,0.0,0.0,0.0,3.2057,3.3049,3.5014,3.7912,3.5462,3.3815,0.0,0.0,0.0,0.0,0.0,0.0,0.0,0.0,0.0,0.0,0.0,0.0,0.0,0.0,0.0,0.0,0.0,0.0,0.0,0.0,0.0,0.0,0.0,0.0,0.0,0.0,0.0,0.0,0.0,0.0,0.0,0.0,0.0,0.0,0.0,0.0,0.0,0.0,0.0,0.0,0.0,0.0,0.0,0.0,0.0,0.0,0.0,0.0,0.0,0.0,0.0,0.0,0.0,0.0,0.0,0.0,0.0,0.0,0.0,0.0,0.0,0.0,0.0,0.0,0.0,0.0,0.0,0.0,0.0,0.0,0.0,0.0,0.0,0.0,0.0,0.0,0.0,0.0,0.0,0.0,0.0,0.0,0.0,0.0,0.0,0.0,0.0,0.0,0.0,0.0,0.0,0.0,0.0,0.0,0.0,0.0,0.0,0.0,0.0,0.0,0.0,0.0,0.0,0.0,0.0,0.0,0.0,0.0,0.0,3.021,0.0,3.5889,3.7491,3.5074,3.3245,0.0,0.0,0.0,0.0,0.0,0.0,0.0,0.0,0.0,0.0,0.0,0.0,0.0,0.0,0.0,0.0,0.0,0.0,0.0,0.0,0.0,0.0,0.0,0.0,0.0,0.0,0.0,0.0,0.0,0.0,0.0,0.0,0.0,0.0,0.0,0.0,0.0,0.0,0.0,0.0,0.0,0.0,0.0,0.0,0.0,0.0,0.0,0.0,0.0,0.0,0.0,0.0,0.0,0.0,0.0,0.0,0.0,0.0,0.0,0.0,0.0,0.0,0.0,0.0,0.0,0.0,0.0,0.0,0.0,0.0,0.0,0.0,0.0,0.0,0.0,0.0,0.0,0.0,0.0,0.0,0.0,0.0,0.0,0.0,0.0,0.0,0.0,0.0,0.0,0.0,0.0,0.0,0.0,0.0,0.0,0.0,0.0,0.0,0.0,0.0,0.0,0.0,0.0,0.0,0.0,0.0,0.0,0.0,2.954,3.2644,3.5983,3.6922,3.5349,3.4751,3.2755,0.0,0.0,0.0,0.0,0.0,0.0,0.0,0.0,0.0,0.0,0.0,0.0,0.0,0.0,0.0,0.0,0.0,0.0,0.0,0.0,0.0,0.0,0.0,0.0,0.0,0.0,0.0,0.0,0.0,0.0,0.0,0.0,0.0,0.0,0.0,0.0,0.0,0.0,0.0,0.0,0.0,0.0,0.0,0.0,0.0,0.0,0.0,0.0,0.0,0.0,0.0,0.0,0.0,0.0,0.0,0.0,0.0,0.0,0.0,0.0,0.0,0.0,0.0,0.0,0.0,0.0,0.0,0.0,0.0,0.0,0.0,0.0,0.0,0.0,0.0,0.0,0.0,0.0,0.0,0.0,0.0,0.0,0.0,0.0,0.0,0.0,0.0,0.0,0.0,0.0,0.0,0.0,0.0,0.0,0.0,0.0,0.0,0.0,0.0,0.0,0.0,0.0,0.0,0.0,0.0,0.0,0.0,0.0,0.0,3.0981,3.4066,3.6403,3.7569,3.4407,3.2514,0.0,0.0,0.0,0.0,0.0,0.0,0.0,0.0,0.0,0.0,0.0,0.0,0.0,0.0,0.0,0.0,0.0,0.0,0.0,0.0,0.0,0.0,0.0,0.0,0.0,0.0,0.0,0.0,0.0,0.0,0.0,0.0,0.0,0.0,0.0,0.0,0.0,0.0,0.0,0.0,0.0,0.0,0.0,0.0,0.0,0.0,0.0,0.0,0.0,0.0,0.0,0.0,0.0,0.0,0.0,0.0,0.0,0.0,0.0,0.0,0.0,0.0,0.0,0.0,0.0,0.0,0.0,0.0,0.0,0.0,0.0,0.0,0.0,0.0,0.0,0.0,0.0,0.0,0.0,0.0,0.0,0.0,0.0,0.0,0.0,0.0,0.0,0.0,0.0,0.0,0.0,0.0,0.0,0.0,0.0,0.0,0.0,0.0,0.0,0.0,0.0,0.0,0.0,0.0,0.0,0.0,0.0,0.0,0.0,3.1454,3.4483,3.6833,3.8224,3.451,3.251,3.2644,0.0,0.0,0.0,0.0,0.0,0.0,0.0,0.0,0.0,0.0,0.0,0.0,0.0,0.0,0.0,0.0,0.0,0.0,0.0,0.0,0.0,0.0,0.0,0.0,0.0,0.0,0.0,0.0,0.0,0.0,0.0,0.0,0.0,0.0,0.0,0.0,0.0,0.0,0.0,0.0,0.0,0.0,0.0,0.0,0.0,0.0,0.0,0.0,0.0,0.0,0.0,0.0,0.0,0.0,0.0,0.0,0.0,0.0,0.0,0.0,0.0,0.0,0.0,0.0,0.0,0.0,0.0,0.0,0.0,0.0,0.0,0.0,0.0,0.0,0.0,0.0,0.0,0.0,0.0,0.0,0.0,0.0,0.0,0.0,0.0,0.0,0.0,0.0,0.0,0.0,0.0,0.0,0.0,0.0,0.0,0.0,0.0,0.0,0.0,0.0,0.0,0.0,0.0,0.0,0.0,0.0,0.0,0.0,3.3448,3.6776,3.82,3.7469,3.503,3.288,0.0,0.0,0.0,0.0,0.0,0.0,0.0,0.0,0.0,0.0,0.0,0.0,0.0,0.0,0.0,0.0,0.0,0.0,0.0,0.0,0.0,0.0,0.0,0.0,0.0,0.0,0.0,0.0,0.0,0.0,0.0,0.0,0.0,0.0,0.0,0.0,0.0,0.0,0.0,0.0,0.0,0.0,0.0,0.0,0.0,0.0,0.0,0.0,0.0,0.0,0.0,0.0,0.0,0.0,0.0,0.0,0.0,0.0,0.0,0.0,0.0,0.0,0.0,0.0,0.0,0.0,0.0,0.0,0.0,0.0,0.0,0.0,0.0,0.0,0.0,0.0,0.0,0.0,0.0,0.0,0.0,0.0,0.0,0.0,0.0,0.0,0.0,0.0,0.0,0.0,0.0,0.0,0.0,0.0,0.0,0.0,0.0,0.0,0.0,0.0,0.0,0.0,0.0,0.0,0.0,0.0,0.0,0.0,0.0,3.4098,3.7331,3.936,3.9814,3.6975,3.4717,0.0,0.0,0.0,0.0,0.0,0.0,0.0,0.0,0.0,0.0,0.0,0.0,0.0,0.0,0.0,0.0,0.0,0.0,0.0,0.0,0.0,0.0,0.0,0.0,0.0,0.0,0.0,0.0,0.0,0.0,0.0,0.0,0.0,0.0,0.0,0.0,0.0,0.0,0.0,0.0,0.0,0.0,0.0,0.0,0.0,0.0,0.0,0.0,0.0,0.0,0.0,0.0,0.0,0.0,0.0,0.0,0.0,0.0,0.0,0.0,0.0,0.0,0.0,0.0,0.0,0.0,0.0,0.0,0.0,0.0,0.0,0.0,0.0,0.0,0.0,0.0,0.0,0.0,0.0,0.0,0.0,0.0,0.0,0.0,0.0,0.0,0.0,0.0,0.0,0.0,0.0,0.0,0.0,0.0,0.0,0.0,0.0,0.0,0.0,0.0,0.0,0.0,0.0,0.0,0.0,0.0,0.0,0.0,3.2549,3.4669,3.7483,3.9339,4.0114,3.7884,3.5831,0.0,0.0,0.0,0.0,0.0,0.0,0.0,0.0,0.0,0.0,0.0,0.0,0.0,0.0,0.0,0.0,0.0,0.0,0.0,0.0,0.0,0.0,0.0,0.0,0.0,0.0,0.0,0.0,0.0,0.0,0.0,0.0,0.0,0.0,0.0,0.0,0.0,0.0,0.0,0.0,0.0,0.0,0.0,0.0,0.0,0.0,0.0,0.0,0.0,0.0,0.0,0.0,0.0,0.0,0.0,0.0,0.0,0.0,0.0,0.0,0.0,0.0,0.0,0.0,0.0,0.0,0.0,0.0,0.0,0.0,0.0,0.0,0.0,0.0,0.0,0.0,0.0,0.0,0.0,0.0,0.0,0.0,0.0,0.0,0.0,0.0,0.0,0.0,0.0,0.0,0.0,0.0,0.0,0.0,0.0,0.0,0.0,0.0,0.0,0.0,0.0,0.0,0.0,0.0,0.0,0.0,0.0,0.0,3.3067,3.508,3.736,3.8705,3.8899,3.7987,3.6333,0.0,0.0,0.0,0.0,0.0,0.0,0.0,0.0,0.0,0.0,0.0,0.0,0.0,0.0,0.0,0.0,0.0,0.0,0.0,0.0,0.0,0.0,0.0,0.0,0.0,0.0,0.0,0.0,0.0,0.0,0.0,0.0,0.0,0.0,0.0,0.0,0.0,0.0,0.0,0.0,0.0,0.0,0.0,0.0,0.0,0.0,0.0,0.0,0.0,0.0,0.0,0.0,0.0,0.0,0.0,0.0,0.0,0.0,0.0,0.0,0.0,0.0,0.0,0.0,0.0,0.0,0.0,0.0,0.0,0.0,0.0,0.0,0.0,0.0,0.0,0.0,0.0,0.0,0.0,0.0,0.0,0.0,0.0,0.0,0.0,0.0,0.0,0.0,0.0,0.0,0.0,0.0,0.0,0.0,0.0,0.0,0.0,0.0,0.0,0.0,0.0,0.0,0.0,0.0,0.0,0.0,0.0,0.0,3.2371,3.4624,3.7048,3.8201,3.7846,3.7466,3.6168,0.0,0.0,0.0,0.0,0.0,0.0,0.0,0.0,0.0,0.0,0.0,0.0,0.0,0.0,0.0,0.0,0.0,0.0,0.0,0.0,0.0,0.0,0.0,0.0,0.0,0.0,0.0,0.0,0.0,0.0,0.0,0.0,0.0,0.0,0.0,0.0,0.0,0.0,0.0,0.0,0.0,0.0,0.0,0.0,0.0,0.0,0.0,0.0,3.9095,0.0,0.0,0.0,0.0,0.0,0.0,0.0,0.0,0.0,0.0,0.0,0.0,0.0,0.0,0.0,0.0,0.0,0.0,0.0,0.0,0.0,0.0,0.0,0.0,0.0,0.0,0.0,0.0,0.0,0.0,0.0,0.0,0.0,0.0,0.0,0.0,0.0,0.0,0.0,0.0,0.0,0.0,0.0,0.0,0.0,0.0,0.0,0.0,0.0,0.0,0.0,0.0,0.0,0.0,0.0,0.0,0.0,0.0,0.0,3.2797,3.4904,3.672,3.7632,3.75,3.7324,3.6151,0.0,0.0,0.0,0.0,0.0,0.0,0.0,0.0,0.0,0.0,0.0,0.0,0.0,0.0,0.0,0.0,0.0,0.0,0.0,0.0,0.0,0.0,0.0,0.0,0.0,0.0,0.0,0.0,0.0,0.0,0.0,0.0,0.0,0.0,0.0,0.0,0.0,0.0,0.0,0.0,0.0,0.0,0.0,0.0,0.0,0.0,0.0,0.0,0.0,0.0,0.0,0.0,0.0,0.0,0.0,0.0,0.0,0.0,0.0,0.0,0.0,0.0,0.0,0.0,0.0,0.0,0.0,0.0,0.0,0.0,0.0,0.0,0.0,0.0,0.0,0.0,0.0,0.0,0.0,0.0,0.0,0.0,0.0,0.0,0.0,0.0,0.0,0.0,0.0,0.0,0.0,0.0,0.0,0.0,0.0,0.0,0.0,0.0,0.0,0.0,0.0,0.0,0.0,0.0,0.0,0.0,0.0,3.1365,3.3305,3.53,3.6267,3.6921,3.7266,3.7206,3.6032,3.37,0.0,0.0,0.0,0.0,0.0,0.0,0.0,0.0,0.0,0.0,0.0,0.0,0.0,0.0,0.0,0.0,0.0,0.0,0.0,0.0,0.0,0.0,0.0,0.0,0.0,0.0,0.0,0.0,0.0,0.0,0.0,0.0,0.0,0.0,0.0,0.0,0.0,0.0,3.4911,3.7588,0.0,0.0,0.0,0.0,0.0,0.0,0.0,0.0,3.8122,0.0,0.0,0.0,0.0,0.0,0.0,0.0,0.0,0.0,0.0,0.0,0.0,0.0,0.0,0.0,0.0,0.0,0.0,0.0,0.0,0.0,0.0,0.0,0.0,0.0,0.0,0.0,0.0,0.0,0.0,0.0,0.0,0.0,0.0,0.0,0.0,0.0,0.0,0.0,0.0,0.0,0.0,0.0,0.0,0.0,0.0,0.0,0.0,0.0,0.0,0.0,0.0,0.0,0.0,0.0,0.0,3.066,3.0459,3.1954,3.521,3.5478,3.5835,3.6314,3.6525,3.5226,3.2385,0.0,0.0,0.0,0.0,0.0,0.0,0.0,0.0,0.0,0.0,0.0,0.0,0.0,0.0,0.0,0.0,0.0,0.0,0.0,0.0,0.0,0.0,0.0,0.0,0.0,0.0,0.0,0.0,0.0,0.0,0.0,0.0,0.0,0.0,0.0,0.0,0.0,0.0,0.0,3.7839,3.9228,0.0,0.0,0.0,0.0,0.0,0.0,0.0,0.0,3.8111,0.0,0.0,0.0,0.0,0.0,0.0,0.0,0.0,0.0,0.0,0.0,0.0,0.0,0.0,0.0,0.0,0.0,0.0,0.0,0.0,0.0,0.0,0.0,0.0,0.0,0.0,0.0,0.0,0.0,0.0,0.0,0.0,0.0,0.0,0.0,0.0,0.0,0.0,0.0,0.0,0.0,0.0,0.0,0.0,0.0,0.0,0.0,0.0,0.0,0.0,0.0,0.0,0.0,0.0,0.0,2.9954,3.0637,3.2293,3.5182,3.5286,3.5547,3.607,3.5617,3.4147,0.0,0.0,0.0,0.0,0.0,0.0,0.0,0.0,0.0,0.0,0.0,0.0,0.0,0.0,0.0,0.0,0.0,0.0,0.0,0.0,0.0,0.0,0.0,0.0,0.0,0.0,0.0,0.0,0.0,0.0,0.0,0.0,0.0,0.0,0.0,0.0,0.0,0.0,0.0,0.0,3.8135,3.9859,3.942,0.0,0.0,0.0,0.0,0.0,0.0,3.7617,3.7462,0.0,0.0,0.0,0.0,0.0,0.0,0.0,0.0,0.0,0.0,0.0,0.0,0.0,0.0,0.0,0.0,0.0,0.0,0.0,0.0,0.0,0.0,0.0,0.0,0.0,0.0,0.0,0.0,0.0,0.0,0.0,0.0,0.0,0.0,0.0,0.0,0.0,0.0,0.0,0.0,0.0,0.0,0.0,0.0,0.0,0.0,0.0,0.0,0.0,0.0,0.0,0.0,0.0,0.0,0.0,2.9065,3.0649,3.2581,3.4842,3.5077,3.5312,3.5704,3.4689,3.3253,0.0,0.0,0.0,0.0,0.0,0.0,0.0,0.0,0.0,0.0,0.0,0.0,0.0,0.0,0.0,0.0,0.0,0.0,0.0,0.0,0.0,0.0,0.0,0.0,0.0,0.0,0.0,0.0,0.0,0.0,0.0,0.0,0.0,0.0,0.0,0.0,0.0,0.0,0.0,0.0,0.0,4.0771,4.0606,4.1121,0.0,0.0,0.0,0.0,3.7937,3.7908,0.0,0.0,0.0,0.0,0.0,0.0,0.0,0.0,0.0,0.0,0.0,0.0,0.0,0.0,0.0,0.0,0.0,0.0,0.0,0.0,0.0,0.0,0.0,0.0,0.0,0.0,0.0,0.0,0.0,0.0,0.0,0.0,0.0,0.0,0.0,0.0,0.0,0.0,0.0,0.0,0.0,0.0,0.0,0.0,0.0,0.0,0.0,0.0,0.0,0.0,0.0,0.0,0.0,0.0,0.0,0.0,2.8438,2.9574,3.1317,3.3666,3.4241,3.4528,3.458,3.4005,3.2855,0.0,0.0,0.0,0.0,0.0,0.0,0.0,0.0,0.0,0.0,0.0,0.0,0.0,0.0,0.0,0.0,0.0,0.0,0.0,0.0,0.0,0.0,0.0,0.0,0.0,0.0,0.0,0.0,0.0,0.0,0.0,0.0,0.0,0.0,0.0,0.0,0.0,0.0,0.0,0.0,0.0,4.1951,4.0617,4.1488,4.1906,0.0,0.0,3.9387,4.005,4.0715,0.0,0.0,0.0,0.0,0.0,0.0,0.0,0.0,0.0,0.0,0.0,0.0,0.0,0.0,0.0,0.0,0.0,0.0,0.0,0.0,0.0,0.0,0.0,0.0,0.0,0.0,0.0,0.0,0.0,0.0,0.0,0.0,0.0,0.0,0.0,0.0,0.0,0.0,0.0,0.0,0.0,0.0,0.0,0.0,0.0,0.0,0.0,0.0,0.0,0.0,0.0,0.0,0.0,0.0,0.0,2.6457,2.8531,3.0092,3.1803,3.3711,3.4439,3.4515,3.3927,3.3184,3.1899,0.0,0.0,0.0,0.0,0.0,0.0,0.0,0.0,0.0,0.0,0.0,0.0,0.0,0.0,0.0,0.0,0.0,0.0,0.0,0.0,0.0,0.0,0.0,0.0,0.0,0.0,0.0,0.0,0.0,0.0,0.0,0.0,0.0,0.0,0.0,0.0,0.0,0.0,0.0,0.0,0.0,0.0,4.1837,4.2196,0.0,0.0,0.0,3.9474,3.9812,0.0,0.0,0.0,0.0,0.0,0.0,0.0,0.0,0.0,0.0,0.0,0.0,0.0,0.0,0.0,0.0,0.0,0.0,0.0,0.0,0.0,0.0,0.0,0.0,0.0,0.0,0.0,0.0,0.0,0.0,0.0,0.0,0.0,0.0,0.0,0.0,0.0,0.0,0.0,0.0,0.0,0.0,0.0,0.0,0.0,0.0,0.0,0.0,0.0,0.0,0.0,0.0,0.0,0.0,0.0,0.0,0.0,2.8856,3.0886,3.2581,3.3993,3.4673,3.4619,3.379,3.2812,0.0,0.0,0.0,0.0,0.0,0.0,0.0,0.0,0.0,0.0,0.0,0.0,0.0,0.0,0.0,0.0,0.0,0.0,0.0,0.0,0.0,0.0,0.0,0.0,0.0,0.0,0.0,3.1545,0.0,0.0,0.0,0.0,0.0,0.0,0.0,0.0,0.0,0.0,0.0,0.0,0.0,0.0,4.2017,4.3164,4.3156,4.3343,0.0,0.0,3.9833,4.0048,4.0069,3.915,0.0,0.0,0.0,0.0,0.0,0.0,0.0,0.0,0.0,0.0,0.0,0.0,0.0,0.0,0.0,0.0,0.0,0.0,0.0,0.0,0.0,0.0,0.0,0.0,0.0,0.0,0.0,0.0,0.0,0.0,0.0,0.0,0.0,0.0,0.0,0.0,0.0,0.0,0.0,0.0,0.0,0.0,0.0,0.0,0.0,0.0,0.0,0.0,0.0,0.0,0.0,0.0,0.0,0.0,0.0,2.9262,3.155,3.3261,3.4445,3.4711,3.4592,3.414,3.3169,3.1639,0.0,0.0,0.0,0.0,0.0,0.0,0.0,0.0,0.0,0.0,0.0,0.0,0.0,0.0,0.0,0.0,0.0,0.0,0.0,0.0,0.0,0.0,0.0,0.0,0.0,0.0,0.0,0.0,0.0,0.0,0.0,0.0,0.0,0.0,0.0,0.0,0.0,0.0,0.0,0.0,0.0,4.3193,4.4105,4.4516,4.5154,0.0,0.0,4.1407,4.1823,4.1696,3.9984,3.5463,0.0,0.0,0.0,0.0,0.0,0.0,0.0,0.0,0.0,0.0,0.0,0.0,0.0,0.0,0.0,0.0,0.0,0.0,0.0,0.0,0.0,0.0,0.0,0.0,0.0,0.0,0.0,0.0,0.0,0.0,0.0,0.0,0.0,0.0,0.0,0.0,0.0,0.0,0.0,0.0,0.0,0.0,0.0,0.0,0.0,0.0,0.0,0.0,0.0,0.0,0.0,0.0,0.0,2.837,2.9866,3.2478,3.4455,3.5624,3.6235,3.598,3.4771,3.4575,3.3129,0.0,0.0,0.0,0.0,0.0,0.0,0.0,0.0,0.0,0.0,0.0,0.0,0.0,0.0,0.0,0.0,0.0,0.0,0.0,0.0,0.0,0.0,0.0,0.0,0.0,0.0,0.0,0.0,3.4082,3.4115,3.3215,0.0,0.0,0.0,0.0,0.0,0.0,0.0,0.0,0.0,0.0,4.4062,4.4791,4.469,0.0,0.0,4.3298,4.1425,4.2151,4.0957,3.9125,3.6551,3.4622,0.0,0.0,0.0,0.0,0.0,0.0,0.0,0.0,0.0,0.0,0.0,0.0,0.0,0.0,0.0,0.0,0.0,0.0,0.0,0.0,0.0,0.0,0.0,0.0,0.0,0.0,0.0,0.0,0.0,0.0,0.0,0.0,0.0,0.0,0.0,0.0,0.0,0.0,0.0,0.0,0.0,0.0,0.0,0.0,0.0,0.0,0.0,0.0,0.0,0.0,0.0,0.0,2.9418,3.0671,3.3492,3.5581,3.6807,3.708,3.6596,3.5337,3.5211,3.3813,0.0,0.0,0.0,0.0,0.0,0.0,0.0,0.0,0.0,0.0,0.0,0.0,0.0,0.0,0.0,0.0,0.0,0.0,0.0,0.0,0.0,0.0,0.0,0.0,0.0,0.0,0.0,0.0,3.4806,3.4689,3.3818,0.0,0.0,0.0,0.0,0.0,0.0,0.0,0.0,0.0,0.0,4.4977,4.5418,4.4908,4.4653,4.5248,4.271,4.0958,4.1667,4.0081,3.8299,3.6841,0.0,0.0,0.0,0.0,0.0,0.0,0.0,0.0,0.0,0.0,0.0,0.0,0.0,0.0,0.0,0.0,0.0,0.0,0.0,0.0,0.0,0.0,0.0,0.0,0.0,0.0,0.0,0.0,0.0,0.0,3.6112,0.0,0.0,0.0,0.0,0.0,0.0,0.0,0.0,0.0,0.0,0.0,0.0,0.0,0.0,0.0,0.0,0.0,0.0,0.0,0.0,0.0,0.0,3.1062,3.1809,3.4571,3.6576,3.7794,3.6874,3.6165,3.569,3.4559,3.3252,3.1817,0.0,0.0,0.0,0.0,0.0,0.0,0.0,0.0,0.0,0.0,0.0,0.0,0.0,0.0,0.0,0.0,0.0,0.0,0.0,0.0,0.0,0.0,0.0,0.0,0.0,0.0,3.5001,3.4425,3.4121,0.0,0.0,0.0,0.0,0.0,0.0,0.0,0.0,0.0,0.0,4.4422,4.5951,4.5878,4.5317,4.485,4.4879,4.2081,4.0054,4.0567,3.942,3.783,0.0,0.0,0.0,0.0,0.0,0.0,0.0,0.0,0.0,0.0,0.0,0.0,0.0,0.0,0.0,0.0,0.0,0.0,0.0,0.0,0.0,0.0,0.0,0.0,0.0,0.0,0.0,4.0088,3.9199,0.0,0.0,0.0,0.0,0.0,0.0,0.0,0.0,0.0,0.0,0.0,3.754,3.8243,0.0,0.0,0.0,0.0,0.0,0.0,0.0,0.0,0.0,0.0,0.0,0.0,3.1924,3.3187,3.5692,3.7469,3.8406,3.8091,3.7402,3.6369,3.5985,3.4735,3.2553,0.0,0.0,0.0,0.0,0.0,0.0,0.0,0.0,0.0,0.0,0.0,0.0,0.0,0.0,0.0,0.0,0.0,0.0,0.0,0.0,0.0,0.0,0.0,0.0,0.0,3.6457,0.0,0.0,0.0,0.0,0.0,0.0,0.0,0.0,0.0,0.0,0.0,4.2198,4.3309,4.5552,4.6693,4.5657,4.5171,4.4726,0.0,0.0,0.0,0.0,0.0,0.0,0.0,0.0,0.0,0.0,0.0,0.0,0.0,0.0,3.9917,3.6859,3.5896,3.5568,3.5882,0.0,0.0,0.0,0.0,0.0,0.0,0.0,0.0,0.0,0.0,0.0,0.0,0.0,0.0,4.1479,0.0,3.9585,0.0,0.0,0.0,0.0,0.0,0.0,0.0,0.0,3.9934,4.0213,3.9177,3.9608,3.9367,0.0,3.7628,3.6518,0.0,0.0,0.0,0.0,0.0,0.0,0.0,0.0,3.317,3.4122,3.6207,3.7673,3.8379,3.8232,3.7684,3.6839,3.6356,3.5089,3.2912,3.2544,3.1639,0.0,0.0,0.0,0.0,0.0,0.0,0.0,0.0,0.0,0.0,0.0,0.0,0.0,0.0,0.0,0.0,0.0,0.0,0.0,0.0,0.0,0.0,0.0,3.7646,0.0,0.0,0.0,0.0,0.0,0.0,0.0,0.0,0.0,3.9623,4.2021,4.4174,4.5222,4.663,4.7122,4.5815,0.0,0.0,0.0,0.0,0.0,0.0,0.0,3.9896,4.0412,3.9528,3.8909,3.9644,4.0948,4.1626,4.0764,0.0,0.0,3.9073,3.806,3.7721,3.7834,3.7443,3.706,3.7127,3.6979,3.669,0.0,0.0,0.0,0.0,0.0,0.0,0.0,0.0,4.209,4.2495,0.0,4.0876,0.0,0.0,0.0,0.0,0.0,3.9975,0.0,0.0,4.1637,4.1979,4.1214,4.0159,3.9582,3.9521,3.9459,3.9361,3.9039,3.5353,0.0,0.0,0.0,0.0,0.0,0.0,3.4692,3.4688,3.6239,3.7309,3.7852,3.737,3.7005,3.6947,3.5701,3.4425,3.3088,3.3026,3.2448,3.1113,3.0912,0.0,0.0,0.0,0.0,0.0,0.0,0.0,0.0,0.0,0.0,0.0,0.0,0.0,0.0,0.0,0.0,0.0,0.0,0.0,0.0,3.8082,0.0,0.0,0.0,0.0,0.0,0.0,0.0,0.0,0.0,0.0,4.2752,4.4241,4.5939,4.7601,0.0,0.0,0.0,0.0,4.4837,4.3618,4.3021,4.2543,4.1952,4.1834,4.1705,4.1305,0.0,0.0,4.1942,4.2585,4.2654,4.09,4.1585,4.256,4.2991,4.1674,4.0763,4.0848,3.9639,3.8638,3.8486,3.7988,3.7585,4.7194,0.0,0.0,0.0,0.0,4.3528,4.4287,4.5391,4.5473,4.5102,4.4388,4.3136,0.0,0.0,0.0,0.0,0.0,0.0,4.1573,4.1589,4.2957,4.2881,4.1515,4.1643,4.1217,4.0197,3.9705,3.949,3.9361,3.7949,3.6714,3.5695,0.0,0.0,0.0,0.0,3.5152,3.5637,3.6743,3.7424,3.7608,3.752,3.703,3.6107,3.5706,3.4934,3.3692,3.363,3.3225,3.2327,3.2238,0.0,0.0,0.0,0.0,0.0,0.0,0.0,0.0,0.0,0.0,0.0,0.0,0.0,0.0,0.0,0.0,0.0,0.0,0.0,3.8404,3.9154,3.9786,0.0,0.0,0.0,0.0,0.0,0.0,0.0,0.0,0.0,4.4627,4.6677,4.791,0.0,0.0,4.7905,4.6072,4.5629,4.5388,4.4991,4.4456,0.0,4.38,4.3144,4.2817,4.3281,4.3598,4.3331,4.2108,4.2469,4.2719,4.1663,4.1806,4.2093,4.2092,4.1692,4.1101,4.0647,4.006,3.9531,3.9062,3.8733,3.8218,4.9592,4.6785,4.5839,4.5506,4.5698,4.6113,4.6651,4.7169,4.7385,4.72,4.6766,4.5616,4.4167,4.2487,4.0816,0.0,0.0,0.0,4.2914,4.2868,4.3717,4.3392,4.2282,4.2341,4.1966,4.1122,4.0749,4.0687,4.0903,4.038,3.9529,3.8361,0.0,0.0,3.5615,3.5646,3.5922,3.6383,3.697,3.7312,3.7312,3.7375,3.694,3.5852,3.5909,3.537,3.4109,3.4187,3.3923,3.3198,3.3055,3.3029,0.0,0.0,0.0,0.0,0.0,0.0,0.0,0.0,0.0,0.0,0.0,3.5682,3.4722,0.0,0.0,0.0,3.8503,3.946,4.0514,4.1397,0.0,0.0,0.0,0.0,0.0,0.0,0.0,4.3873,4.4671,4.5437,4.6181,4.7839,4.8522,4.7473,4.7692,4.7488,4.6129,0.0,4.5634,4.5077,4.4892,4.4651,4.4056,4.3328,4.2975,4.341,4.3358,4.3039,4.2278,4.2355,4.2281,4.1735,4.1522,4.1431,4.1073,4.0721,4.0516,4.0518,4.0432,4.0157,3.955,3.8979,3.8235,5.1049,5.0413,4.9909,4.9059,4.8217,4.8979,4.8845,4.8084,4.8253,4.8764,4.9393,4.8091,4.6521,4.4968,4.3065,0.0,4.3775,4.4471,4.4478,4.3984,4.3984,4.3669,4.3067,4.2461,4.2173,4.2077,4.2013,4.2333,4.2812,4.2269,4.147,4.0451,3.8748,3.7935,3.7873,3.7126,3.6847,3.6999,3.703,3.706,3.709,3.7121,3.6776,3.6025,3.6253,3.57,3.437,3.4574,3.4418,3.3809,3.3559,3.3449,3.3507,0.0,0.0,0.0,0.0,0.0,0.0,0.0,0.0,0.0,0.0,0.0,0.0,0.0,0.0,0.0,4.112,0.0,4.3143,4.4169,0.0,0.0,0.0,4.3362,4.4821,4.4552,4.4825,4.618,0.0,0.0,4.7325,4.7864,4.8068,4.7731,4.7063,4.6605,4.6542,4.6354,4.5741,4.4554,4.4773,4.4679,4.3524,4.2891,4.2602,4.2431,4.2266,4.2174,4.2021,4.1748,4.1419,4.0842,4.0811,4.0593,3.9985,3.9373,3.9249,4.0262,4.0368,4.0167,3.9518,3.8505,3.7614,5.2733,5.254,5.2419,5.1144,4.9273,4.9439,4.9487,4.9441,4.9481,4.934,4.9032,4.8685,4.7448,4.5583,4.511,4.4668,4.4353,4.4994,4.4998,4.4522,4.4523,4.4004,4.3132,4.2941,4.2589,4.2077,4.1534,4.1374,4.147,4.0923,4.0537,4.022,3.9418,3.8418,3.7279,3.7062,3.6938,3.6999,3.7361,3.7685,3.8065,3.8094,3.7452,3.6199,3.6221,3.5599,3.4214,3.4233,3.4244,3.4151,3.4126,3.4118,3.4218,3.4018,0.0,0.0,0.0,0.0,0.0,0.0,0.0,0.0,0.0,3.7931,3.5848,0.0,4.0593,0.0,4.3285,4.4404,4.4054,4.4434,0.0,0.0,4.5796,4.5829,4.6352,4.652,4.648,4.6184,4.6526,4.6731,4.6589,4.6713,4.655,4.6,4.6819,4.7328,4.6823,4.6579,4.6222,4.5452,4.5016,4.4512,4.3626,4.3361,4.2931,4.2427,4.1825,4.1193,4.0665,4.0039,3.9634,3.9378,3.9344,3.9152,3.8763,3.8482,3.8476,3.8724,3.8432,3.8014,3.7794,3.7171,3.6498,5.2657,5.2365,5.2365,5.1411,4.9846,5.0165,4.9864,4.9247,4.9407,4.9297,4.8914,4.8439,4.7712,4.6777,4.6,4.5507,4.524,4.5339,4.5081,4.4561,4.456,4.4138,4.3327,4.339,4.3258,4.2898,4.2209,4.188,4.1847,4.1282,4.0729,4.0257,3.9952,3.9141,3.7863,3.7685,3.7537,3.7419,3.7772,3.8151,3.8379,3.8408,3.7857,3.6756,3.6826,3.6222,3.4871,3.4931,3.4956,3.4748,3.4739,3.4952,3.5322,3.5234,3.5292,0.0,0.0,0.0,0.0,0.0,0.0,0.0,0.0,0.0,0.0,0.0,4.2174,4.3158,4.4849,4.5865,4.5709,4.6257,4.6882,4.759,4.7531,4.7632,4.8062,4.7836,4.7605,4.7406,4.6977,4.6612,4.6372,4.6079,4.5722,4.5235,4.5856,4.618,4.5758,4.5556,4.5298,4.4706,4.4227,4.349,4.2374,4.2149,4.1828,4.1066,4.0714,4.0366,3.9649,3.9277,3.8995,3.8898,3.8866,3.8834,3.8608,3.8296,3.8111,3.8015,3.7606,3.7309,3.7489,3.7033,3.6471,5.1653,5.1038,5.1075,5.0621,4.9908,5.0561,4.995,4.8519,4.8885,4.9066,4.9001,4.7999,4.768,4.7837,4.6338,4.5761,4.593,4.5472,4.4942,4.4375,4.4372,4.4103,4.3658,4.3868,4.3927,4.3894,4.3203,4.2858,4.2825,4.2021,4.1149,4.0237,4.0204,3.977,3.8876,3.8557,3.8306,3.8055,3.8343,3.8516,3.8544,3.8544,3.8154,3.7405,3.755,3.7018,3.5737,3.5916,3.5842,3.5358,3.5415,3.5726,3.6353,3.6487,3.6725,0.0,3.7369,0.0,0.0,0.0,0.0,0.0,0.0,0.0,0.0,4.2746,4.3414,4.4462,4.5928,4.6933,4.7301,4.8155,4.8714,4.8714,4.8498,4.8578,4.915,4.8425,4.8032,4.8663,4.7535,4.6645,4.6355,4.5797,4.5339,4.5048,4.4887,4.4689,4.4231,4.4257,4.409,4.3292,4.2874,4.2135,4.0798,4.045,4.0229,3.9469,3.9594,3.9655,3.9124,3.8936,3.8842,3.881,3.8748,3.8779,3.881,3.8278,3.7904,3.7904,3.7436,3.7219,3.764,3.7416,3.7016,5.094,5.0325,5.0473,4.9766,4.8597,4.8901,4.8952,4.8921,4.9138,4.9349,4.9426,4.8605,4.8088,4.7701,4.6815,4.5926,4.5149,4.5047,4.4673,4.4152,4.4152,4.4115,4.401,4.4039,4.4039,4.4001,4.273,4.2122,4.2088,4.0749,4.0012,3.9826,3.9826,3.9601,3.9135,0.0,0.0,0.0,3.9034,3.9169,3.9441,3.9468,3.8809,3.7511,3.7494,0.0,3.5475,3.5422,3.5435,3.5325,3.5884,0.0,0.0,0.0,0.0,0.0,0.0,0.0,0.0,0.0,0.0,0.0,4.2942,4.2557,4.1977,4.369,4.4863,4.4833,4.6018,4.6824,4.6895,4.7094,4.7192,4.7225,4.7251,4.7348,4.7484,4.7173,4.7019,4.712,4.6672,4.6321,4.6196,4.6096,4.5763,4.5136,4.5006,4.4622,4.3819,4.401,4.3967,4.326,4.2237,4.115,4.0195,4.0067,4.0004,3.9783,3.9369,3.9178,3.8987,3.848,3.81,3.8011,3.7918,3.7921,3.7769,3.7491,3.7429,3.7518,3.7334,3.7152,3.7188,3.6909,3.6629,5.057,0.0,5.0464,4.972,0.0,4.8587,4.8518,4.8346,4.8413,4.848,4.8486,4.7471,4.7078,4.7078,4.6183,4.5445,4.49,4.4623,4.4344,4.4097,4.4097,4.4097,4.4097,4.4184,4.4011,4.3642,4.2589,4.1903,4.1499,4.0422,3.991,3.991,3.991,3.9833,3.9636,3.9437,3.9017,3.8376,3.8376,3.862,3.9108,3.9167,3.8631,3.7534,0.0,0.0,0.0,0.0,0.0,0.0,0.0,0.0,0.0,0.0,0.0,3.8962,3.8996,3.9494,4.0629,4.1146,4.2125,4.3757,4.4236,4.4272,4.3882,4.5049,4.5828,4.6055,4.6636,4.702,4.6986,4.7043,4.7072,4.7101,4.7216,4.7301,4.7273,4.7158,4.7072,4.6975,4.6501,4.6123,4.5942,4.5576,4.5182,4.4787,4.4599,4.4436,4.4052,4.3918,4.3586,4.2653,4.1391,4.0326,3.9822,3.9696,3.9537,3.9157,3.9033,3.8846,3.8526,3.8144,3.786,3.7801,3.7772,3.7743,3.7685,3.7596,3.7535,3.7594,3.7567,3.7419,3.7361,3.7151,3.6969,5.0203,5.0105,5.032,4.9639,4.8424,4.8627,4.8332,4.7605,0.0,0.0,0.0,4.6057,4.5857,4.6284,4.5405,4.4923,4.4757,4.4365,4.4217,4.4184,4.4049,4.3982,4.3982,4.3962,4.3614,4.3042,4.2402,4.1779,4.117,4.0451,4.0138,4.0113,4.0138,4.007,3.991,3.9774,3.9032,3.77,3.7843,3.8279,3.8875,3.8908,3.8564,3.7874,3.7816,3.7259,3.6038,3.6096,3.6491,3.7172,3.7331,3.8013,3.9361,3.9471,3.9812,4.0563,4.0631,4.0974,4.1719,4.2471,4.326,4.4018,4.4708,4.5429,4.6075,4.5986,4.6157,4.68,4.6868,4.6834,4.6862,4.6947,4.703,4.7058,4.7169,4.7189,4.7217,4.7196,4.7045,4.7045,4.6454,4.5973,4.571,4.5177,4.4686,4.4547,4.439,4.4018,4.3985,4.3676,4.3013,4.1796,4.075,3.9874,3.9479,3.9304,3.9019,3.8484,3.8692,3.8704,3.8197,3.8004,3.8004,3.8036,3.8008,3.7976,3.7976,3.7947,3.7947,3.7947,3.7863,3.7714,3.7714,3.7658,3.751,4.9333,4.8813,4.9122,4.8795,4.8068,4.8426,4.8058,4.7265,4.704,4.6676,4.6203,4.6036,4.5729,4.5384,4.5328,4.498,4.4404,4.4508,4.4497,4.4497,4.3821,4.3489,4.3455,4.2868,4.253,4.2395,4.1711,4.1305,4.1136,4.0586,4.0213,4.0138,4.0213,3.9908,3.9165,3.8531,3.8139,3.8041,3.9165,3.9817,4.0077,4.0077,3.9753,3.916,3.9126,3.8751,3.7945,3.8071,3.8162,3.8128,3.886,3.9422,3.9652,4.0214,4.0722,4.1094,4.1117,4.1476,4.23,4.2498,4.2963,4.3862,4.4596,4.5386,4.6165,4.559,4.522,4.5493,4.5589,4.5512,4.562,4.5635,4.5669,4.5707,4.5734,4.5752,4.5918,4.6031,4.6126,4.6126,4.5953,4.5832,4.5684,4.5581,4.5425,4.5277,4.4603,4.4053,4.3216,4.2974,4.2373,4.1194,4.0503,3.9996,3.9484,3.9035,3.8892,3.8738,3.8776,3.8851,3.8553,3.8488,3.8432,3.8319,3.8226,3.8226,3.8226,3.8237,3.8051,3.7958,3.7815,3.7732,3.77,3.7735,3.7711,4.9121,4.8825,4.9194,4.8893,4.8292,4.8515,4.7941,4.6873,4.6898,4.6578,4.5839,4.5257,4.5046,4.5135,4.4596,4.4136,4.3799,4.3477,4.3389,4.3444,4.3105,4.2962,4.3008,4.2668,4.2294,4.1946,4.1733,4.1399,4.1013,4.0865,4.0765,4.0717,4.0765,4.0593,4.0201,3.9834,3.9732,3.9871,3.9324,3.9316,3.9932,3.9956,3.9843,3.957,3.9675,3.9169,3.7976,3.8148,3.8256,3.8192,3.8964,3.9599,4.006,4.0746,4.1232,4.1391,4.1413,4.1611,4.2006,4.2391,4.2987,4.3804,4.4214,4.4574,4.5018,4.5499,4.5727,4.5615,4.5666,4.5727,4.5624,4.5624,4.5511,4.5171,4.5534,4.568,4.5416,4.5705,4.5939,4.5914,4.5863,4.5639,4.5221,4.5212,4.4978,4.4555,4.4103,4.3578,4.2679,4.2568,4.227,4.1167,4.052,4.0098,3.9737,3.9513,3.9441,3.9415,3.9302,3.9169,3.898,3.8925,3.8625,3.8051,3.7931,3.7713,3.7431,3.7219,3.7192,3.7164,3.6993,3.6878,3.6882,3.711,3.7384,4.9093,4.9125,4.9481,4.9304,4.8858,4.8815,4.8,4.684,4.6873,4.6409,4.56,4.4769,4.4715,4.512,4.4313,4.3946,4.3817,4.3326,4.3166,4.3245,4.3074,4.2954,4.286,4.2748,4.2234,4.1606,4.1743,4.1494,4.0965,4.1105,4.1255,4.1277,4.108,4.1068,4.1265,4.1126,4.1158,4.1331,3.9813,3.9284,4.0111,4.0123,4.0158,4.0169,4.0152,3.9569,3.839,3.8335,3.8395,3.8435,3.8957,3.9645,4.0503,4.1037,4.1481,4.1788,4.1823,4.1845,4.1858,4.2353,4.293,4.353,4.3777,4.3893,4.4054,4.5232,4.5988,4.5725,4.5679,4.5655,4.5509,4.5544,4.5418,4.4963,4.5398,4.5516,4.5117,4.5409,4.5663,4.5639,4.554,4.5187,4.4684,4.452,4.4206,4.3519,4.3262,4.2949,4.2323,4.2114,4.1829,4.1311,4.0628,4.0247,4.0188,4.0037,3.9935,3.9935,3.9799,3.9618,3.9401,3.9222,3.8765,3.7919,3.749,3.7267,3.6645,3.6574,3.6607,3.6698,3.6645,3.6436,3.6507,3.6724,3.703,4.9148,4.9354,4.9569,4.9801,4.9763,4.9063,4.8271,4.7582,4.6818,4.604,4.5409,4.5318,4.5318,4.5405,4.5477,4.5355,4.5217,4.5407,4.5354,4.5249,4.4788,4.4128,4.3305,4.2704,4.1997,4.1349,4.1302,4.1313,4.1209,4.1346,4.1458,4.1432,4.0701,4.0758,4.1336,4.0832,4.0897,4.1666,4.1481,4.1424,4.1516,4.1442,4.1442,4.1516,4.0762,4.0375,4.0165,3.9823,3.9494,3.9413,3.9645,4.0155,4.0887,4.11,4.1558,4.2362,4.251,4.251,4.251,4.2546,4.2669,4.2761,4.3366,4.3781,4.3837,4.4638,4.5036,4.4689,4.4578,4.4707,4.4703,4.4671,4.4662,4.4587,4.4614,4.4565,4.4654,4.4698,4.4645,4.4491,4.4587,4.4306,4.4132,4.398,4.3594,4.2905,4.2707,4.2393,4.1742,4.1544,4.1499,4.1244,4.0871,4.0666,4.051,4.0263,4.0179,4.0163,4.0113,4.0003,3.9834,3.9252,3.8445,3.8118,3.7591,3.7125,3.6868,3.7011,3.6962,3.6713,3.6829,3.7095,3.7086,3.6975,3.6967,4.9311,4.9016,4.9274,4.9201,4.8834,4.8466,4.7912,4.7264,4.703,4.6516,4.5905,4.6094,4.5945,4.5477,4.524,4.5082,4.4997,4.4645,4.4241,4.3906,4.3615,4.308,4.2392,4.21,4.1751,4.1493,4.1635,4.1723,4.1788,4.198,4.2127,4.2133,4.1772,4.1828,4.2118,4.1833,4.193,4.2333,4.2353,4.2159,4.1765,4.1914,4.2037,4.1994,4.138,4.076,4.0242,3.9666,3.9134,3.8687,3.91,3.9567,3.9889,4.0785,4.147,4.1871,4.2358,4.2609,4.2609,4.2609,4.2609,4.2609,4.2897,4.3097,4.3212,4.354,4.368,4.3652,4.4226,4.4693,4.4571,4.4541,4.4363,4.4064,4.4256,4.4363,4.3921,4.4364,4.4628,4.4541,4.4621,4.4392,4.3864,4.3415,4.3003,4.2619,4.2455,4.2163,4.1866,4.1758,4.1604,4.1471,4.1312,4.1175,4.0931,4.0836,4.0741,4.0741,4.0765,4.0693,4.0373,4.0197,3.954,3.8284,3.7691,3.6932,3.5995,3.5995,3.6009,3.6124,3.609,3.6081,3.6033,3.6328,3.6506,4.9396,4.8854,4.9036,4.8802,4.833,4.8085,4.7751,4.7302,4.7315,4.6989,4.6566,4.6824,4.6602,4.6014,4.5547,4.5385,4.5315,4.48,4.4202,4.3613,4.3578,4.3094,4.2277,4.2206,4.2065,4.1931,4.2107,4.2246,4.2251,4.2219,4.2413,4.2577,4.2433,4.2344,4.2364,4.2544,4.2619,4.2515,4.2479,4.2228,4.1794,4.1746,4.1912,4.202,4.1417,4.0773,4.0142,3.9247,3.8599,3.8125,3.8579,3.8977,3.9211,4.0491,4.1393,4.1806,4.2402,4.2727,4.2727,4.2746,4.2785,4.2765,4.2765,4.2804,4.288,4.2899,4.2937,4.3084,4.3874,4.4309,4.4217,4.4196,4.393,4.3463,4.3894,4.393,4.3483,4.3955,4.4227,4.4202,4.4155,4.414,4.3488,4.2945,4.2582,4.2566,4.243,4.2333,4.2369,4.2225,4.2115,4.1909,4.1888,4.1657,4.1323,4.1163,4.1209,4.1139,4.1001,4.0689,4.0504,4.032,3.979,3.7877,3.7637,3.7171,3.622,3.569,3.5566,3.5554,3.5532,3.5599,3.5746,3.6015,3.6171,4.9336,4.8907,4.8922,4.8891,4.8968,4.833,4.8116,4.8007,4.7559,4.7267,4.7209,4.7218,4.7254,4.7151,4.6968,4.7039,4.7026,4.6892,4.6398,4.5739,4.5739,4.5135,4.3791,4.3719,4.3268,4.2526,4.255,4.2589,4.2518,4.189,4.1893,4.2729,4.2135,4.1739,4.194,4.2574,4.252,4.2013,4.194,4.1741,4.1615,4.0981,4.1035,4.1484,4.076,4.0273,4.0148,3.8868,3.8089,3.8174,3.8313,3.864,3.935,4.0236,4.1361,4.2611,4.2957,4.3031,4.3067,4.3069,4.3124,4.3178,4.3142,4.3178,4.316,4.316,4.316,4.3196,4.3306,4.3396,4.3303,4.3412,4.3377,4.3287,4.3269,4.3305,4.3251,4.3341,4.3196,4.3137,4.3208,4.317,4.2776,4.253,4.2573,4.2629,4.2514,4.2474,4.2609,4.2589,4.253,4.251,4.2414,4.2231,4.1458,4.1136,4.1183,4.0999,4.0603,4.0165,3.9599,3.9011,3.8252,3.7599,3.7215,3.6818,3.6363,3.617,3.617,3.6114,3.6092,3.6105,3.592,3.6084,3.619,4.971,4.9077,4.8105,4.7748,4.7865,4.7625,4.7572,4.7649,4.7405,4.7298,4.7298,4.732,4.7298,4.7298,4.7341,4.7068,4.6593,4.6579,4.5917,4.4767,4.4659,4.4083,4.3149,4.3041,4.2972,4.2799,4.2749,4.2844,4.2957,4.2667,4.2722,4.2977,4.2795,4.2632,4.2687,4.2923,4.296,4.2759,4.2722,4.2249,4.1374,4.141,4.1431,4.1051,4.0237,3.975,3.9821,3.8819,3.8287,3.832,3.8352,3.8498,3.8829,4.0047,4.1467,4.2832,4.2668,4.2614,4.3014,4.2722,4.2739,4.3195,4.3268,4.3286,4.325,4.3251,4.3214,4.3233,4.3286,4.3323,4.3305,4.3233,4.3214,4.3214,4.3214,4.3214,4.3233,4.3269,4.3286,4.3233,4.3251,4.3232,4.3142,4.3124,4.3124,4.3142,4.3013,4.2939,4.2956,4.2863,4.2768,4.2691,4.2652,4.2554,4.2231,4.1386,4.0955,4.0608,4.0241,3.9777,3.9245,3.9105,3.8538,3.7861,3.7276,3.6936,3.6693,3.6381,3.6444,3.6423,3.6402,3.6339,3.6241,3.6255,3.6233,4.9615,4.9234,4.8041,4.7537,4.764,4.7684,4.7549,4.7399,4.7407,4.745,4.7508,4.7472,4.7493,4.7536,4.7621,4.7223,4.6452,4.6359,4.5637,4.4429,4.4104,4.3563,4.2912,4.2804,4.2842,4.2918,4.3012,4.3105,4.3178,4.2994,4.3048,4.3268,4.3048,4.2902,4.2939,4.3158,4.3248,4.3096,4.3057,4.245,4.1634,4.1744,4.1654,4.1018,4.0235,3.9829,3.9918,3.9219,3.8684,3.8533,3.8512,3.8763,3.9381,4.0386,4.1689,4.3063,4.2915,4.2822,4.3262,4.2964,4.2958,4.3436,4.3543,4.3543,4.3543,4.3563,4.351,4.3563,4.3597,4.3684,4.3631,4.358,4.3478,4.3358,4.3304,4.3304,4.3304,4.3375,4.341,4.341,4.3445,4.3497,4.3497,4.3463,4.3463,4.3497,4.3358,4.3269,4.3269,4.3178,4.3069,4.2995,4.2995,4.2939,4.2532,4.1672,4.1074,4.0715,3.9752,3.9302,3.903,3.8959,3.8672,3.8063,3.7667,3.7361,3.705,3.6699,3.6602,3.6582,3.6464,3.6402,3.636,3.6305,3.6305,4.9023,4.9549,4.883,4.8398,4.8335,4.8424,4.8179,4.7608,4.7657,4.7741,4.7804,4.7881,4.7866,4.7951,4.7931,4.7551,4.6984,4.6779,4.6217,4.5328,4.458,4.3888,4.3178,4.316,4.3142,4.3233,4.3286,4.3302,4.3337,4.2907,4.2904,4.3292,4.2868,4.268,4.241,4.3179,4.3229,4.2844,4.2781,4.2696,4.2575,4.2032,4.1661,4.1475,4.0834,4.0585,4.0863,4.004,3.9297,3.8793,3.8795,3.9571,4.0738,4.1206,4.202,4.3303,4.3684,4.377,4.386,4.3812,4.3695,4.3971,4.4048,4.4026,4.4011,4.4072,4.4102,4.4087,4.4102,4.4147,4.4132,4.4102,4.3949,4.3634,4.3546,4.3529,4.3532,4.3515,4.3497,4.3515,4.3515,4.3497,4.3497,4.3445,4.3445,4.348,4.3445,4.341,4.3463,4.3409,4.348,4.3463,4.3356,4.3195,4.2595,4.1922,4.1432,4.0845,3.9563,3.8735,3.8534,3.8389,3.8154,3.7652,3.763,3.736,3.7224,3.693,3.6851,3.6791,3.665,3.6568,3.6547,3.6547,3.643,5.0027,4.9735,4.8942,4.8403,4.8025,4.8088,4.7949,4.785,4.7891,4.7911,4.7988,4.7988,4.7972,4.7992,4.7992,4.7942,4.7709,4.7257,4.6286,4.5022,4.4017,4.3597,4.3429,4.3303,4.3339,4.3495,4.3697,4.3779,4.3738,4.3642,4.3757,4.3869,4.3705,4.3608,4.3556,4.3869,4.384,4.3782,4.3722,4.349,4.3062,4.274,4.26,4.2445,4.1759,4.1455,4.1518,4.0211,3.938,3.912,3.9124,3.9621,4.0528,4.0751,4.1547,4.291,4.2701,4.3029,4.3901,4.3677,4.3683,4.4057,4.4236,4.4236,4.4236,4.4221,4.4221,4.4206,4.4192,4.4192,4.4192,4.4192,4.4132,4.398,4.3965,4.3939,4.3865,4.3767,4.3634,4.3532,4.3549,4.3549,4.3515,4.348,4.348,4.3515,4.3532,4.3566,4.3566,4.3583,4.3583,4.3583,4.3475,4.3258,4.2568,4.195,4.152,4.0673,3.9463,3.86,3.8295,3.8062,3.7775,3.7577,3.7522,3.7429,3.7317,3.7222,3.7145,3.7126,3.7052,3.6954,3.6871,3.6791,3.6696,5.0204,4.9981,4.9242,4.8717,4.8429,4.845,4.8347,4.8229,4.8229,4.8248,4.825,4.8325,4.8307,4.8363,4.8383,4.8421,4.8403,4.7773,4.6735,4.5429,4.4407,4.3962,4.3783,4.3677,4.3693,4.3823,4.3996,4.4087,4.4124,4.4244,4.4317,4.4317,4.4317,4.4279,4.4317,4.4317,4.436,4.4421,4.4435,4.4199,4.3877,4.3777,4.3751,4.3598,4.2945,4.2421,4.2059,4.0729,3.9815,3.9489,3.9427,3.9814,4.0562,4.1014,4.1777,4.2739,4.2851,4.3052,4.4102,4.3731,4.3571,4.4247,4.4462,4.4476,4.4476,4.4448,4.4448,4.4448,4.4462,4.4486,4.4462,4.4448,4.4462,4.449,4.4294,4.4162,4.4079,4.3986,4.3929,4.3812,4.3763,4.3714,4.3718,4.3634,4.3617,4.3617,4.3651,4.3667,4.3667,4.3667,4.3684,4.3684,4.3651,4.3212,4.2537,4.1972,4.1535,4.051,3.9344,3.8751,3.834,3.8198,3.7966,3.7774,3.7721,3.7577,3.7466,3.7466,3.7411,3.7412,3.7377,3.7031,3.6844,3.7001,3.6907,4.9763,5.0237,4.9565,4.9285,4.9334,4.9317,4.9028,4.8642,4.8587,4.8641,4.873,4.882,4.8873,4.8925,4.8956,4.8973,4.8895,4.8385,4.7644,4.68,4.5954,4.5177,4.4244,4.4132,4.4147,4.4192,4.4279,4.4336,4.4351,4.4472,4.451,4.4551,4.4551,4.4524,4.4537,4.4524,4.4592,4.4661,4.4712,4.4701,4.4763,4.4814,4.4814,4.4738,4.398,4.3272,4.2625,4.1594,4.0582,3.97,3.9647,4.0059,4.0902,4.1767,4.2447,4.3341,4.3504,4.3882,4.4334,4.4121,4.3983,4.4637,4.4751,4.4827,4.4789,4.4814,4.4877,4.4839,4.4852,4.4864,4.4852,4.4852,4.4914,4.49,4.4557,4.4322,4.4236,4.4221,4.4162,4.4132,4.4094,4.4002,4.3986,4.3897,4.3849,4.3832,4.3865,4.3913,4.3897,4.3876,4.3869,4.3853,4.3816,4.307,4.232,4.2308,4.1724,4.0152,3.928,3.9053,3.8534,3.834,3.8218,3.8051,3.7914,3.7792,3.7703,3.7739,3.7721,3.7703,3.7452,3.7022,3.7003,3.7233,3.7054,5.0871,5.0044,4.9786,4.9455,4.9084,4.9065,4.9025,4.8907,4.8907,4.8939,4.9023,4.904,4.9073,4.9073,4.9106,4.9069,4.9064,4.9027,4.8596,4.7972,4.7834,4.6327,4.4711,4.4374,4.4477,4.4491,4.4715,4.4621,4.4674,4.484,4.489,4.4839,4.4852,4.4852,4.4815,4.4764,4.4777,4.4814,4.4827,4.4877,4.4914,4.4914,4.49,4.491,4.4227,4.3707,4.3301,4.2036,4.0843,3.9909,3.9851,4.0279,4.1056,4.1457,4.2226,4.3388,4.3679,4.4006,4.4687,4.4661,4.4723,4.496,4.4998,4.5033,4.5033,4.5045,4.5057,4.5057,4.5057,4.5045,4.5057,4.5057,4.5068,4.5057,4.4839,4.4661,4.4581,4.4513,4.4416,4.4236,4.4236,4.4206,4.4177,4.4147,4.4132,4.4147,4.4206,4.4265,4.4192,4.4199,4.414,4.4017,4.3822,4.2918,4.2321,4.2369,4.1652,3.9881,3.9311,3.9475,3.8941,3.8465,3.838,3.8283,3.8271,3.8138,3.8121,3.8121,3.8106,3.7986,3.7861,3.7647,3.7577,3.7703,3.7291,5.0787,5.0006,4.9672,4.9351,4.911,4.911,4.9176,4.9289,4.9305,4.9321,4.9346,4.9377,4.9377,4.9346,4.9423,4.9423,4.9408,4.9566,4.915,4.8475,4.8143,4.7106,4.5841,4.5426,4.5364,4.5704,4.5783,4.5684,4.547,4.5494,4.5352,4.5048,4.5033,4.5045,4.5033,4.5033,4.5045,4.5068,4.5057,4.5033,4.5033,4.501,4.501,4.4969,4.4524,4.4106,4.3281,4.21,4.1023,4.0245,4.0045,4.0435,4.1201,4.1619,4.2416,4.3669,4.3783,4.4174,4.4779,4.4791,4.4726,4.5015,4.5103,4.5103,4.5103,4.5103,4.5103,4.5103,4.5103,4.5103,4.5114,4.5125,4.5136,4.5136,4.5103,4.5022,4.4902,4.4814,4.4739,4.4648,4.4557,4.453,4.4513,4.4513,4.4486,4.4448,4.4486,4.4527,4.449,4.4476,4.4458,4.4331,4.4146,4.3438,4.3006,4.2984,4.2418,4.0622,3.9978,4.0074,3.943,3.8851,3.8648,3.8601,3.8564,3.8481,3.8417,3.8336,3.8254,3.8188,3.8241,3.8099,3.7853,3.8002,3.7571,5.0311,5.023,4.943,4.9225,4.9415,4.943,4.9506,4.9678,4.9678,4.9692,4.9683,4.9778,4.975,4.9736,4.9769,4.9852,4.9835,4.9866,4.954,4.8871,4.8289,4.7618,4.7694,4.667,4.6683,4.7087,4.7391,4.6998,4.6541,4.6464,4.6083,4.575,4.5544,4.5502,4.5753,4.5611,4.5502,4.5475,4.547,4.5333,4.5219,4.5148,4.5136,4.5148,4.5121,4.432,4.3268,4.2317,4.1619,4.0461,4.0251,4.0642,4.1442,4.2269,4.3107,4.3907,4.4211,4.4489,4.4908,4.4625,4.4435,4.5017,4.517,4.5136,4.517,4.5181,4.5181,4.5154,4.506,4.493,4.493,4.5077,4.5213,4.5224,4.5256,4.5235,4.5159,4.5114,4.5114,4.5103,4.4986,4.4938,4.4902,4.4852,4.4764,4.4777,4.4777,4.4789,4.4777,4.4739,4.4687,4.4595,4.4404,4.4189,4.3834,4.3642,4.2829,4.1736,4.1272,4.0948,4.0133,3.9534,3.9105,3.8882,3.8866,3.8731,3.8544,3.8465,3.8453,3.8368,3.8405,3.796,3.7588,3.8009,3.7887,5.1365,5.0703,4.9875,4.9589,4.9648,4.9648,4.9692,4.9778,4.9778,4.9821,4.9838,4.9852,4.989,4.989,4.9946,5.0011,5.005,5.0089,4.9998,4.9895,4.9055,4.9132,4.912,4.8069,4.7498,4.7773,4.7732,4.764,4.7521,4.751,4.7439,4.7161,4.6882,4.721,4.7035,4.6778,4.6844,4.6358,4.6205,4.5785,4.5364,4.5277,4.5288,4.5319,4.5319,4.4842,4.4097,4.3685,4.3187,4.223,4.1207,4.1074,4.2201,4.2601,4.3451,4.452,4.494,4.5076,4.5222,4.5128,4.51,4.5255,4.5331,4.5331,4.5341,4.5321,4.5331,4.5217,4.4717,4.4485,4.4534,4.5013,4.5281,4.5367,4.5378,4.5319,4.5256,4.5203,4.5159,4.5125,4.5091,4.5057,4.5068,4.5091,4.5068,4.5091,4.508,4.508,4.5033,4.4948,4.4888,4.4802,4.4764,4.4499,4.4196,4.4007,4.3538,4.2929,4.2543,4.2221,4.1367,4.0546,4.023,3.9734,3.9217,3.9105,3.9258,3.8814,3.8872,3.87,3.8549,3.823,3.8093,3.8283,3.8238,5.133,5.0883,5.009,4.9764,4.9807,4.9807,4.9821,4.9862,4.9852,4.9931,4.9946,4.9999,5.0038,5.0038,5.0101,5.0151,5.0214,5.0212,5.0248,5.0195,4.9786,4.9935,5.003,4.9204,4.8564,4.8865,4.8984,4.8815,4.8531,4.8345,4.799,4.7322,4.7343,4.6855,4.6779,4.6817,4.6416,4.61,4.6071,4.5812,4.5515,4.5457,4.5514,4.555,4.5482,4.5163,4.4346,4.4303,4.3849,4.3041,4.2233,4.2189,4.312,4.3398,4.4097,4.5053,4.536,4.54,4.5448,4.5486,4.5505,4.5538,4.5503,4.5485,4.5457,4.5438,4.541,4.5323,4.5036,4.4748,4.4748,4.5016,4.54,4.5418,4.54,4.538,4.5329,4.5277,4.5224,4.5192,4.5192,4.5192,4.5203,4.5235,4.5224,4.5192,4.5148,4.5148,4.5159,4.5114,4.5042,4.5007,4.5045,4.4858,4.4483,4.4297,4.4235,4.3906,4.3726,4.3557,4.3188,4.2315,4.1539,4.0946,4.0354,4.0407,4.04,3.9897,3.9401,3.9295,3.9145,3.8789,3.8559,3.8528,3.8396,5.1011,5.097,5.0175,4.989,4.992,4.9933,4.9933,4.9933,4.9999,5.0038,5.005,5.0163,5.0224,5.0209,5.0077,5.0111,4.9964,4.9909,4.9799,4.9771,4.9963,4.989,4.9836,4.949,4.9433,5.0139,4.975,4.9329,4.8956,4.8907,4.8231,4.7155,4.7021,4.7011,4.6269,4.6,4.621,4.6129,4.6095,4.588,4.5703,4.5696,4.5712,4.5719,4.5703,4.5433,4.4931,4.4766,4.4491,4.3666,4.3647,4.3974,4.4256,4.4314,4.4621,4.5408,4.5503,4.5538,4.559,4.5646,4.5632,4.5696,4.5648,4.5646,4.559,4.5556,4.553,4.5503,4.5349,4.5254,4.5274,4.5417,4.5428,4.5477,4.5448,4.5438,4.5429,4.538,4.536,4.5309,4.5309,4.5309,4.5309,4.5319,4.5309,4.5326,4.5246,4.5213,4.5235,4.5224,4.5181,4.517,4.517,4.5159,4.4836,4.4653,4.4595,4.4535,4.4512,4.4486,4.4435,4.3841,4.2945,4.2169,4.175,4.1619,4.139,4.09,4.0465,4.0156,3.9756,3.9445,3.9113,3.881,3.8594,5.1168,5.1174,5.0339,4.9986,5.005,5.0114,5.0025,5.0076,5.0111,5.0212,5.0111,5.0306,5.032,5.0172,4.967,4.9192,4.8929,4.8908,4.8866,4.8981,4.9329,4.947,4.9046,4.9156,4.9473,4.9473,4.9139,4.8668,4.8728,4.8453,4.8574,4.8183,4.8067,4.7928,4.7697,4.7828,4.7164,4.6599,4.6636,4.6464,4.6098,4.6093,4.6029,4.6029,4.6003,4.5848,4.5686,4.5654,4.5621,4.5466,4.5466,4.5486,4.5363,4.4928,4.5008,4.5526,4.5796,4.5843,4.5788,4.5841,4.5771,4.5778,4.5771,4.5764,4.5757,4.5742,4.5704,4.5704,4.5658,4.5457,4.4731,4.5364,4.5642,4.5642,4.5703,4.5695,4.5662,4.5573,4.5589,4.564,4.5534,4.5563,4.5773,4.5811,4.5686,4.5589,4.5395,4.5326,4.5298,4.5267,4.5224,4.5235,4.5256,4.5256,4.5208,4.5115,4.5022,4.4962,4.4931,4.4896,4.4849,4.4887,4.4297,4.3415,4.2669,4.2302,4.1999,4.1809,4.1319,4.0873,4.049,4.0093,3.9537,3.9055,3.9013,5.0671,5.0621,4.9784,4.9429,4.9415,4.9055,4.8938,4.8988,4.9516,4.9541,4.9381,4.9653,4.9673,4.9325,4.9033,4.8607,4.8423,4.8369,4.8415,4.8531,4.8771,4.8848,4.8322,4.8474,4.8657,4.8677,4.8283,4.8638,4.9591,4.9792,4.9388,4.9117,4.9062,4.8681,4.7946,4.7636,4.7326,4.6797,4.6952,4.706,4.6717,4.699,4.7129,4.674,4.6623,4.6468,4.6041,4.6002,4.6007,4.5968,4.6002,4.6002,4.588,4.5703,4.5503,4.5861,4.6189,4.6235,4.6087,4.6171,4.6377,4.5944,4.5886,4.5861,4.5848,4.5827,4.5814,4.5877,4.6296,4.6088,4.5346,4.5902,4.6112,4.5911,4.6035,4.6112,4.585,4.5727,4.5873,4.6069,4.6249,4.6454,4.6781,4.6666,4.6254,4.5917,4.5619,4.5456,4.537,4.5339,4.5298,4.5298,4.5309,4.5326,4.5288,4.5256,4.5224,4.5213,4.5203,4.517,4.5136,4.5053,4.4896,4.4372,4.3744,4.3152,4.3149,4.3133,4.2382,4.1606,4.1053,4.0476,3.9789,3.9326,3.9274,4.9945,4.9977,4.9281,4.9114,4.9132,4.8613,4.8322,4.8373,4.9279,4.9267,4.8561,4.9341,4.9544,4.8949,4.8592,4.8358,4.8196,4.8009,4.7784,4.7822,4.8107,4.8217,4.8005,4.7979,4.8149,4.8977,4.8627,4.881,4.9718,5.0099,4.9983,4.9498,4.9401,4.8941,4.786,4.7783,4.7,4.694,4.7129,4.7582,4.7797,4.8248,4.831,4.7531,4.7415,4.6982,4.6204,4.6126,4.6126,4.6126,4.6126,4.6087,4.6126,4.613,4.6081,4.6102,4.657,4.6428,4.6329,4.6413,4.6474,4.6041,4.5964,4.5947,4.5929,4.5905,4.5861,4.6002,4.6319,4.6513,4.5906,4.639,4.6383,4.6144,4.6344,4.6615,4.6066,4.5905,4.6292,4.6576,4.6923,4.7127,4.7296,4.7038,4.6527,4.5935,4.5591,4.5563,4.5477,4.5429,4.54,4.537,4.535,4.5357,4.5337,4.5326,4.5267,4.5256,4.5246,4.5213,4.5192,4.5159,4.4966,4.482,4.4711,4.4234,4.4335,4.4195,4.3416,4.2611,4.1732,4.0992,4.0439,3.9875,3.9575,4.9283,4.9423,4.9346,4.9787,5.0325,5.0216,4.9869,4.935,5.0091,5.0193,4.9095,5.0179,5.0509,5.0033,4.8929,4.8138,4.7484,4.6973,4.6818,4.7012,4.7379,4.77,4.7722,4.8336,4.8618,4.9246,4.9459,4.9304,4.9498,4.9381,4.9197,4.9119,4.9236,4.8706,4.8579,4.8502,4.8472,4.836,4.8461,4.8556,4.869,4.8853,4.8464,4.7883,4.7611,4.7334,4.6594,4.6438,4.6321,4.6286,4.6247,4.6208,4.6212,4.6212,4.6197,4.6169,4.6186,4.6173,4.6129,4.6353,4.6392,4.6168,4.6071,4.6066,4.6162,4.6147,4.6125,4.598,4.6208,4.6202,4.608,4.6164,4.6086,4.6114,4.6257,4.6308,4.5997,4.595,4.6332,4.7217,4.7654,4.7487,4.7442,4.7109,4.6738,4.6141,4.5629,4.5612,4.5577,4.5494,4.5486,4.5458,4.5429,4.539,4.5408,4.535,4.5357,4.5309,4.5316,4.5267,4.5235,4.5213,4.5192,4.5087,4.5057,4.4986,4.475,4.4524,4.4221,4.3541,4.2585,4.1853,4.1192,4.0651,4.014,4.9761,5.0064,4.9118,4.923,4.9898,4.9127,4.8794,4.8972,4.9347,4.9103,4.8567,4.922,4.9401,4.8986,4.8083,4.7711,4.73,4.6916,4.7087,4.7169,4.7456,4.7617,4.7894,4.7678,4.7886,4.9175,4.934,4.9426,4.9383,4.9919,5.0187,5.011,5.0079,4.9967,4.9504,4.9422,4.9114,4.8997,4.92,4.9715,5.0073,5.0151,4.9761,4.8943,4.8869,4.8362,4.7738,4.7115,4.6959,4.692,4.6917,4.692,4.7072,4.7306,4.7536,4.6945,4.6937,4.6683,4.6273,4.658,4.6467,4.6191,4.6147,4.6294,4.6644,4.679,4.6742,4.6785,4.6805,4.6566,4.6289,4.6512,4.6351,4.6268,4.6274,4.6274,4.6196,4.6108,4.6397,4.74,4.8242,4.7999,4.7875,4.784,4.7378,4.6476,4.5936,4.5727,4.5648,4.5607,4.5556,4.5541,4.5505,4.5477,4.5448,4.5429,4.5438,4.5408,4.5385,4.5375,4.5277,4.5256,4.5475,4.5328,4.5186,4.5091,4.5033,4.4834,4.4533,4.3978,4.3398,4.2689,4.2045,4.1832,4.1446,5.0431,5.0711,4.9251,4.9158,4.9853,4.8403,4.8082,4.8464,4.8857,4.8499,4.805,4.8599,4.8638,4.8022,4.7911,4.781,4.7724,4.749,4.7777,4.7903,4.7678,4.7566,4.7691,4.7198,4.7556,4.8958,4.897,4.9449,5.0229,5.0615,5.084,5.1269,5.0696,5.0665,5.0396,5.0084,4.9769,4.9776,5.0127,5.0637,5.1066,5.1222,5.0715,5.0244,4.9932,4.962,4.8844,4.822,4.783,4.783,4.7834,4.7834,4.7912,4.8217,4.833,4.7937,4.7813,4.7568,4.712,4.6991,4.6753,4.6402,4.6204,4.6433,4.7163,4.7397,4.7397,4.728,4.7305,4.6868,4.6474,4.6615,4.645,4.6367,4.6478,4.6473,4.6507,4.6579,4.6729,4.7423,4.8149,4.8466,4.8424,4.8632,4.8089,4.6957,4.6348,4.594,4.5827,4.5781,4.5703,4.5654,4.5603,4.5577,4.555,4.5561,4.5524,4.5726,4.5706,4.5916,4.6127,4.6135,4.6258,4.5986,4.56,4.5295,4.5278,4.5068,4.487,4.4402,4.3973,4.3445,4.2978,4.2727,4.2427,5.103,5.1024,5.0124,5.0207,5.0945,5.0103,4.9248,4.8893,4.9487,4.9227,4.8566,4.9304,4.9632,4.9332,4.8598,4.838,4.8482,4.7747,4.7678,4.7371,4.68,4.712,4.74,4.7759,4.8082,4.9372,4.9297,4.9854,5.0644,5.053,5.0839,5.1112,5.0761,5.081,5.0813,5.0573,5.0612,5.0699,5.1054,5.1132,5.1327,5.1327,5.0976,5.0355,5.0085,4.9694,4.8917,4.8758,4.8716,4.8716,4.8713,4.8713,4.8749,4.9052,4.9049,4.8812,4.872,4.8518,4.8195,4.7217,4.6403,4.6247,4.6353,4.6726,4.7531,4.7445,4.7401,4.7605,4.7791,4.7125,4.6541,4.6186,4.6635,4.6586,4.6849,4.7111,4.7183,4.7284,4.7439,4.7706,4.8172,4.871,4.8905,4.9102,4.858,4.7456,4.7043,4.6642,4.6228,4.6109,4.5933,4.5812,4.5665,4.5632,4.5693,4.5783,4.6103,4.6518,4.6683,4.7097,4.752,4.7434,4.7069,4.6837,4.649,4.5986,4.5617,4.5818,4.572,4.5098,4.4547,4.4083,4.3684,4.3383,4.3045,5.1157,5.1064,5.0259,5.0403,5.1163,5.0276,4.9998,5.012,4.9982,4.9453,4.8686,4.9513,4.9357,4.8662,4.8706,4.8326,4.7921,4.7614,4.7739,4.7829,4.7607,4.7568,4.7883,4.793,4.8093,4.9152,4.939,4.9357,4.9607,5.0282,5.0129,5.0168,5.0438,5.1018,5.1135,5.1021,5.1138,5.1216,5.1375,5.1375,5.1375,5.1375,5.1219,5.0946,5.0907,5.0751,5.0399,4.9853,4.9697,4.9583,4.9583,4.9586,4.9664,5.0004,5.0001,4.9685,4.9595,4.939,4.8798,4.7742,4.6842,4.6371,4.6676,4.7369,4.8102,4.7829,4.8179,4.8413,4.8401,4.7735,4.7107,4.7371,4.7747,4.731,4.7266,4.7641,4.7937,4.8082,4.8305,4.861,4.9032,4.9493,4.9532,4.9532,4.8815,4.8027,4.7693,4.7365,4.6952,4.6578,4.6435,4.626,4.6126,4.6336,4.6445,4.6607,4.6761,4.7254,4.7709,4.8202,4.8617,4.8111,4.7788,4.7587,4.7588,4.7309,4.7126,4.7011,4.649,4.56,4.5082,4.4726,4.4376,4.4064,4.394,5.1031,5.0786,5.0169,5.0275,5.0687,4.9909,4.9715,4.9948,4.9653,4.9246,4.8715,4.907,4.8608,4.783,4.7951,4.8042,4.7595,4.7521,4.7841,4.7887,4.7813,4.793,4.8093,4.8301,4.8512,4.9103,4.9346,4.9471,5.0005,5.0393,5.0284,5.0168,5.0202,5.051,5.0998,5.1311,5.1389,5.1389,5.1113,5.1272,5.1311,5.1076,5.1233,5.1233,5.1313,5.1274,5.1079,5.073,5.0535,5.0494,5.0494,5.0494,5.0686,5.0879,5.0993,5.0714,5.0394,5.0147,4.9474,4.849,4.77,4.7384,4.754,4.8319,4.8709,4.8397,4.8588,4.9524,4.9161,4.8495,4.7833,4.8214,4.8319,4.7921,4.8033,4.8374,4.8818,4.9036,4.9293,4.9554,4.9976,5.0353,5.0709,5.067,4.997,4.9221,4.8738,4.8293,4.7738,4.7365,4.7081,4.6907,4.6687,4.7029,4.7417,4.7576,4.7811,4.833,4.8825,4.9281,4.9459,4.9148,4.9269,4.962,4.9507,4.8902,4.8394,4.7962,4.7021,4.599,4.5583,4.5284,4.5098,4.4874,4.515,5.0703,4.9969,4.9951,4.996,4.9844,4.9104,4.8399,4.8161,4.8599,4.872,4.853,4.8063,4.7648,4.7388,4.7521,4.7458,4.732,4.732,4.7518,4.7564,4.7612,4.7557,4.8002,4.8454,4.9098,4.9645,4.9811,5.014,5.0934,5.0227,5.0151,5.0037,4.9646,4.9603,5.0206,5.1021,5.1373,5.1295,5.0631,5.0902,5.1095,5.0822,5.0939,5.1221,5.1377,5.1377,5.1307,5.1267,5.1071,5.1111,5.1146,5.1146,5.1222,5.1256,5.1291,5.1249,5.1235,5.118,5.1044,4.9623,4.8879,4.8479,4.8514,4.906,4.9527,4.9294,4.9099,5.0073,4.9446,4.8978,4.8783,4.8861,4.8927,4.8842,4.8954,4.9292,4.9741,4.9917,5.0179,5.0236,5.0714,5.1247,5.1797,5.1958,5.1225,5.0559,4.9926,4.9332,4.8815,4.8493,4.832,4.7616,4.7487,4.8095,4.8471,4.8554,4.8845,4.9406,5.009,5.0741,5.123,5.1401,5.1556,5.1755,5.1134,5.0289,4.9486,4.873,4.7962,4.7203,4.6254,4.5812,4.5663,4.5759,4.6111,5.0729,4.994,4.9361,4.8829,4.8409,4.8651,4.8521,4.8331,4.8539,4.8401,4.8063,4.8105,4.754,4.7093,4.7187,4.7237,4.6784,4.6647,4.6766,4.75,4.7621,4.7941,4.8415,4.9199,4.9794,5.0111,5.0193,5.0234,5.0428,5.0117,4.9374,4.902,4.9099,4.9375,5.0113,5.0924,5.1379,5.1389,5.115,5.1141,5.1336,5.1105,5.1034,5.1359,5.1398,5.1402,5.1405,5.1405,5.1404,5.1404,5.1402,5.1401,5.1401,5.1399,5.1406,5.1406,5.1395,5.139,5.1343,5.0633,4.9947,4.9487,4.9383,4.9737,4.9921,4.9255,4.9644,5.0353,5.0127,4.9811,4.9605,5.0229,5.0342,4.9909,4.9983,5.0482,5.0854,5.0849,5.0914,5.0889,5.1175,5.1786,5.233,5.3297,5.2952,5.288,5.2447,5.1258,5.0503,5.0186,4.9903,4.8777,4.8382,4.9102,4.964,4.9989,5.0675,5.147,5.2065,5.266,5.3074,5.3194,5.3196,5.3081,5.2353,5.1625,5.0748,4.9972,4.9341,4.8599,4.7743,4.7029,4.6897,4.7009,4.7274,5.0568,4.952,4.8978,4.8061,4.7294,4.795,4.8275,4.8245,4.8,4.7518,4.7219,4.7624,4.7523,4.6993,4.7114,4.759,4.7053,4.7135,4.7257,4.7997,4.8314,4.8782,4.941,5.0038,5.0469,5.0701,5.0933,5.1085,5.072,5.0843,4.9709,4.8379,4.8382,4.901,4.9763,5.0351,5.109,5.1014,5.0857,5.0621,5.0972,5.1128,5.1052,5.1289,5.1406,5.1405,5.1402,5.1401,5.1402,5.1404,5.1405,5.1406,5.1406,5.1406,5.1406,5.1406,5.1405,5.1521,5.1752,5.1866,5.1224,5.0577,5.0483,5.0636,5.0675,5.0335,5.072,5.1146,5.1057,5.1011,5.0969,5.1671,5.1668,5.12,5.1392,5.1895,5.1771,5.1767,5.1745,5.168,5.1721,5.2334,5.3141,5.4097,5.4752,5.4919,5.5086,5.3664,5.2203,5.1653,5.1253,5.0276,4.9648,5.0336,5.1107,5.1728,5.2531,5.3527,5.3812,5.3948,5.4129,5.4089,5.4224,5.4319,5.37,5.2965,5.1997,5.1207,5.0341,4.9853,4.9495,4.884,4.8288,4.8318,4.8548,5.0303,4.8815,4.8755,4.7801,4.6524,4.7148,4.7434,4.7395,4.6621,4.6286,4.6286,4.6389,4.6629,4.7295,4.741,4.7726,4.8122,4.8276,4.8552,4.8827,4.918,4.9687,5.0116,5.0735,5.0884,5.1112,5.1301,5.1288,5.1224,5.0655,4.9289,4.8267,4.855,4.8979,4.9417,4.9781,5.0578,5.0814,5.0583,5.0624,5.1093,5.0818,5.0973,5.1204,5.1357,5.1355,5.139,5.1351,5.1393,5.1396,5.14,5.1402,5.1404,5.1406,5.1406,5.1406,5.1406,5.1953,5.2226,5.2304,5.2693,5.2182,5.1869,5.2103,5.2017,5.1621,5.1732,5.2079,5.2154,5.2349,5.2583,5.2815,5.3045,5.2969,5.3008,5.3004,5.2767,5.2679,5.2656,5.2629,5.2593,5.3121,5.428,5.5278,5.5628,5.6383,5.6354,5.5638,5.4139,5.2658,5.2258,5.1797,5.1447,5.1713,5.2368,5.3106,5.376,5.4556,5.4446,5.4537,5.4757,5.5022,5.5158,5.513,5.4953,5.4141,5.2578,5.1657,5.1053,5.072,5.0618,5.0207,4.9521,4.9658,4.9844,5.033,4.8823,4.8796,4.7788,4.6386,4.6461,4.6573,4.653,4.627,4.6194,4.6189,4.62,4.6443,4.664,4.664,4.7265,4.7457,4.7607,4.8422,4.9044,4.963,4.9739,5.02,5.0896,5.092,5.0876,5.0982,5.1327,5.1151,5.0459,4.9952,4.9471,4.8902,4.9127,4.9325,4.9373,5.0265,5.0832,5.0568,5.0884,5.1199,5.1081,5.1192,5.134,5.1451,5.1442,5.1467,5.1428,5.143,5.1352,5.1401,5.1408,5.1379,5.138,5.1406,5.1484,5.1821,5.2291,5.2096,5.2957,5.3623,5.3626,5.3351,5.293,5.2809,5.2608,5.2529,5.2764,5.3037,5.3192,5.3384,5.3656,5.3734,5.3695,5.385,5.3966,5.3728,5.3602,5.3548,5.3493,5.3465,5.3724,5.496,5.542,5.5848,5.7069,5.7502,5.6862,5.6139,5.466,5.3413,5.2997,5.3085,5.3273,5.3727,5.4388,5.4964,5.543,5.5281,5.5242,5.5547,5.5812,5.6,5.5701,5.5045,5.3924,5.2562,5.1912,5.154,5.1641,5.1548,5.1183,5.0905,5.1026,5.1202,4.9819,4.8386,4.8273,4.7496,4.6366,4.6211,4.625,4.625,4.6249,4.6248,4.6247,4.625,4.6442,4.6868,4.7254,4.7873,4.864,4.8951,4.953,5.0028,4.9889,5.0282,5.0742,5.1008,5.1041,5.091,5.0945,5.1296,5.1086,5.0502,4.9956,4.9843,4.9216,4.941,4.9648,4.9698,5.0141,5.0753,5.1084,5.1327,5.1527,5.1566,5.1508,5.1771,5.1801,5.1782,5.1756,5.1767,5.1651,5.1498,5.1551,5.1642,5.1542,5.1391,5.1403,5.1531,5.212,5.2591,5.2864,5.3799,5.4305,5.4615,5.4771,5.4557,5.3942,5.3554,5.3359,5.3359,5.3632,5.3865,5.4176,5.4371,5.4215,5.4058,5.4448,5.4837,5.4717,5.4556,5.447,5.4383,5.4411,5.444,5.4861,5.5321,5.5857,5.679,5.7602,5.7825,5.7412,5.6718,5.5239,5.4274,5.4508,5.4828,5.5255,5.5527,5.587,5.6104,5.5942,5.5981,5.633,5.6291,5.6201,5.5553,5.4774,5.3853,5.3158,5.2469,5.2098,5.2276,5.2531,5.2406,5.2282,5.236,5.2498,4.9057,4.7539,4.7422,4.6989,4.635,4.6381,4.638,4.6302,4.6397,4.6403,4.644,4.6303,4.672,4.7307,4.7891,4.8664,4.9201,4.9591,5.0012,5.1216,5.0498,5.053,5.0796,5.1214,5.1059,5.1168,5.1281,5.1285,5.1086,5.0696,5.0307,5.0073,4.9372,4.9488,5.0151,5.019,5.0786,5.1728,5.1619,5.1544,5.204,5.199,5.1787,5.2532,5.261,5.2528,5.2528,5.245,5.2255,5.199,5.192,5.209,5.2025,5.1615,5.1594,5.1954,5.2659,5.3093,5.3756,5.4693,5.5083,5.5513,5.602,5.564,5.4946,5.4677,5.4525,5.4333,5.4569,5.4686,5.496,5.5351,5.539,5.5234,5.539,5.5586,5.5508,5.5389,5.5385,5.5263,5.5179,5.5253,5.5441,5.5942,5.6328,5.6823,5.7325,5.8058,5.8464,5.8203,5.7195,5.5799,5.6168,5.6458,5.6391,5.6625,5.6673,5.6738,5.6621,5.6602,5.6803,5.6602,5.6285,5.5676,5.5073,5.4728,5.411,5.3499,5.3081,5.3143,5.3359,5.3622,5.3652,5.3614,5.3652,4.8552,4.7491,4.6817,4.6372,4.6318,4.694,4.6821,4.6314,4.6945,4.719,4.7075,4.6633,4.6699,4.7518,4.7945,4.8599,4.9139,4.9607,4.9832,5.0329,5.0318,5.0283,5.047,5.1012,5.093,5.0696,5.0813,5.132,5.132,5.1086,5.093,5.0891,5.0268,5.0307,5.1047,5.1125,5.171,5.2684,5.2918,5.2411,5.2372,5.2606,5.268,5.3073,5.319,5.2879,5.2801,5.2723,5.2567,5.2411,5.2454,5.2777,5.3221,5.2656,5.2752,5.3269,5.3511,5.3828,5.434,5.5238,5.5786,5.5747,5.5942,5.5788,5.5714,5.5872,5.5799,5.5532,5.5379,5.5497,5.5731,5.6161,5.6475,5.6357,5.6242,5.6242,5.6243,5.6209,5.6211,5.6093,5.5935,5.6011,5.6164,5.6473,5.69,5.725,5.7561,5.8219,5.9141,5.9276,5.8737,5.774,5.8,5.8135,5.779,5.7253,5.7075,5.7403,5.7474,5.7417,5.7237,5.677,5.6272,5.5974,5.5521,5.5144,5.4837,5.4606,5.4305,5.4204,5.4326,5.4619,5.4735,5.4735,5.4697,4.8452,4.6999,4.6438,4.6428,4.685,4.7312,4.6995,4.6449,4.7106,4.7729,4.7894,4.727,4.7072,4.7772,4.8197,4.8659,4.9234,4.9347,4.9889,5.0194,5.0307,5.0151,5.0424,5.0891,5.0969,5.0813,5.1047,5.1398,5.171,5.1437,5.132,5.171,5.1359,5.1515,5.229,5.2489,5.2645,5.3264,5.4048,5.3775,5.2957,5.2991,5.3307,5.3619,5.3775,5.358,5.3771,5.3732,5.3502,5.3307,5.3229,5.3709,5.3958,5.3621,5.3478,5.3841,5.4203,5.4562,5.4918,5.5548,5.6331,5.6174,5.6177,5.6177,5.6179,5.6259,5.5909,5.5642,5.5407,5.5448,5.5993,5.6502,5.6541,5.6502,5.6468,5.6472,5.6475,5.644,5.6443,5.6404,5.621,5.6015,5.6172,5.6327,5.66,5.6287,5.6795,5.7687,5.8733,5.962,5.929,5.9111,5.8939,5.8601,5.7857,5.741,5.7089,5.7536,5.8143,5.7426,5.6831,5.6541,5.6218,5.6045,5.5786,5.5443,5.5176,5.514,5.525,5.5141,5.5379,5.5741,5.578,5.578,5.578,4.8187,4.6304,4.622,4.6688,4.7426,4.7492,4.7096,4.6589,4.7161,4.7816,4.821,4.7795,4.772,4.8337,4.9184,4.9687,4.9995,5.0038,5.0346,5.0579,5.0735,5.0541,5.0579,5.093,5.1047,5.1164,5.1281,5.1865,5.2411,5.2021,5.2021,5.2602,5.2913,5.3108,5.3693,5.3966,5.3927,5.397,5.4242,5.4203,5.3849,5.3537,5.3853,5.4281,5.455,5.4983,5.5018,5.4862,5.4472,5.4554,5.4281,5.4757,5.4843,5.4578,5.4437,5.4606,5.4811,5.5132,5.5491,5.6048,5.6404,5.6563,5.6604,5.6604,5.6565,5.6411,5.6098,5.5944,5.571,5.5827,5.6413,5.6608,5.6647,5.6686,5.6694,5.6662,5.6666,5.6631,5.6631,5.6631,5.6439,5.6206,5.6247,5.6366,5.621,5.5819,5.6055,5.6873,5.7727,5.8461,5.8722,5.8705,5.8727,5.8311,5.7974,5.7723,5.7446,5.7749,5.8121,5.7211,5.6495,5.6446,5.6381,5.6224,5.5967,5.5721,5.5644,5.5603,5.5714,5.5831,5.5907,5.6029,5.6399,5.6476,5.6786,4.6652,4.6209,4.6196,4.6736,4.7434,4.7508,4.7391,4.7274,4.7349,4.7271,4.7271,4.8245,4.883,4.9492,4.9726,5.0073,5.0268,5.0502,5.0813,5.1086,5.0696,5.0735,5.0887,5.1004,5.1242,5.1359,5.1472,5.1822,5.2411,5.2407,5.2719,5.342,5.3576,5.3732,5.3927,5.4316,5.4862,5.4827,5.5022,5.5217,5.4281,5.4082,5.4316,5.4316,5.4043,5.4121,5.4121,5.4121,5.4472,5.494,5.545,5.5766,5.5771,5.5463,5.5315,5.5365,5.5535,5.5659,5.6062,5.6347,5.6548,5.655,5.6555,5.6602,5.6602,5.6682,5.6565,5.6684,5.6567,5.6723,5.7074,5.684,5.6762,5.6879,5.6922,5.6811,5.6777,5.674,5.6702,5.6666,5.6553,5.6437,5.6476,5.6518,5.6521,5.6287,5.6249,5.6992,5.7458,5.7806,5.8111,5.8215,5.8356,5.8707,5.866,5.8279,5.8074,5.8297,5.8168,5.7373,5.6853,5.6611,5.651,5.6314,5.6253,5.6125,5.6051,5.5961,5.5998,5.6071,5.6064,5.6217,5.6687,5.7211,5.7521]}]]